[[{"header":{"parameterUnit":"m.s-1","parameterCategory":1,"la1":30.6,"la2":29.2853,"lo1":-89.7004,"lo2":-87.6739,"dy":0.0162,"dx":0.0183,"nx":112,"ny":82,"refTime":"2023-04-18T12:00:00:Z","depth":0,"parameterNumber":2,"parameterNumberName":"U-component_of_WINDS"},"data":[0.0,0.0,0.0,0.0,0.0,0.0,0.0,0.0,0.0,0.0,0.0,0.0,0.0,0.0,0.0,0.0,0.0,0.0,0.0,0.0,0.0,0.0,0.0,0.0,0.0,0.0,0.0,0.0,0.0,0.0,0.0,0.0,0.0,0.0,0.0,0.0,0.0,0.0,0.0,0.0,0.0,0.0,0.0,0.0,0.0,0.0,0.0,0.0,0.0,0.0,0.0,0.0,0.0,0.0,0.0,0.0,0.0,0.0,0.0,0.0,0.0,0.0,0.0,0.0,0.0,0.0,0.0,0.0,0.0,0.0,0.0,0.0,0.0,0.0,0.0,0.0,0.0,0.0,0.0,0.0,0.0,0.0,0.0,0.0,0.0,0.0,0.0,0.0,0.0,0.0,-3.747,-4.0183,-4.4396,-4.6391,-4.4906,-4.4442,-4.3033,-4.0251,0.0,0.0,0.0,0.0,0.0,0.0,0.0,0.0,0.0,0.0,0.0,0.0,0.0,0.0,0.0,0.0,0.0,0.0,0.0,0.0,0.0,0.0,0.0,0.0,0.0,0.0,0.0,0.0,0.0,0.0,0.0,0.0,0.0,0.0,0.0,0.0,0.0,0.0,0.0,0.0,0.0,0.0,0.0,0.0,0.0,0.0,0.0,0.0,0.0,0.0,0.0,0.0,0.0,0.0,0.0,0.0,0.0,0.0,0.0,0.0,0.0,0.0,0.0,0.0,0.0,0.0,0.0,0.0,0.0,0.0,0.0,0.0,0.0,0.0,0.0,0.0,0.0,0.0,0.0,0.0,0.0,0.0,0.0,0.0,0.0,0.0,0.0,0.0,0.0,0.0,0.0,0.0,0.0,0.0,0.0,0.0,0.0,0.0,0.0,0.0,0.0,0.0,0.0,0.0,-3.8223,-4.257,-4.5422,-4.6605,-4.5713,-4.3786,-4.2144,-4.1002,0.0,0.0,0.0,0.0,0.0,0.0,0.0,0.0,0.0,0.0,0.0,0.0,0.0,0.0,0.0,0.0,0.0,0.0,0.0,0.0,0.0,0.0,0.0,0.0,0.0,0.0,0.0,0.0,0.0,0.0,0.0,0.0,0.0,0.0,0.0,0.0,0.0,0.0,0.0,0.0,0.0,0.0,0.0,0.0,0.0,0.0,0.0,0.0,0.0,0.0,0.0,0.0,0.0,0.0,0.0,0.0,0.0,0.0,0.0,0.0,0.0,0.0,0.0,0.0,0.0,0.0,0.0,0.0,0.0,0.0,0.0,0.0,0.0,0.0,0.0,0.0,0.0,0.0,0.0,0.0,0.0,0.0,0.0,0.0,0.0,0.0,0.0,0.0,0.0,0.0,0.0,0.0,0.0,0.0,0.0,0.0,0.0,0.0,0.0,0.0,0.0,0.0,0.0,-3.7761,-3.9498,-4.3363,-4.5421,-4.6365,-4.5851,-4.3643,-4.1948,-4.1145,-3.9557,0.0,0.0,0.0,0.0,0.0,0.0,0.0,0.0,0.0,0.0,0.0,0.0,0.0,0.0,0.0,0.0,0.0,0.0,0.0,0.0,0.0,0.0,0.0,0.0,0.0,0.0,0.0,0.0,0.0,0.0,0.0,0.0,0.0,0.0,0.0,0.0,0.0,0.0,0.0,0.0,0.0,0.0,0.0,0.0,0.0,0.0,0.0,0.0,0.0,0.0,0.0,0.0,0.0,0.0,0.0,0.0,0.0,0.0,0.0,0.0,0.0,0.0,0.0,0.0,0.0,0.0,0.0,0.0,0.0,0.0,0.0,0.0,0.0,0.0,0.0,0.0,0.0,0.0,0.0,0.0,0.0,0.0,0.0,0.0,0.0,0.0,0.0,0.0,0.0,0.0,0.0,0.0,0.0,0.0,0.0,0.0,0.0,0.0,0.0,0.0,0.0,0.0,-3.8874,-4.0688,-4.3483,-4.4959,-4.5613,-4.5346,-4.3031,-4.1276,-4.061,-3.8504,0.0,0.0,0.0,0.0,0.0,0.0,0.0,0.0,0.0,0.0,0.0,0.0,0.0,0.0,0.0,0.0,0.0,0.0,0.0,0.0,0.0,0.0,0.0,0.0,0.0,0.0,0.0,0.0,0.0,0.0,0.0,0.0,0.0,0.0,0.0,0.0,0.0,0.0,0.0,0.0,0.0,0.0,0.0,0.0,0.0,0.0,0.0,0.0,0.0,0.0,0.0,0.0,0.0,0.0,0.0,0.0,0.0,0.0,0.0,0.0,0.0,0.0,0.0,0.0,0.0,0.0,0.0,0.0,0.0,0.0,0.0,0.0,0.0,0.0,0.0,0.0,0.0,0.0,0.0,0.0,0.0,0.0,0.0,0.0,0.0,0.0,0.0,0.0,0.0,0.0,0.0,0.0,0.0,0.0,0.0,0.0,0.0,0.0,0.0,0.0,0.0,0.0,-3.9221,-4.1545,-4.3238,-4.3994,-4.4218,-4.3945,-4.117,-3.93,-3.8984,-3.7398,0.0,0.0,0.0,0.0,0.0,0.0,0.0,0.0,0.0,0.0,0.0,0.0,0.0,0.0,0.0,0.0,0.0,0.0,0.0,0.0,0.0,0.0,0.0,0.0,0.0,0.0,0.0,0.0,0.0,0.0,0.0,0.0,0.0,0.0,0.0,0.0,0.0,0.0,0.0,0.0,0.0,0.0,0.0,0.0,0.0,0.0,0.0,0.0,0.0,0.0,0.0,0.0,0.0,0.0,0.0,0.0,0.0,0.0,0.0,0.0,0.0,0.0,0.0,0.0,0.0,0.0,0.0,0.0,0.0,0.0,0.0,0.0,0.0,0.0,0.0,0.0,0.0,0.0,0.0,0.0,0.0,0.0,0.0,0.0,0.0,0.0,0.0,0.0,0.0,0.0,0.0,0.0,0.0,0.0,0.0,0.0,0.0,0.0,0.0,0.0,0.0,0.0,-3.8436,-4.0508,-4.1984,-4.3177,-4.334,-4.2113,-4.0749,-3.949,-3.8422,0.0,0.0,0.0,0.0,0.0,0.0,0.0,0.0,0.0,0.0,0.0,0.0,0.0,0.0,0.0,0.0,0.0,0.0,0.0,0.0,0.0,0.0,0.0,0.0,0.0,0.0,0.0,0.0,0.0,0.0,0.0,0.0,0.0,0.0,0.0,0.0,0.0,0.0,0.0,0.0,0.0,0.0,0.0,0.0,0.0,0.0,0.0,0.0,0.0,0.0,0.0,0.0,0.0,0.0,0.0,0.0,0.0,0.0,0.0,0.0,0.0,0.0,0.0,0.0,0.0,0.0,0.0,0.0,0.0,0.0,0.0,0.0,0.0,0.0,0.0,0.0,0.0,0.0,0.0,0.0,0.0,0.0,0.0,0.0,0.0,0.0,0.0,0.0,0.0,0.0,0.0,0.0,0.0,0.0,0.0,0.0,0.0,0.0,0.0,0.0,0.0,0.0,-3.5722,-3.7721,-3.9595,-4.1052,-4.204,-4.2053,-4.0724,-3.9738,-3.8777,-3.7777,0.0,0.0,0.0,0.0,0.0,0.0,0.0,0.0,0.0,0.0,0.0,0.0,0.0,0.0,0.0,0.0,0.0,0.0,0.0,0.0,0.0,0.0,0.0,0.0,0.0,0.0,0.0,0.0,0.0,0.0,0.0,0.0,0.0,0.0,0.0,0.0,0.0,0.0,0.0,0.0,0.0,0.0,0.0,0.0,0.0,0.0,0.0,0.0,0.0,0.0,0.0,0.0,0.0,0.0,0.0,0.0,0.0,0.0,0.0,0.0,0.0,0.0,0.0,0.0,0.0,0.0,0.0,0.0,0.0,0.0,0.0,0.0,0.0,0.0,0.0,0.0,0.0,0.0,0.0,0.0,0.0,0.0,0.0,0.0,0.0,0.0,0.0,0.0,0.0,0.0,0.0,0.0,0.0,0.0,0.0,0.0,0.0,0.0,0.0,0.0,0.0,0.0,-3.5515,-3.7287,-3.9083,-4.0615,-4.0556,-4.0277,-4.0003,-3.7918,-3.6683,0.0,0.0,0.0,0.0,0.0,0.0,0.0,0.0,0.0,0.0,0.0,0.0,0.0,0.0,0.0,0.0,0.0,0.0,0.0,0.0,0.0,0.0,0.0,0.0,0.0,0.0,0.0,0.0,0.0,0.0,0.0,0.0,0.0,0.0,0.0,0.0,0.0,0.0,0.0,0.0,0.0,0.0,0.0,0.0,0.0,0.0,0.0,0.0,0.0,0.0,0.0,0.0,0.0,0.0,0.0,0.0,0.0,0.0,0.0,0.0,0.0,0.0,0.0,0.0,0.0,0.0,0.0,0.0,0.0,0.0,0.0,0.0,0.0,0.0,0.0,0.0,0.0,0.0,0.0,0.0,0.0,0.0,0.0,0.0,0.0,0.0,0.0,0.0,0.0,0.0,0.0,0.0,0.0,0.0,0.0,0.0,0.0,0.0,0.0,0.0,0.0,0.0,0.0,-3.6265,-3.7754,-3.9059,-3.9921,-4.0331,-3.9851,-3.8094,-3.7648,-3.7034,-3.6058,0.0,0.0,0.0,0.0,0.0,0.0,0.0,0.0,0.0,0.0,0.0,0.0,0.0,0.0,0.0,0.0,0.0,0.0,0.0,0.0,0.0,0.0,0.0,0.0,0.0,0.0,0.0,0.0,0.0,0.0,0.0,0.0,0.0,0.0,0.0,0.0,0.0,0.0,0.0,0.0,0.0,0.0,0.0,0.0,0.0,0.0,0.0,0.0,0.0,0.0,0.0,0.0,0.0,0.0,0.0,0.0,0.0,0.0,0.0,0.0,0.0,0.0,0.0,0.0,0.0,0.0,0.0,0.0,0.0,0.0,0.0,0.0,0.0,0.0,0.0,0.0,0.0,0.0,0.0,0.0,0.0,0.0,0.0,0.0,0.0,0.0,0.0,0.0,0.0,0.0,0.0,0.0,0.0,0.0,0.0,0.0,0.0,0.0,0.0,0.0,0.0,0.0,-3.6609,-3.7701,-3.8731,-3.968,-4.0053,-3.9537,-3.7768,-3.761,-3.7148,-3.6113,0.0,0.0,0.0,0.0,0.0,0.0,0.0,0.0,0.0,0.0,0.0,0.0,0.0,0.0,0.0,0.0,0.0,0.0,0.0,0.0,0.0,0.0,0.0,0.0,0.0,0.0,0.0,0.0,0.0,0.0,0.0,0.0,0.0,0.0,0.0,0.0,0.0,0.0,0.0,0.0,0.0,0.0,0.0,0.0,0.0,0.0,0.0,0.0,0.0,0.0,0.0,0.0,0.0,0.0,0.0,0.0,0.0,0.0,0.0,0.0,0.0,0.0,0.0,0.0,0.0,0.0,0.0,0.0,0.0,0.0,0.0,0.0,0.0,0.0,0.0,0.0,0.0,0.0,0.0,0.0,0.0,0.0,0.0,0.0,0.0,0.0,0.0,0.0,0.0,0.0,0.0,0.0,0.0,0.0,0.0,0.0,0.0,0.0,0.0,0.0,0.0,0.0,-3.6711,-3.7415,-3.8311,-3.9724,-3.9755,-3.9315,-3.8452,-3.7769,-3.7168,-3.6679,0.0,0.0,0.0,0.0,0.0,0.0,0.0,0.0,0.0,0.0,0.0,0.0,0.0,0.0,0.0,0.0,0.0,0.0,0.0,0.0,0.0,0.0,0.0,0.0,0.0,0.0,0.0,0.0,0.0,0.0,0.0,0.0,0.0,0.0,0.0,0.0,0.0,0.0,0.0,0.0,0.0,0.0,0.0,0.0,0.0,0.0,0.0,0.0,0.0,0.0,0.0,0.0,0.0,0.0,0.0,0.0,0.0,0.0,0.0,0.0,-3.706,-3.799,0.0,0.0,0.0,0.0,0.0,0.0,0.0,0.0,0.0,0.0,0.0,0.0,0.0,0.0,0.0,0.0,0.0,0.0,0.0,0.0,0.0,0.0,0.0,0.0,0.0,0.0,0.0,0.0,0.0,0.0,0.0,0.0,0.0,0.0,0.0,0.0,0.0,0.0,0.0,0.0,-3.755,-3.8117,-3.8757,-3.9645,-3.952,-3.9096,-3.833,-3.8114,-3.7476,-3.6246,-3.6013,0.0,0.0,0.0,0.0,0.0,0.0,0.0,0.0,0.0,0.0,0.0,0.0,0.0,0.0,0.0,0.0,0.0,0.0,0.0,0.0,0.0,0.0,0.0,0.0,0.0,0.0,0.0,0.0,0.0,0.0,0.0,0.0,0.0,0.0,0.0,0.0,0.0,0.0,0.0,0.0,0.0,0.0,0.0,0.0,0.0,0.0,0.0,0.0,0.0,0.0,0.0,0.0,0.0,0.0,0.0,0.0,0.0,0.0,0.0,-3.6603,-3.7026,0.0,0.0,0.0,0.0,0.0,0.0,0.0,0.0,0.0,0.0,0.0,0.0,0.0,0.0,0.0,0.0,0.0,0.0,0.0,0.0,0.0,0.0,0.0,0.0,0.0,0.0,0.0,0.0,0.0,0.0,0.0,0.0,0.0,0.0,0.0,0.0,0.0,0.0,0.0,0.0,-3.8294,-3.8629,-3.9076,-3.9825,-3.9781,-3.9475,-3.8952,-3.8602,-3.7859,-3.6605,-3.6208,0.0,0.0,0.0,0.0,0.0,0.0,0.0,0.0,0.0,0.0,0.0,0.0,0.0,0.0,0.0,0.0,0.0,0.0,0.0,0.0,0.0,0.0,0.0,0.0,0.0,0.0,0.0,0.0,0.0,0.0,0.0,0.0,0.0,0.0,0.0,0.0,0.0,0.0,0.0,0.0,0.0,0.0,0.0,0.0,0.0,0.0,0.0,0.0,0.0,0.0,0.0,0.0,0.0,-3.8599,-3.8937,-3.8497,-3.9106,-3.9056,-3.8413,-3.7121,-3.6738,-3.6948,-3.6146,0.0,0.0,0.0,0.0,0.0,0.0,0.0,0.0,0.0,0.0,0.0,0.0,0.0,0.0,0.0,0.0,0.0,0.0,0.0,0.0,0.0,0.0,-3.7185,-3.7185,-3.7736,-3.8278,-3.8278,0.0,0.0,0.0,0.0,0.0,0.0,0.0,0.0,0.0,0.0,0.0,-3.865,-3.8997,-3.9386,-3.9995,-4.0045,-3.9935,-3.9677,-3.9116,-3.8337,-3.7334,-3.6605,-3.5926,0.0,0.0,0.0,0.0,0.0,0.0,0.0,0.0,0.0,0.0,0.0,0.0,0.0,0.0,0.0,0.0,0.0,0.0,0.0,0.0,0.0,0.0,0.0,0.0,0.0,0.0,0.0,0.0,0.0,0.0,0.0,0.0,-3.71,-3.71,0.0,0.0,0.0,0.0,0.0,0.0,0.0,0.0,0.0,0.0,0.0,0.0,0.0,-3.8058,-3.87,-3.9351,-3.9673,-3.9673,-3.9868,-4.0257,-4.0781,-4.0865,-4.0865,-4.0747,-4.0561,0.0,-3.7702,-3.6941,0.0,0.0,0.0,0.0,0.0,0.0,0.0,0.0,0.0,0.0,0.0,0.0,0.0,0.0,0.0,0.0,0.0,0.0,0.0,0.0,0.0,0.0,-3.87,-3.87,-3.9283,-3.9808,-3.9808,-3.8802,-3.7905,-3.7905,-3.7821,-3.755,0.0,0.0,0.0,0.0,0.0,0.0,-3.8024,-3.9058,-3.9808,-3.991,-3.9833,-3.9677,-3.9537,-3.9428,-3.8983,-3.8112,-3.7367,-3.692,-3.682,-3.6208,0.0,0.0,0.0,0.0,0.0,0.0,0.0,0.0,0.0,0.0,0.0,0.0,0.0,0.0,0.0,0.0,0.0,0.0,0.0,0.0,0.0,0.0,0.0,0.0,0.0,0.0,0.0,0.0,0.0,-3.7347,-3.7263,-3.6846,-3.6857,-3.6546,0.0,0.0,0.0,0.0,0.0,0.0,0.0,0.0,0.0,-3.8007,-3.9157,-3.9918,-4.024,-4.1373,-4.1948,-4.1965,-4.2844,-4.32,-4.3115,-4.3116,-4.2879,-4.2405,-4.2018,-4.1054,-3.9699,-3.816,-3.7301,-3.6801,0.0,0.0,0.0,0.0,-3.5374,-3.5542,-3.5542,-3.5389,-3.5231,-3.5564,0.0,0.0,0.0,0.0,0.0,0.0,0.0,-3.7065,-3.7863,-3.8022,-3.8081,-3.8467,-3.8824,-3.895,-3.8553,-3.8305,-3.8339,-3.9007,-3.8802,-3.8413,-3.8075,-3.7686,0.0,0.0,0.0,-3.8667,-3.9073,-3.9631,-4.0011,-4.0011,-3.9961,-3.9858,-3.9746,-3.9668,-3.9063,-3.7776,-3.7335,-3.6738,-3.5909,-3.5545,-3.5727,0.0,0.0,0.0,0.0,0.0,0.0,0.0,0.0,0.0,0.0,0.0,0.0,0.0,0.0,0.0,0.0,0.0,0.0,0.0,0.0,0.0,0.0,0.0,0.0,0.0,0.0,0.0,0.0,-3.7313,-3.755,-3.6626,-3.7364,-3.742,0.0,0.0,0.0,0.0,0.0,0.0,-3.7352,-3.7985,-3.8718,-3.9556,-4.0996,-4.1849,-4.2078,-4.3513,-4.4152,-4.4012,-4.5118,-4.5394,-4.4858,-4.4861,-4.4547,-4.3959,-4.341,-4.267,-4.1685,-3.9535,-3.8202,-3.7443,-3.6312,-3.6158,-3.6535,-3.6002,-3.6066,-3.6424,-3.6424,-3.6185,-3.5991,-3.621,-3.671,-3.7158,-3.6656,0.0,0.0,0.0,0.0,-3.6896,-3.7935,-3.785,-3.7619,-3.8125,-3.8266,-3.8149,-3.7603,-3.7922,-3.8574,-3.9454,-3.9311,-3.8992,-3.879,-3.8434,0.0,-3.8667,-3.887,-3.9191,-3.9757,-3.9994,-4.0096,-4.0096,-4.0096,-4.0062,-3.9901,-3.9824,-3.9234,-3.8003,-3.7594,-3.6937,-3.5826,-3.5586,-3.5727,-3.6274,0.0,0.0,0.0,0.0,0.0,0.0,0.0,0.0,0.0,0.0,0.0,0.0,0.0,0.0,0.0,0.0,0.0,0.0,0.0,0.0,0.0,0.0,0.0,0.0,0.0,0.0,0.0,0.0,0.0,-3.5836,-3.7093,0.0,0.0,0.0,0.0,-3.7886,-3.7402,-3.76,-3.8911,-3.9027,-3.9688,-4.1042,-4.2504,-4.3651,-4.444,-4.5833,-4.6197,-4.5597,-4.5587,-4.5629,-4.5648,-4.5647,-4.5613,-4.5581,-4.5547,-4.4721,-4.3218,-4.1008,-3.9702,-3.9021,-3.8237,-3.7979,-3.7983,-3.7963,-3.7652,-3.7231,-3.7231,-3.6496,-3.5658,-3.6261,-3.6905,-3.7383,-3.7352,-3.7742,0.0,0.0,-3.8181,-3.8197,-3.8278,-3.8262,-3.8246,-3.8278,-3.8306,-3.8306,-3.823,-3.8262,-3.8306,-3.8362,-3.8832,-3.8977,-3.828,0.0,-3.8717,-3.8058,-3.8548,-3.9005,-3.9039,-3.9673,-4.0096,-4.0096,-4.0096,-4.0062,-3.9901,-3.9901,-3.9816,-3.9603,-3.8796,-3.8302,-3.8219,-3.7427,-3.7019,-3.7052,-3.7052,0.0,0.0,0.0,0.0,0.0,0.0,0.0,0.0,0.0,0.0,0.0,0.0,0.0,0.0,0.0,0.0,0.0,0.0,0.0,0.0,0.0,0.0,0.0,0.0,0.0,0.0,0.0,0.0,-3.7914,-3.9198,0.0,-3.8427,-3.8549,-3.8679,-3.8727,-3.8998,-3.9527,-4.0419,-4.1023,-4.1965,-4.3283,-4.4756,-4.5847,-4.6579,-4.7557,-4.7916,-4.7688,-4.767,-4.7658,-4.7661,-4.6765,-4.6327,-4.6275,-4.5378,-4.4454,-4.3494,-4.2723,-4.1439,-3.9848,-3.878,-3.8607,-3.8904,-3.8028,-3.8122,-3.8646,-3.8228,-3.7807,-3.7477,-3.7707,-3.7342,-3.6971,-3.7856,-3.7951,-3.7807,-3.7807,-3.7807,-3.7807,-3.7807,-3.7478,-3.7242,-3.7697,-3.7462,-3.7133,-3.7133,-3.7133,-3.7133,-3.7133,-3.7953,-3.8547,-3.8286,-3.8417,-3.8469,-3.8196,-3.8387,-3.8552,-3.8552,-3.8766,-3.893,-3.893,-3.9295,-3.9487,-3.9329,-3.9609,-3.9301,-3.822,-3.7769,-3.7144,-3.6182,-3.5851,-3.5909,-3.639,-3.5926,-3.5794,0.0,0.0,0.0,0.0,0.0,0.0,0.0,0.0,0.0,0.0,0.0,0.0,0.0,0.0,0.0,0.0,0.0,0.0,0.0,0.0,0.0,0.0,0.0,0.0,0.0,-3.8572,-4.0049,-3.979,-4.1293,-4.1869,-4.0657,-4.0785,-4.0959,-4.0974,-4.126,-4.1789,-4.2635,-4.3258,-4.411,-4.5163,-4.639,-4.7237,-4.7718,-4.8407,-4.8631,-4.8423,-4.8403,-4.8163,-4.7686,-4.6758,-4.6219,-4.5931,-4.5022,-4.4363,-4.3947,-4.3947,-4.2984,-4.1372,-4.031,-4.0031,-4.0108,-3.9216,-3.9293,-3.9721,-3.9059,-3.8846,-3.8816,-3.8585,-3.7908,-3.7338,-3.8231,-3.82,-3.78,-3.7569,-3.7661,-3.78,-3.7569,-3.7338,-3.723,-3.7446,-3.7153,-3.6769,-3.6538,-3.6492,-3.6492,-3.6492,-3.7312,-3.7982,-3.7982,-3.8181,-3.8306,-3.8306,-3.8306,-3.8306,-3.8306,-3.8306,-3.8306,-3.8306,-3.8657,-3.8865,-3.8783,-3.9001,-3.8596,-3.7329,-3.7211,-3.6569,-3.5144,-3.5423,-3.576,-3.6009,-3.5512,-3.5512,-3.6009,0.0,0.0,0.0,0.0,0.0,0.0,0.0,0.0,0.0,0.0,0.0,0.0,0.0,0.0,0.0,0.0,0.0,0.0,0.0,0.0,0.0,0.0,0.0,-3.7162,-4.0144,-4.206,-4.1308,-4.326,-4.435,-4.3553,-4.3019,-4.3248,-4.4548,-4.4055,-4.4271,-4.5541,-4.5618,-4.5926,-4.6603,-4.7317,-4.77,-4.7716,-4.8394,-4.8378,-4.7732,-4.7656,-4.6942,-4.5649,-4.5634,-4.5249,-4.4641,-4.4625,-4.461,-4.461,-4.461,-4.4225,-4.3578,-4.2894,-4.2232,-4.1632,-4.1617,-4.114,-4.0397,-3.9751,-3.9521,-3.9413,-3.8785,-3.8554,-3.8554,-3.8569,-3.8554,-3.8415,-3.7754,-3.8031,-3.8385,-3.7707,-3.8015,-3.8338,-3.7661,-3.7507,-3.7323,-3.663,-3.6492,-3.6492,-3.6492,-3.6983,-3.7387,-3.7387,-3.7854,-3.825,-3.825,-3.825,0.0,-3.825,-3.825,-3.825,-3.825,-3.825,-3.8266,-3.8266,-3.8088,-3.7709,-3.7104,-3.7215,-3.6716,-3.5384,-3.6395,-3.6638,-3.5951,-3.5992,-3.6009,-3.6042,0.0,0.0,0.0,0.0,0.0,0.0,0.0,0.0,0.0,0.0,0.0,0.0,0.0,0.0,0.0,0.0,0.0,0.0,0.0,0.0,0.0,-3.8074,-3.9834,-3.8949,-4.1311,-4.3236,-4.3593,-4.5073,-4.575,-4.5069,-4.5318,-4.5449,-4.5311,-4.5588,-4.5926,-4.6296,-4.6326,-4.6634,-4.7296,-4.7512,-4.7865,-4.836,-4.8546,-4.8546,-4.836,-4.8317,-4.7881,-4.7034,-4.6542,-4.5957,-4.528,-4.4825,-4.461,-4.461,-4.461,-4.4502,-4.4271,-4.3608,-4.291,-4.2279,-4.1786,-4.114,-4.0459,-4.0274,-4.0213,-4.0182,-3.9997,-3.9613,-3.9339,-3.9782,-3.9598,-3.92,-3.9016,-3.9059,-3.9059,-3.8415,-3.8369,-3.8338,-3.7661,-3.7507,-3.7323,-3.663,-3.6492,-3.6492,-3.6492,-3.6631,-3.6754,-3.6754,-3.6892,-3.6997,-3.6997,-3.6997,-3.6997,-3.6997,-3.6997,-3.6997,-3.6997,-3.7401,-3.7608,-3.7519,-3.7418,-3.7021,-3.6204,-3.5615,-3.4899,-3.3992,-3.4162,-3.4385,-3.4634,-3.5531,-3.6257,0.0,0.0,0.0,0.0,0.0,0.0,0.0,0.0,0.0,0.0,0.0,0.0,0.0,0.0,0.0,0.0,0.0,0.0,0.0,0.0,0.0,0.0,-3.9977,-4.1895,-4.2037,-4.3603,-4.5011,-4.575,-4.6788,-4.7281,-4.6896,-4.7219,-4.7281,-4.688,-4.7219,-4.745,-4.745,-4.745,-4.7619,-4.8019,-4.8035,-4.8219,-4.862,-4.862,-4.862,-4.862,-4.862,-4.8266,-4.7588,-4.6911,-4.6219,-4.5541,-4.4902,-4.461,-4.461,-4.461,-4.461,-4.4579,0.0,0.0,0.0,0.0,-4.114,-4.0489,-4.0489,-4.0489,-4.0443,-4.0166,-3.9997,-3.992,-4.0043,-3.9997,-3.9844,-3.9567,-3.969,-3.9751,-3.9108,-3.8939,-3.8769,-3.8077,-3.7707,-3.7323,-3.663,-3.6492,-3.6492,-3.6492,-3.6492,0.0,-3.6492,-3.6492,-3.6492,-3.6492,-3.6492,-3.6492,-3.6492,-3.6492,-3.6492,-3.6492,-3.6816,-3.6983,-3.6892,-3.6476,0.0,0.0,0.0,-3.3959,-3.3779,-3.3694,0.0,0.0,0.0,-3.6313,-3.6783,-3.7745,0.0,0.0,-3.895,-3.9299,0.0,0.0,0.0,0.0,0.0,0.0,0.0,0.0,0.0,0.0,0.0,0.0,0.0,0.0,0.0,0.0,-4.2001,-4.371,-4.5557,-4.6465,-4.7111,-4.7558,-4.8204,-4.862,-4.862,-4.862,-4.862,-4.862,-4.862,-4.862,-4.862,-4.862,0.0,0.0,0.0,-4.862,-4.862,-4.862,-4.862,-4.862,-4.862,-4.8266,-4.7588,-4.6911,-4.6219,-4.5541,-4.4902,-4.461,-4.461,-4.461,-4.461,-4.4594,-4.4418,-4.4024,-4.3331,-4.1971,-4.1078,-4.0489,-4.0489,0.0,0.0,-3.9797,-4.0013,-4.0382,-3.9782,-3.9967,-4.0274,-3.9751,-3.9982,-4.0259,-3.9736,-3.9598,-3.9413,-3.8692,-3.8061,-3.7415,-3.6661,-3.6492,-3.6492,-3.6492,-3.6492,-3.6492,-3.6492,-3.6492,-3.6492,-3.6492,-3.6492,-3.6492,-3.6492,-3.6492,-3.6492,-3.6492,-3.6492,0.0,-3.6492,-3.5584,-3.479,-3.4167,-3.3626,-3.3522,-3.3967,-3.4112,-3.4486,-3.5074,-3.584,-3.624,-3.6301,-3.759,-3.8236,-3.8322,-3.8996,-3.9299,0.0,0.0,0.0,0.0,0.0,0.0,0.0,0.0,0.0,0.0,0.0,0.0,0.0,0.0,0.0,-4.1201,-4.3879,-4.6157,-4.708,-4.8296,-4.8712,-4.7727,-4.8204,-4.862,-4.862,-4.862,-4.862,-4.862,-4.862,-4.862,-4.862,-4.862,-4.862,-4.862,-4.862,-4.862,-4.862,-4.862,-4.862,-4.862,-4.862,0.0,-4.7588,-4.6911,-4.6219,-4.5541,-4.4902,-4.461,-4.461,-4.461,-4.461,-4.4502,-4.3402,-4.291,-4.2633,-4.1212,-4.0612,-4.0489,-4.0489,-4.0489,-4.0474,-4.0336,-4.0382,-4.0474,-4.0336,-4.0013,0.0,-4.0182,-3.9997,-3.9782,-4.0197,-4.0305,-3.9982,-3.88,-3.8415,-3.7984,-3.6753,-3.6492,-3.6492,-3.6492,-3.6492,-3.6492,-3.6492,-3.6492,-3.6492,-3.6492,-3.6492,-3.6492,-3.6492,-3.6492,-3.6492,-3.6492,-3.6492,-3.6492,-3.6492,-3.5661,-3.5126,-3.4988,-3.3636,-3.2594,-3.2065,-3.3021,-3.3658,-3.3754,-3.5427,-3.6302,-3.6301,-3.7613,-3.8277,-3.8322,-3.8996,-3.9299,0.0,0.0,0.0,0.0,0.0,0.0,0.0,0.0,0.0,0.0,0.0,-3.8323,-3.9354,0.0,-4.2894,-4.3925,-4.6372,-4.8127,-4.8112,-4.902,-4.942,-4.8727,-4.9235,-4.9374,-4.8681,-4.8943,-4.9004,-4.8635,-4.862,-4.862,-4.862,-4.862,-4.862,-4.862,-4.862,-4.862,-4.862,-4.862,-4.862,-4.862,-4.862,-4.8435,-4.8081,-4.7404,-4.6726,-4.6049,-4.5372,-4.4895,-4.461,-4.461,-4.461,-4.4517,-4.3479,-4.2894,-4.2525,-4.1832,-4.1089,-4.0489,-4.0489,-4.0489,-4.0443,-4.0105,-4.0213,-4.0366,-3.969,-3.9721,-3.992,-3.9582,-3.9721,-3.9982,-3.9982,-3.9736,-3.9339,-3.8677,-3.8,-3.7323,-3.663,-3.6492,-3.6492,-3.6492,-3.6492,-3.6492,-3.6492,-3.6492,-3.6492,-3.6492,-3.6492,-3.6492,-3.6492,-3.6492,-3.6492,-3.6492,-3.6492,-3.6492,-3.6492,-3.563,-3.4927,-3.4531,-3.3638,-3.2916,-3.2527,-3.311,-3.3621,-3.3955,-3.5209,-3.5869,-3.5892,-3.7196,-3.7677,-3.7354,-3.8339,-3.8996,0.0,0.0,0.0,0.0,0.0,0.0,0.0,-3.6708,-3.7092,-3.8569,-3.9308,-4.0247,-4.2032,-4.3895,-4.5526,-4.6619,-4.8419,-4.9481,-4.8912,-4.9328,-4.9682,-4.9682,-5.0051,-4.9851,-4.8727,-4.9143,-4.9235,-4.865,-4.862,-4.862,-4.862,-4.862,-4.862,-4.862,-4.862,-4.862,-4.862,-4.862,-4.862,-4.862,-4.862,-4.862,-4.8589,-4.7773,-4.7111,-4.6557,-4.5741,-4.508,-4.461,-4.461,-4.4533,-4.4363,-4.3824,-4.3171,-4.2586,-4.2463,-4.1709,-4.0674,-4.0551,-4.0489,-4.0397,-3.9859,-4.0043,-4.029,-3.9231,-3.9536,-4.0105,-3.917,-3.9551,-4.0197,-3.9782,-3.9308,-3.8862,-3.8739,-3.7769,-3.6846,-3.6722,-3.6584,-3.6492,-3.6492,-3.6492,-3.6492,-3.6492,-3.6492,-3.6492,-3.6492,-3.6492,-3.6492,-3.6492,-3.6492,-3.6492,-3.6492,-3.6492,-3.646,-3.6398,-3.5629,-3.4788,-3.4,-3.3786,-3.3634,-3.3499,-3.3619,-3.3933,-3.4503,-3.5124,-3.5459,-3.5504,-3.6646,-3.692,-3.643,-3.7589,-3.8479,-3.5968,-3.5675,-3.5845,-3.6261,-3.683,-3.7923,0.0,-4.0909,-4.1463,-4.3387,-4.3886,-4.4194,-4.4987,-4.6311,-4.7311,-4.7465,-4.8727,-4.9651,-4.9574,-4.9635,-4.9682,-4.9682,-4.9189,-4.8789,-4.8635,-4.8681,-4.8696,-4.862,-4.862,-4.862,-4.862,-4.862,-4.862,-4.862,-4.862,-4.862,-4.862,-4.862,-4.862,-4.862,-4.862,-4.862,-4.8573,-4.7296,-4.6665,-4.6526,-4.5249,-4.4687,-4.461,-4.461,-4.4255,-4.3701,-4.3639,-4.3171,-4.254,-4.194,-4.1617,-4.1386,-4.072,-4.0489,-4.0489,-4.0397,-4.0428,-4.0459,-4.032,-3.9951,-3.969,-4.0136,-3.9951,-3.9721,-4.0243,-4.032,-4.012,-3.9521,-3.8831,-3.8123,-3.7523,-3.6923,-3.6492,-3.6492,-3.6492,-3.6492,-3.6492,-3.6492,-3.6492,-3.6492,-3.6492,-3.6492,-3.6492,-3.6492,-3.6492,-3.6492,-3.6492,-3.6398,-3.6068,-3.5787,-3.5264,-3.4475,-3.4399,-3.4098,-3.3514,-3.4053,-3.4429,-3.4503,-3.5167,-3.5479,-3.5504,-3.6164,-3.6461,-3.643,-3.7161,-3.7838,-3.7292,-3.6676,-3.6415,-3.7892,-3.8477,-3.9185,-4.1155,-4.1909,-4.2633,-4.4249,-4.5203,-4.5957,-4.6634,-4.8204,-4.9281,-4.8881,-5.0297,-5.1036,-4.9851,-5.002,-4.982,-4.862,-4.8558,-4.862,-4.862,-4.8989,-4.9066,-4.8635,-4.862,-4.862,-4.862,-4.862,-4.862,-4.862,-4.862,-4.862,-4.862,-4.862,-4.862,-4.862,-4.862,-4.8419,-4.8004,-4.745,-4.6757,-4.5957,-4.4987,-4.461,-4.461,-4.461,-4.444,-4.4148,-4.3762,-4.3439,-4.3033,-4.1986,-4.1601,-4.1494,-4.0751,-4.0489,-4.0489,-4.0489,-4.0489,-4.0428,-4.0028,-3.9982,-3.9967,-3.9459,-3.969,-4.0043,-3.9936,-3.9905,-3.9844,-3.9585,-3.9,-3.8431,-3.8138,-3.7554,-3.7076,-3.7076,-3.7076,-3.7076,-3.7076,-3.7076,-3.7076,-3.7076,-3.6738,-3.6492,-3.6492,-3.6492,-3.6492,-3.6492,-3.6492,-3.6429,-3.6304,-3.6116,-3.5805,-3.5389,-3.5264,-3.5048,-3.4681,-3.4921,-3.507,-3.507,-3.5355,-3.5504,-3.5504,-3.5765,-3.5878,-3.5878,-3.6508,-3.6951,-3.7723,-3.723,-3.703,-3.9247,-4.0093,-4.0786,-4.234,-4.3217,-4.4079,-4.5418,-4.648,-4.7296,-4.7788,-4.9266,-5.0251,-4.9758,-5.0913,-5.1359,-4.9882,-4.9774,-4.9297,-4.7788,-4.7881,-4.8127,-4.8312,-4.8974,-4.9174,-4.865,-4.862,-4.862,-4.862,-4.862,-4.862,-4.862,-4.862,-4.862,-4.862,-4.862,-4.8527,-4.8327,-4.8327,-4.7973,-4.7327,-4.7127,-4.6419,-4.528,-4.4825,-4.461,-4.461,-4.461,-4.4502,-4.4286,-4.3793,-4.3501,-4.3223,-4.2232,-4.1755,-4.1494,-4.0751,-4.0489,-4.0489,-4.0489,-4.0628,-4.0689,-4.0247,-4.0432,-4.0582,-3.9631,-3.9924,-4.0382,-3.989,-3.9767,-3.9767,-3.9767,-3.9244,-3.8785,-3.8785,-3.8262,-3.7784,-3.7784,-3.7784,-3.7784,-3.7784,-3.7784,-3.7784,-3.7784,-3.72,-3.6707,-3.6507,-3.6492,-3.6492,-3.6492,-3.646,-3.6414,-3.6414,-3.6211,-3.6022,-3.5926,-3.575,-3.5589,-3.5504,-3.5504,-3.5504,-3.5504,-3.5504,-3.5504,-3.5504,-3.5504,-3.5504,-3.5504,-3.5941,-3.6133,-3.6184,-3.6522,-3.7138,-3.9782,-4.1489,-4.3033,-4.5018,-4.5988,-4.6865,-4.8204,-4.8527,-4.8558,-4.8573,-4.9204,-4.9712,-4.9682,-4.9743,-4.9758,-4.9697,-4.8543,-4.7665,-4.7619,-4.705,-4.6911,-4.7573,-4.825,-4.8635,-4.862,-4.862,-4.862,-4.862,-4.862,-4.862,-4.862,-4.862,-4.862,-4.862,-4.862,-4.8281,-4.7635,-4.7635,-4.7281,-4.6603,-4.5957,-4.5264,-4.4641,-4.4625,-4.461,-4.461,-4.461,-4.4225,-4.3639,-4.3624,-4.3187,-4.2633,-4.2586,-4.2171,-4.1494,-4.0751,-4.0489,-4.0489,-4.0489,-4.1001,-4.1555,-4.154,-4.1555,-4.1555,-4.1524,-4.1032,-4.0489,-4.0459,-4.0459,-4.0459,-4.0459,-3.9951,-3.9459,-3.9459,-3.8954,-3.8477,-3.8477,-3.8477,-3.8477,-3.8477,-3.8477,-3.8477,-3.8477,-3.7908,-3.723,-3.6569,-3.6492,-3.6492,-3.6492,-3.6352,-3.6211,-3.6211,-3.5911,-3.572,-3.572,-3.5572,-3.5504,-3.5504,-3.5504,-3.5504,-3.5504,-3.5504,-3.5504,-3.5504,-3.5504,-3.5504,-3.5504,-3.5537,-3.5537,-3.7584,-3.8831,-4.0524,-4.3217,-4.4572,-4.5664,-4.7234,-4.7773,-4.8065,-4.8527,-4.7542,-4.6603,-4.6603,-4.6803,-4.7111,-4.7558,-4.8789,-4.9682,-4.9682,-4.9281,-4.8481,-4.7096,-4.7527,-4.7665,-4.7004,-4.7542,-4.8127,-4.8573,-4.862,-4.862,-4.862,-4.862,-4.862,-4.862,-4.862,-4.862,-4.862,-4.8173,-4.7835,-4.7588,-4.6696,-4.6142,-4.5895,-4.5218,-4.4825,-4.461,-4.461,-4.461,-4.461,-4.461,-4.4486,-4.4194,-4.3279,-4.3063,-4.3177,-4.2263,-4.1786,-4.1555,-4.1324,-4.1232,-4.1232,-4.1232,-4.1709,-4.2263,-4.2263,-4.2263,-4.2171,-4.1724,-4.1432,-4.1124,-4.0612,-4.0166,-3.9936,-4.0382,-3.9982,-3.9613,-4.0059,-3.9628,-3.9136,-3.9136,-3.9136,-3.9136,-3.9136,-3.9069,-3.8629,-3.7659,-3.75,-3.7261,-3.6584,-3.6492,-3.646,-3.6305,-3.6242,-3.6164,-3.6053,-3.5958,-3.5831,-3.572,-3.5671,-3.5589,-3.5504,-3.5504,-3.5504,-3.5504,-3.5504,-3.5504,-3.5504,-3.5504,-3.5504,-3.5504,-3.5504,-3.5504,-3.9619,-4.1214,-4.3123,-4.5673,-4.6753,-4.745,-4.8399,-4.8543,-4.8393,-4.7983,-4.6665,-4.5511,-4.528,-4.5033,-4.5041,-4.5449,-4.6434,-4.7404,-4.8112,-4.8019,-4.7635,-4.7034,-4.7511,-4.765,-4.7019,-4.7357,-4.7881,-4.8558,-4.862,-4.862,-4.862,-4.862,-4.862,-4.862,-4.862,-4.862,-4.862,-4.7942,-4.7357,-4.6865,-4.5757,-4.5218,-4.5218,-4.4825,-4.461,-4.461,-4.461,-4.461,-4.461,-4.461,-4.4471,-4.4178,-4.3279,-4.291,-4.2786,-4.2186,-4.1801,-4.1632,-4.1878,-4.1801,-4.1632,-4.1878,-4.2402,-4.2956,-4.2956,-4.2956,-4.2817,-4.2155,-4.1786,-4.1432,-4.0674,-3.9982,-3.9598,-4.0028,-3.9797,-3.9598,-4.0043,-3.9982,-3.9844,-3.9844,-3.9844,-3.9844,-3.9844,-3.9692,-3.9188,-3.7971,-3.7722,-3.7345,-3.6443,-3.632,-3.6258,-3.6148,-3.6116,-3.6085,-3.6005,-3.5941,-3.5831,-3.572,-3.5671,-3.5604,-3.5504,-3.5504,-3.5504,-3.5504,-3.5504,-3.5504,-3.5504,-3.5504,-3.5504,-3.5504,-3.5504,-3.5504,-4.2083,-4.3531,-4.4949,-4.7093,-4.7998,-4.8384,-4.8543,-4.8401,-4.7893,-4.676,-4.5926,-4.5187,-4.4541,-4.3947,-4.3531,-4.3593,-4.314,-4.3494,-4.5464,-4.5226,-4.548,-4.7388,-4.7065,-4.6942,-4.7542,-4.7635,-4.7912,-4.8558,-4.862,-4.862,-4.862,-4.862,-4.862,-4.862,-4.862,-4.862,-4.862,-4.7912,-4.688,-4.5526,-4.4918,-4.461,-4.461,-4.461,-4.461,-4.461,-4.461,-4.4594,-4.4564,-4.4564,-4.4163,-4.3562,-4.3516,-4.2725,-4.1724,-4.234,-4.2171,-4.1755,-4.2417,-4.2232,-4.1801,-4.2448,-4.3094,-4.3655,-4.3655,-4.3655,-4.3516,-4.2833,-4.214,-4.1447,-4.072,-3.9997,-3.9493,-3.9521,-3.9505,-3.949,-3.9536,-4.0043,-4.0489,-4.0489,-4.0489,-4.0489,-4.0489,-4.0401,-4.0067,-3.9314,-3.8534,-3.7567,-3.6233,-3.6035,-3.6005,-3.6005,-3.5973,-3.5973,-3.5973,-3.5799,-3.5688,-3.5688,-3.5572,-3.5504,-3.5504,-3.5504,-3.5504,-3.5504,-3.5504,-3.5504,-3.5504,-3.5504,-3.5504,-3.5504,-3.5504,-3.5504,-4.3562,-4.5478,-4.7411,-4.7995,-4.8596,-4.8932,-4.8469,-4.7663,-4.6824,-4.6027,-4.4125,-4.2571,-4.2386,-4.2217,-4.2432,-4.3454,-4.4695,-4.6111,-4.7635,-4.7696,-4.7588,-4.7604,-4.7896,-4.7973,-4.7635,-4.8065,-4.8435,-4.8604,-4.862,-4.862,-4.862,-4.862,-4.862,-4.862,-4.862,-4.862,-4.862,-4.745,-4.6172,-4.4872,-4.4664,-4.461,-4.461,-4.461,-4.461,-4.461,-4.461,-4.4332,-4.3855,-4.3855,-4.3448,-4.2802,-4.2309,-4.2202,-4.2309,-4.1986,-4.2063,-4.2448,-4.3094,-4.3239,-4.3131,-4.33,-4.3809,-4.4363,-4.4363,-4.4363,-4.4225,-4.3547,-4.2494,-4.1555,-4.137,-4.0047,-3.9031,-3.9997,-3.9844,-3.9628,-4.0136,-4.0366,-4.0489,-4.0489,-4.0489,-4.047,-4.0366,-4.0401,-4.0121,-3.9192,-3.8895,-3.825,-3.6914,-3.6292,-3.5941,-3.5799,-3.5784,-3.5735,-3.5651,-3.5587,-3.5554,-3.5554,-3.5537,-3.5504,-3.5504,-3.5504,-3.5504,-3.5504,-3.5504,-3.5504,-3.5504,-3.5504,-3.5504,-3.5504,-3.5504,-3.5504,-4.5516,-4.7333,-4.8897,-4.8537,-4.876,-4.8772,-4.7418,-4.6323,-4.5216,-4.4071,-4.2386,-4.1124,-4.1124,-4.1124,-4.1478,-4.254,-4.3664,-4.508,-4.7004,-4.7281,-4.7481,-4.7989,-4.8389,-4.8466,-4.8081,-4.8389,-4.8496,-4.8189,-4.845,-4.862,-4.862,-4.862,-4.862,-4.862,-4.862,-4.8327,-4.7727,-4.668,-4.5634,-4.461,-4.461,-4.461,-4.461,-4.461,-4.461,-4.4594,-4.4302,-4.3963,-4.3578,-4.3264,-4.2756,-4.2125,-4.1755,-4.1632,-4.1648,-4.1278,-4.1571,-4.2263,-4.2925,-4.3362,-4.3655,-4.3947,-4.4302,-4.461,-4.461,-4.461,-4.4471,-4.3793,-4.3069,-4.2325,-4.174,-4.0739,-3.9985,-4.0382,-4.0197,-4.012,-4.0812,-4.1001,-4.1001,-4.1001,-4.0705,-4.047,-4.0401,-4.0331,-4.0139,-3.9638,-3.9076,-3.8484,-3.7842,-3.6857,-3.617,-3.6057,-3.5802,-3.5572,-3.5504,-3.5504,-3.5504,-3.5504,-3.5504,-3.5504,-3.5504,-3.5504,-3.5504,-3.5504,-3.5504,-3.5504,-3.5504,-3.5504,-3.5504,-3.5504,-3.5504,-3.5504,-4.7657,-4.8925,-4.9717,-4.8934,-4.8802,-4.8268,-4.6144,-4.4738,-4.3401,-4.1584,-4.077,-4.0336,-4.0243,-4.0366,-4.0812,-4.1832,-4.2001,-4.2925,-4.5603,-4.5988,-4.665,-4.8404,-4.862,-4.862,-4.862,-4.862,-4.8373,-4.7788,-4.8281,-4.8573,-4.8481,-4.8558,-4.8573,-4.8481,-4.8558,-4.7912,-4.648,-4.5972,-4.5341,-4.461,-4.461,-4.461,-4.461,-4.461,-4.461,-4.4579,-4.3901,-4.3562,-4.3424,-4.274,-4.2078,-4.1447,-4.1447,-4.1078,-4.0489,-4.0489,-4.0986,-4.1678,-4.2279,-4.2956,-4.3716,-4.4394,-4.461,-4.461,-4.461,-4.461,-4.4486,-4.3917,-4.3608,-4.3239,-4.214,-4.1724,-4.1463,-4.0905,-4.0766,-4.0935,-4.1601,-4.174,-4.1709,-4.1617,-4.1058,-4.0562,-4.047,-4.0207,-4.0066,-4.0242,-3.9289,-3.8632,-3.8787,-3.7481,-3.6492,-3.6492,-3.5893,-3.5504,-3.5504,-3.5504,-3.5504,-3.5504,-3.5504,-3.5504,-3.5504,-3.5504,-3.5504,-3.5504,-3.5504,-3.5504,-3.5504,-3.5504,-3.5504,-3.5504,-3.5504,-3.5504,-4.9367,-4.9862,-4.9876,-4.9717,-4.9084,-4.8031,-4.6266,-4.4098,-4.1794,-3.9498,-3.9385,-3.949,-3.897,-3.9736,-4.1309,-4.3679,-4.4101,-4.5003,-4.7711,-4.8081,-4.8219,-4.8573,-4.862,-4.862,-4.862,-4.862,-4.8558,-4.845,-4.8543,-4.8373,-4.7804,-4.8312,-4.8358,-4.7788,-4.8327,-4.7696,-4.5772,-4.6203,-4.5803,-4.461,-4.461,-4.461,-4.461,-4.461,-4.461,-4.4579,-4.3901,-4.33,-4.2725,-4.2048,-4.1355,-4.0674,-4.0674,-4.0597,-4.0489,-4.0489,-4.0986,-4.1617,-4.174,-4.2571,-4.3716,-4.4394,-4.461,-4.461,-4.461,-4.461,-4.4594,-4.4471,-4.3618,-4.2848,-4.3177,-4.2417,-4.1709,-4.214,-4.2248,-4.2279,-4.2402,-4.2432,-4.2263,-4.1709,-4.1372,-4.099,-4.0438,-4.0137,-3.9996,-4.0046,-3.9697,-3.948,-3.9516,-3.7766,-3.6492,-3.6492,-3.5893,-3.5504,-3.5504,-3.5504,-3.5504,-3.5504,-3.5504,-3.5504,-3.5504,-3.5504,-3.5504,-3.5504,-3.5504,-3.5504,-3.5504,-3.5504,-3.5504,-3.5504,-3.5504,-3.5504,-4.9464,-4.9848,-4.9797,-4.9356,-4.8395,-4.6998,-4.4716,-4.2136,-3.982,-3.8294,-3.7969,-3.8061,-3.8431,-3.9582,-4.092,-4.2248,-4.3079,-4.4372,-4.6711,-4.7034,-4.7434,-4.8496,-4.862,-4.862,-4.862,-4.862,-4.8466,-4.8112,-4.8419,-4.8481,-4.8142,-4.8435,-4.8296,-4.7635,-4.7573,-4.6927,-4.5603,-4.5557,-4.5218,-4.461,-4.461,-4.461,-4.461,-4.461,-4.461,-4.4579,-4.3901,-4.3202,-4.2556,-4.1878,-4.117,-4.0489,-4.0489,-4.0489,-4.0489,-4.0489,-4.0705,-4.114,-4.1878,-4.254,-4.3233,-4.4249,-4.461,-4.461,-4.461,-4.461,-4.461,-4.461,-4.4125,-4.3618,-4.3624,-4.3393,-4.314,-4.311,-4.3387,-4.3541,-4.3187,-4.311,-4.3017,-4.2679,-4.1991,-4.1336,-4.0878,-4.0365,-4.0011,-4.0011,-3.9747,-3.9589,-3.9696,-3.8412,-3.7479,-3.7479,-3.6596,-3.6013,-3.6013,-3.5699,-3.5504,-3.5504,-3.5504,-3.5504,-3.5504,-3.5504,-3.5504,-3.5504,-3.5504,-3.5504,-3.5504,-3.5504,-3.5504,-3.5504,-3.5504,-3.5504,-4.9212,-4.9642,-4.9717,-4.8934,-4.7762,-4.6092,-4.3345,-4.0581,-3.8328,-3.7293,-3.6876,-3.6984,-3.7908,-3.9185,-4.0151,-4.0443,-4.1412,-4.2971,-4.5264,-4.5588,-4.6342,-4.8373,-4.862,-4.862,-4.862,-4.862,-4.8389,-4.785,-4.8312,-4.862,-4.862,-4.862,-4.8235,-4.7419,-4.7004,-4.6342,-4.5387,-4.5026,-4.4764,-4.461,-4.461,-4.461,-4.461,-4.461,-4.461,-4.4579,-4.3901,-4.3202,-4.2556,-4.1878,-4.117,-4.0489,-4.0489,-4.0489,-4.0489,-4.0489,-4.0597,-4.0874,-4.2017,-4.2571,-4.2987,-4.4018,-4.4502,-4.461,-4.461,-4.461,-4.461,-4.461,-4.461,-4.4486,-4.3963,-4.4225,-4.4486,-4.3947,-4.4225,-4.4471,-4.3932,-4.3701,-4.3562,-4.3424,-4.2489,-4.1648,-4.1337,-4.0664,-4.0137,-4.0137,-3.973,-3.9445,-3.9625,-3.9052,-3.8601,-3.8601,-3.7449,-3.6626,-3.6492,-3.6013,-3.5654,-3.5519,-3.5504,-3.5504,-3.5504,-3.5504,-3.5504,-3.5504,-3.5504,-3.5504,-3.5504,-3.5504,-3.5504,-3.5504,-3.5504,-3.5504,-4.9277,-4.9774,-4.9797,-4.9356,-4.7839,-4.5885,-4.3635,-4.0959,-3.8339,-3.6153,-3.6599,-3.7261,-3.6769,-3.7784,-3.9059,-4.029,-4.0597,-4.1827,-4.5126,-4.5588,-4.6342,-4.8373,-4.862,-4.862,-4.862,-4.862,-4.8589,-4.8527,-4.8573,-4.862,-4.862,-4.862,-4.8019,-4.6726,-4.7219,-4.6603,-4.4733,-4.5218,-4.5187,-4.461,-4.461,-4.461,-4.461,-4.461,-4.461,-4.4579,-4.3901,-4.3202,-4.2556,-4.1878,-4.117,-4.0489,-4.0489,-4.0489,-4.0489,-4.0489,-4.0905,-4.1524,-4.1648,-4.2479,-4.3531,-4.3655,-4.4117,-4.461,-4.461,-4.461,-4.461,-4.461,-4.461,-4.461,-4.4533,-4.4564,-4.4594,-4.4533,-4.4579,-4.4594,-4.4533,-4.404,-4.3424,-4.2817,-4.2425,-4.2025,-4.1413,-4.0921,-4.0622,-4.0622,-3.9944,-3.9424,-3.9424,-3.9364,-3.9334,-3.9334,-3.8123,-3.7105,-3.6537,-3.6432,-3.6148,-3.5549,-3.5504,-3.5504,-3.5504,-3.5504,-3.5504,-3.5504,-3.5504,-3.5504,-3.5504,-3.5504,-3.5504,-3.5504,-3.5504,-3.5504,-4.8887,-4.9656,-4.9717,-4.9072,-4.7141,-4.4982,-4.322,-4.0068,-3.7218,-3.6292,-3.6199,-3.6322,-3.6461,-3.7261,-3.7938,-3.8077,-3.8431,-3.9462,-4.1632,-4.2294,-4.3602,-4.6449,-4.7157,-4.7711,-4.8543,-4.862,-4.862,-4.862,-4.862,-4.862,-4.862,-4.862,-4.8189,-4.7234,-4.7065,-4.6419,-4.5187,-4.5087,-4.4849,-4.461,-4.461,-4.461,-4.461,-4.461,-4.461,-4.461,-4.4332,-4.3571,-4.2586,-4.2309,-4.154,-4.0489,-4.0489,-4.0489,-4.0489,-4.0489,-4.0986,-4.1663,-4.2063,-4.2802,-4.367,-4.4086,-4.4394,-4.461,-4.461,-4.461,-4.461,-4.461,-4.461,-4.461,-4.461,-4.461,-4.461,-4.461,-4.461,-4.461,-4.461,-4.4409,-4.4132,-4.3848,-4.3411,-4.2846,-4.2025,-4.1313,-4.0701,-4.0185,-3.9682,-3.9388,-3.9388,-3.9388,-3.9388,-3.9388,-3.8571,-3.7898,-3.7644,-3.6926,-3.6372,-3.6118,-3.5729,-3.5504,-3.5504,-3.5504,-3.5504,-3.5504,-3.5504,-3.5504,-3.5504,-3.5504,-3.5504,-3.5504,-3.5504,-3.5504,-4.7929,-4.9084,-4.9494,-4.8522,-4.6438,-4.4216,-4.2674,-3.9447,-3.6738,-3.6538,-3.6107,-3.5922,-3.6399,-3.7215,-3.7584,-3.6892,-3.7353,-3.8354,-3.9908,-4.032,-4.1709,-4.491,-4.5711,-4.6542,-4.7881,-4.8373,-4.862,-4.862,-4.862,-4.862,-4.862,-4.862,-4.8204,-4.7342,-4.685,-4.6172,-4.5295,-4.4856,-4.461,-4.461,-4.461,-4.461,-4.461,-4.461,-4.461,-4.461,-4.4409,-4.3648,-4.2586,-4.2402,-4.1601,-4.0489,-4.0489,-4.0489,-4.052,-4.0735,-4.1294,-4.1986,-4.2663,-4.3325,-4.3978,-4.4471,-4.461,-4.461,-4.461,-4.461,-4.461,-4.461,-4.461,-4.461,-4.461,-4.461,-4.461,-4.461,-4.461,-4.461,-4.461,-4.4456,-4.4279,-4.4242,-4.3703,-4.3128,-4.2594,-4.1836,-4.1122,-4.0652,-4.0237,-3.9933,-3.9738,-3.9709,-3.9634,-3.9403,-3.899,-3.8616,-3.8407,-3.7569,-3.6896,-3.6507,-3.6058,-3.5714,-3.5519,-3.5504,-3.5504,-3.5504,-3.5504,-3.5504,-3.5504,-3.5504,-3.5609,-3.5789,-3.5594,-3.5714,-4.6249,-4.7951,-4.9023,-4.7895,-4.5881,-4.3764,-4.2016,-3.9477,-3.7292,-3.663,-3.6492,-3.6476,-3.6492,-3.7584,-3.8277,-3.76,-3.8061,-3.9216,-4.1294,-4.097,-4.154,-4.4264,-4.4641,-4.5126,-4.648,-4.7835,-4.862,-4.862,-4.862,-4.862,-4.862,-4.862,-4.8004,-4.665,-4.6603,-4.5957,-4.4641,-4.461,-4.461,-4.461,-4.461,-4.461,-4.461,-4.461,-4.461,-4.4579,-4.3917,-4.3217,-4.2556,-4.1878,-4.1186,-4.0489,-4.0489,-4.0489,-4.0582,-4.1324,-4.2017,-4.2694,-4.3377,-4.404,-4.461,-4.461,-4.461,-4.461,-4.461,-4.461,-4.461,-4.461,-4.461,-4.461,-4.461,-4.461,-4.461,-4.461,-4.461,-4.461,-4.461,-4.4086,-4.355,-4.3363,-4.2916,-4.2671,-4.294,-4.2424,-4.2137,-4.2598,-4.1941,-4.113,-4.0472,-4.0382,-4.0142,-3.9448,-3.9373,-3.9125,-3.8452,-3.8377,-3.7823,-3.6567,-3.6477,-3.6178,-3.5534,-3.5504,-3.5504,-3.5504,-3.5504,-3.5504,-3.5504,-3.5504,-3.5833,-3.6462,-3.5804,-3.6193,-4.3494,-4.4812,-4.5534,-4.4469,-4.3159,-4.1819,-4.0488,-3.8785,-3.7307,-3.663,-3.6492,-3.6492,-3.6492,-3.7215,-3.7754,-3.7538,-3.8061,-3.8739,-3.94,-4.0509,-4.1909,-4.3716,-4.5926,-4.7511,-4.7942,-4.8358,-4.862,-4.862,-4.862,-4.862,-4.862,-4.862,-4.8419,-4.7989,-4.7527,-4.708,-4.665,-4.5726,-4.5264,-4.5264,-4.4803,-4.461,-4.461,-4.461,-4.461,-4.461,-4.4394,-4.3633,-4.2586,-4.2371,-4.1586,-4.0489,-4.0489,-4.0489,-4.052,-4.0751,-4.1601,-4.2633,-4.2833,-4.3648,-4.461,-4.461,-4.461,-4.4533,-4.4071,-4.4255,-4.461,-4.461,-4.461,-4.461,-4.461,-4.461,-4.461,-4.461,-4.461,-4.461,-4.461,-4.4342,-4.4075,-4.3999,-4.377,-4.329,-4.2462,-4.2402,-4.2214,-4.1467,-4.137,-4.1145,-4.0487,-4.0397,-4.0142,-3.9448,-3.9388,-3.9334,-3.911,-3.8661,-3.8227,-3.7808,-3.736,-3.703,-3.6821,-3.6806,-3.6806,-3.6806,-3.6806,-3.6806,-3.6806,-3.6806,-3.6911,-3.7105,-3.6911,-3.7015,-4.137,-4.2674,-4.3376,-4.2458,-4.138,-4.0308,-3.936,-3.8092,-3.6999,-3.6584,-3.6492,-3.6492,-3.6492,-3.7246,-3.7877,-3.7877,-3.8446,-3.9077,-3.9601,-4.0786,-4.2186,-4.3809,-4.6265,-4.785,-4.785,-4.8312,-4.862,-4.862,-4.862,-4.862,-4.862,-4.862,-4.862,-4.862,-4.7958,-4.7357,-4.685,-4.6003,-4.5464,-4.5241,-4.4825,-4.461,-4.461,-4.461,-4.461,-4.461,-4.4348,-4.3602,0.0,-4.234,-4.1555,-4.0489,-4.0489,-4.0489,-4.052,-4.0797,-4.1648,-4.2648,-4.2879,-4.3679,-4.461,-4.461,-4.461,-4.4486,-4.3809,-4.3732,-4.3879,-4.4163,-4.424,-4.4286,-4.4548,-4.461,-4.461,-4.461,-4.461,-4.461,-4.461,-4.4496,-4.4358,-4.4205,-4.3929,-4.3464,-4.2644,-4.2575,-4.2431,-4.1768,-4.1925,-4.1878,-4.1235,-4.113,-4.0786,-3.9888,-3.9783,-3.9694,-3.9403,-3.9035,-3.8661,-3.8407,-3.8003,-3.7659,-3.7419,-3.7404,-3.7404,-3.7404,-3.7404,-3.7404,-3.7404,-3.7659,-3.7659,-3.7419,-3.7928,-3.8033,0.0,-4.1181,-4.2094,-4.1401,-4.0293,-3.9167,-3.8523,-3.743,0.0,-3.6507,-3.6492,-3.6492,-3.6492,-3.76,-3.8508,-3.8508,-3.9108,-4.0047,-4.134,-4.1694,-4.2525,-4.4533,-4.5911,-4.6696,-4.6603,-4.7819,-4.862,-4.862,-4.862,-4.862,-4.862,-4.862,-4.862,-4.862,-4.7958,-4.7004,-4.5741,-4.568,-4.5311,-4.4687,-4.4641,-4.461,-4.461,-4.461,-4.461,-4.4579,-4.3947,-4.3248,-4.2556,-4.1925,-4.1217,-4.0489,-4.0489,-4.052,-4.0643,-4.1294,-4.2017,-4.2756,-4.3347,-4.4009,-4.461,-4.461,-4.4579,-4.4425,-4.3793,-4.3187,-4.2863,-4.3454,-4.3639,-4.3824,-4.4456,-4.461,-4.461,-4.461,-4.461,-4.461,-4.461,-4.4572,-4.4458,-4.4065,-4.364,-4.3305,-4.3244,-4.2908,-4.279,-4.318,-4.326,-4.309,-4.2485,-4.2396,-4.1901,-4.0531,-4.0397,-4.0127,-3.9448,-3.9388,-3.914,-3.8497,-3.8467,-3.8182,-3.7584,-3.7554,-3.7554,-3.7554,-3.7554,-3.7554,-3.7554,-3.8167,-3.8153,-3.7584,-3.8805,-3.908,-3.7307,0.0,-3.8539,-3.7861,-3.7831,-3.78,0.0,-3.7123,-3.7123,-3.6599,-3.6492,-3.6492,-3.6492,-3.76,-3.8508,-3.8508,-3.9474,-4.0366,-4.0689,-4.2571,-4.4433,-4.5942,-4.7311,-4.7727,-4.6696,-4.7819,-4.862,-4.862,-4.862,-4.862,-4.862,-4.862,-4.862,-4.862,-4.7958,-4.745,-4.7127,-4.6619,-4.6018,-4.5341,-4.4872,-4.461,-4.461,-4.461,-4.461,-4.461,-4.444,-4.3679,-4.2602,-4.2432,-4.1648,-4.0489,-4.0489,-4.0828,-4.1294,-4.0924,-4.1863,-4.3294,-4.2956,-4.3602,-4.461,-4.461,-4.4255,-4.3809,-4.3655,-4.387,-4.4071,-4.3701,-4.3978,-4.4409,-4.4579,-4.461,-4.461,-4.461,-4.461,-4.461,-4.461,-4.4473,-4.4281,-4.4065,-4.3789,-4.3406,-4.2734,-4.2905,-4.3024,-4.268,-4.3015,-4.309,-4.2485,-4.2396,-4.1901,-4.0531,-4.0397,-4.0127,-3.9448,-3.9388,-3.9313,-3.9185,-3.917,-3.911,-3.896,-3.8945,-3.8945,-3.8945,-3.8945,-3.8945,-3.8945,-3.911,-3.9095,-3.896,-3.9239,-3.9334,-3.6492,-3.6753,-3.703,-3.6969,-3.6999,-3.703,-3.6969,-3.6999,-3.6938,-3.6569,-3.6492,-3.6584,-3.6892,-3.78,-3.8616,-3.8923,-3.9813,-4.072,-4.1351,-4.3002,-4.4764,-4.6388,-4.7234,-4.765,-4.7527,-4.8189,-4.862,-4.862,-4.862,-4.862,-4.862,-4.862,-4.862,-4.862,-4.8266,-4.7773,-4.7157,-4.648,-4.5788,-4.5126,-4.4756,-4.461,-4.461,-4.461,-4.461,-4.461,-4.461,-4.3833,-4.2602,-4.2602,-4.1786,-4.0489,-4.0489,-4.0935,-4.1555,-4.1155,-4.2109,-4.3562,-4.3171,-4.3725,-4.461,-4.461,-4.4363,-4.4009,-4.3701,-4.4071,-4.4471,-4.3793,-4.387,-4.4225,-4.4533,-4.461,-4.461,-4.461,-4.461,-4.461,-4.461,-4.4496,-4.4396,-4.4166,-4.3988,-4.3648,-4.3076,-4.3184,-4.317,-4.2865,-4.3105,-4.317,-4.2851,-4.2806,-4.2417,-4.1414,-4.1025,-4.0591,-3.9933,-3.9589,-3.9388,-3.9388,-3.9388,-3.9388,-3.9388,-3.9388,-3.9388,-3.9388,-3.9388,-3.9388,-3.9388,-3.9388,-3.9388,-3.9388,-3.9388,-3.9388,-3.6615,-3.6645,-3.6753,-3.723,-3.6923,-3.6645,-3.7215,-3.6907,-3.6492,-3.6492,-3.6569,-3.683,-3.74,-3.8138,-3.8893,-3.9521,-4.0382,-4.1509,-4.3002,-4.3694,-4.4702,-4.6388,-4.6773,-4.7281,-4.8204,-4.8496,-4.862,-4.862,-4.862,-4.862,-4.862,-4.862,-4.862,-4.862,-4.8419,-4.7758,-4.6603,-4.6034,-4.5341,-4.461,-4.461,-4.461,-4.461,-4.461,-4.461,-4.461,-4.461,-4.3879,-4.274,-4.2648,-4.1848,-4.0643,-4.0536,-4.0997,-4.174,-4.1632,-4.2494,-4.3762,-4.3762,-4.4132,-4.461,-4.461,-4.461,-4.4502,-4.3932,-4.4163,-4.4502,-4.3917,-4.3762,-4.3886,-4.4471,-4.461,-4.461,-4.461,-4.461,-4.461,-4.461,-4.4587,-4.4496,-4.432,-4.4089,-4.391,-4.3729,-4.3463,-4.329,-4.329,-4.329,-4.329,-4.329,-4.329,-4.3045,-4.2336,-4.1752,-4.107,-4.0307,-3.9738,-3.9388,-3.9388,-3.9388,-3.9388,-3.9388,-3.9388,-3.9388,-3.9388,-3.9388,-3.9388,-3.9388,-3.9388,-3.9388,-3.9388,-3.9388,-3.9388,-3.7184,-3.7353,-3.723,-3.6769,-3.6569,-3.6522,-3.6615,-3.6569,-3.6492,-3.6492,-3.6953,-3.7384,-3.7477,-3.8523,-3.9585,-4.0228,-4.1909,-4.3771,-4.5711,-4.6065,-4.6249,-4.6557,-4.7604,-4.7942,-4.7004,-4.7942,-4.862,-4.862,-4.862,-4.862,-4.862,-4.862,-4.862,-4.862,-4.7511,-4.6803,-4.6603,-4.6496,-4.5818,-4.461,-4.461,-4.461,-4.461,-4.461,-4.461,-4.461,-4.461,-4.4178,-4.3408,-4.2833,-4.2155,-4.137,-4.0735,-4.1289,-4.2386,-4.1817,-4.2802,-4.4471,-4.4471,-4.4533,-4.461,-4.461,-4.461,-4.4594,-4.4486,-4.4533,-4.4594,-4.4486,-4.4471,-4.4486,-4.4594,-4.461,-4.461,-4.461,-4.461,-4.461,-4.461,-4.4473,-4.4358,-4.432,-4.3988,-4.3729,-4.3729,-4.3463,-4.329,-4.329,-4.329,-4.329,-4.329,-4.329,-4.2865,-4.1669,-4.1482,-4.0891,-3.9679,-3.9448,-3.9388,-3.9388,-3.9388,-3.9388,-3.9388,-3.9388,-3.9388,-3.9388,-3.9388,-3.9388,-3.9388,-3.9388,-3.9388,-3.9388,-3.9388,-3.9388,-3.6876,-3.6953,-3.6969,-3.703,-3.7307,-3.7584,-3.7584,-3.7584,-3.7584,-3.7584,-3.7831,-3.8262,-3.9,-3.997,-4.1093,-4.2494,-4.351,-4.4471,-4.5372,-4.5511,-4.5772,-4.6511,-4.7142,-4.7573,-4.7681,-4.825,-4.862,-4.862,-4.862,-4.862,-4.862,-4.862,-4.845,-4.8081,-4.7465,-4.6788,-4.6065,-4.6049,-4.5557,-4.461,-4.461,-4.461,-4.461,-4.461,-4.461,-4.461,-4.461,-4.3987,-4.3033,-4.274,-4.1986,-4.0986,-4.0628,-4.1351,-4.2663,-4.3063,-4.3787,-4.461,-4.461,-4.461,-4.461,-4.461,-4.461,-4.461,-4.461,-4.461,-4.461,-4.461,-4.461,-4.461,-4.461,-4.461,-4.461,-4.461,-4.4511,-4.4473,-4.4587,-4.4358,-4.4166,-4.4281,-4.3988,-4.369,-4.369,-4.3463,-4.329,-4.329,-4.329,-4.329,-4.329,-4.329,-4.297,-4.2051,-4.1632,-4.0995,-4.0023,-3.9634,-3.9388,-3.9388,-3.9388,-3.9388,-3.9388,-3.9388,-3.9388,-3.9388,-3.9388,-3.9388,-3.9388,-3.9388,-3.9388,-3.9388,-3.9388,-3.9388,-3.6676,-3.6722,-3.6861,-3.7369,-3.7769,-3.8154,-3.8646,-3.8616,-3.86,-3.8908,-3.8985,-3.9259,-4.0305,-4.137,-4.2663,-4.4548,-4.508,-4.5341,-4.5495,-4.5526,-4.5911,-4.6942,-4.7065,-4.7481,-4.8512,-4.862,-4.862,-4.862,-4.862,-4.8543,-4.8389,-4.8373,-4.8065,-4.7388,-4.7219,-4.6634,-4.5603,-4.5434,-4.5095,-4.461,-4.461,-4.461,-4.461,-4.461,-4.4533,-4.4379,-4.4379,-4.3679,-4.2602,-4.2432,-4.174,-4.072,-4.0566,-4.1351,-4.2756,-4.391,-4.4486,-4.4594,-4.444,-4.4486,-4.461,-4.461,-4.461,-4.461,-4.461,-4.461,-4.461,-4.461,-4.461,-4.461,-4.461,-4.461,-4.461,-4.461,-4.4473,-4.4358,-4.4511,-4.4205,-4.3988,-4.4166,-4.391,-4.3636,-4.369,-4.3463,-4.329,-4.329,-4.329,-4.329,-4.329,-4.329,-4.309,-4.247,-4.1811,-4.1055,-4.0247,-3.9709,-3.9388,-3.9388,-3.9388,-3.9388,-3.9388,-3.9388,-3.9388,-3.9388,-3.9388,-3.9388,-3.9388,-3.9388,-3.9388,-3.9388,-3.9388,-3.9388,-3.7261,-3.743,-3.7446,-3.7492,-3.7061,-3.7138,-3.9016,-3.897,-3.8862,-4.009,-4.0351,-4.0382,-4.0474,-4.2109,-4.3917,-4.528,-4.6573,-4.7604,-4.8235,-4.8327,-4.8358,-4.845,-4.8466,-4.8512,-4.8604,-4.862,-4.862,-4.862,-4.862,-4.8343,-4.7711,-4.7681,-4.7357,-4.668,-4.6065,-4.5695,-4.5588,-4.4972,-4.4671,-4.461,-4.461,-4.461,-4.461,-4.461,-4.4271,-4.3685,-4.3685,-4.3248,-4.2556,-4.1925,-4.1617,-4.1447,-4.0751,-4.1351,-4.2694,-4.3424,-4.4071,-4.4533,-4.3901,-4.4086,-4.461,-4.461,-4.461,-4.461,-4.461,-4.461,-4.461,-4.461,-4.461,-4.461,-4.461,-4.461,-4.461,-4.461,-4.4473,-4.432,-4.432,-4.4026,-4.3754,-4.3988,-4.366,-4.3423,-4.3651,-4.3463,-4.329,-4.329,-4.329,-4.329,-4.329,-4.329,-4.309,-4.247,-4.1811,-4.0876,-3.9568,-3.9454,-3.9388,-3.9388,-3.9388,-3.9388,-3.9388,-3.9388,-3.9388,-3.9388,-3.9388,-3.9388,-3.9388,-3.9388,-3.9388,-3.9388,-3.9388,-3.9388,-3.6799,-3.6876,-3.7076,-3.7923,-3.7615,-3.7646,-3.9644,-4.0582,-4.1201,-4.1709,-4.2479,-4.3171,-4.3587,-4.4649,-4.5757,-4.668,-4.7635,-4.8327,-4.8573,-4.862,-4.862,-4.862,-4.862,-4.862,-4.862,-4.862,-4.862,-4.862,-4.8219,-4.7881,-4.7619,-4.7204,-4.6665,-4.5988,-4.5726,-4.5387,-4.4972,-4.4748,-4.461,-4.461,-4.461,-4.461,-4.461,-4.461,-4.424,-4.3608,-4.3608,-4.2992,-4.1971,-4.1694,-4.1601,-4.1663,-4.2202,-4.2494,-4.2694,-4.3362,-4.3762,-4.3947,-4.3701,-4.4055,-4.461,-4.461,-4.461,-4.461,-4.461,-4.461,-4.461,-4.461,-4.461,-4.461,-4.461,-4.461,-4.461,-4.461,-4.4358,-4.4127,-4.4281,-4.3856,-4.3503,-4.3754,-4.3542,-4.3329,-4.3423,-4.3384,-4.329,-4.329,-4.329,-4.329,-4.329,-4.329,-4.309,-4.247,-4.1452,-4.0397,-3.9499,-3.9388,-3.9388,-3.9388,-3.9388,-3.9388,-3.9388,-3.9388,-3.9388,-3.9388,-3.9388,-3.9388,-3.9388,-3.9388,-3.9388,-3.9388,-3.9388,-3.9388,-3.6492,-3.6492,-3.6769,-3.7908,-3.8169,-3.8723,-4.0986,-4.2063,-4.2786,-4.3417,-4.3925,-4.4502,-4.5141,-4.5649,-4.6249,-4.7142,-4.8035,-4.862,-4.862,-4.862,-4.862,-4.862,-4.862,-4.862,-4.862,-4.862,-4.862,-4.862,-4.7989,-4.7511,-4.7296,-4.665,-4.5972,-4.5334,-4.5264,-4.5049,-4.461,-4.461,-4.461,-4.461,-4.461,-4.461,-4.461,-4.4394,-4.3932,-4.3248,-4.3069,-4.2309,-4.1263,-4.1263,-4.1401,-4.1694,-4.2602,-4.2802,-4.2633,-4.2863,-4.3116,-4.3264,-4.3264,-4.3694,-4.4332,-4.4548,-4.461,-4.461,-4.461,-4.461,-4.461,-4.461,-4.461,-4.461,-4.461,-4.461,-4.4572,-4.4511,-4.4243,-4.4026,-4.4089,-4.3684,-4.3344,-4.3557,-4.3423,-4.329,-4.329,-4.329,-4.329,-4.329,-4.329,-4.329,-4.329,-4.329,-4.309,-4.247,-4.1587,-4.0666,-3.9798,-3.9723,-3.9649,-3.9388,-3.9388,-3.9388,-3.9388,-3.9388,-3.9388,-3.9388,-3.9388,-3.9388,-3.9388,-3.9388,-3.9388,-3.9388,-3.9388,-3.9493,-3.6492,-3.6492,-3.6661,-3.7353,-3.8523,-4.0232,-4.2992,-4.3079,-4.3171,-4.5172,-4.4548,-4.384,-4.4517,-4.4641,-4.5049,-4.6388,-4.7727,-4.862,-4.862,-4.862,-4.862,-4.862,-4.862,-4.862,-4.862,-4.862,-4.862,-4.8604,-4.7973,-4.7296,-4.6619,-4.5942,-4.528,-4.4641,-4.461,-4.461,-4.461,-4.461,-4.461,-4.461,-4.461,-4.461,-4.4579,-4.3917,-4.3217,-4.2556,-4.1894,-4.1186,-4.0489,-4.0505,-4.0955,-4.1601,-4.1617,-4.2017,-4.2525,-4.1848,-4.2032,-4.2602,-4.2602,-4.3033,-4.3732,-4.4394,-4.461,-4.461,-4.461,-4.461,-4.461,-4.461,-4.461,-4.461,-4.461,-4.461,-4.4534,-4.4358,-4.4127,-4.3949,-4.3729,-4.3503,-4.329,-4.329,-4.329,-4.329,-4.329,-4.329,-4.329,-4.329,-4.329,-4.329,-4.329,-4.329,-4.309,-4.247,-4.2396,-4.1871,-4.0516,-4.0412,-4.0127,-3.9448,-3.9403,-3.9388,-3.9388,-3.9388,-3.9388,-3.9388,-3.9388,-3.9388,-3.9388,-3.9388,-3.9388,-3.9403,-3.9403,-3.9783,-3.6492,-3.6492,-3.6892,-3.8508,-3.9216,-4.0355,-4.3593,-4.3417,-4.3171,-4.5172,-4.5264,-4.5341,-4.6496,-4.6711,-4.6834,-4.7234,-4.8035,-4.862,-4.862,-4.862,-4.862,-4.862,-4.862,-4.862,-4.862,-4.862,-4.8419,-4.7942,-4.7281,-4.6603,-4.5926,-4.5249,-4.4825,-4.4625,-4.461,-4.461,-4.461,-4.461,-4.461,-4.4572,-4.4132,-4.3917,-4.3901,-4.3701,-4.2992,-4.1894,-4.1694,-4.1186,-4.0536,-4.1078,-4.1401,-4.1648,-4.2125,-4.214,-4.1878,-4.1678,-4.2032,-4.2602,-4.2602,-4.334,-4.4348,-4.4548,-4.461,-4.461,-4.461,-4.461,-4.461,-4.461,-4.4511,-4.4435,-4.4572,-4.4396,-4.4205,-4.4281,-4.4026,-4.3754,-4.3729,-4.3503,-4.329,-4.329,-4.329,-4.329,-4.329,-4.329,-4.329,-4.329,-4.329,-4.329,-4.329,-4.329,-4.309,-4.247,-4.2396,-4.2051,-4.116,-4.1085,-4.101,-4.0816,-4.0801,-4.0382,-3.9454,-3.9388,-3.9388,-3.9388,-3.9388,-3.9649,-4.0113,-4.0113,-4.0352,-4.0801,-4.0801,-4.0905,-3.6492,-3.6492,-3.6984,-3.9016,-3.969,-4.0662,-4.3525,-4.4387,-4.5018,-4.6496,-4.6357,-4.6326,-4.7404,-4.7388,-4.7296,-4.7573,-4.8173,-4.862,-4.862,-4.862,-4.862,-4.862,-4.862,-4.862,-4.862,-4.862,-4.8327,-4.765,-4.6973,-4.6311,-4.5634,-4.4941,-4.461,-4.461,-4.461,-4.461,-4.461,-4.461,-4.461,-4.461,-4.4194,-4.3732,-4.3171,-4.2946,-4.234,-4.1601,-4.1601,-4.1186,-4.0551,-4.1309,-4.1601,-4.1617,-4.1724,-4.1709,-4.1601,-4.1601,-4.1863,-4.2279,-4.2802,-4.3547,-4.4255,-4.4533,-4.461,-4.461,-4.461,-4.461,-4.461,-4.461,-4.4473,-4.432,-4.4473,-4.4166,-4.3949,-4.4127,-4.3949,-4.369,-4.3557,-4.3423,-4.329,-4.329,-4.329,-4.329,-4.329,-4.329,-4.329,-4.329,-4.329,-4.329,-4.329,-4.329,-4.314,-4.2791,-4.2746,-4.2491,-4.1871,-4.1811,-4.1692,-4.1437,-4.1422,-4.1025,-4.0232,-4.0202,-4.0202,-4.0202,-4.0202,-4.0382,-4.0786,-4.0786,-4.0995,-4.1422,-4.1422,-4.1557,-3.6569,-3.663,-3.7169,-3.92,-4.0366,-4.1535,-4.3454,-4.5834,-4.7819,-4.825,-4.7511,-4.6973,-4.7588,-4.7188,-4.6988,-4.7588,-4.8204,-4.8589,-4.8527,-4.8527,-4.8527,-4.8527,-4.8527,-4.8543,-4.8604,-4.8558,-4.8235,-4.7573,-4.688,-4.6203,-4.5526,-4.4949,-4.461,-4.461,-4.461,-4.461,-4.461,-4.461,-4.4594,-4.4533,-4.4533,-4.3802,-4.2494,-4.194,-4.1617,-4.1509,-4.1509,-4.1124,-4.0551,-4.1309,-4.1601,-4.154,-4.092,-4.1109,-4.1694,-4.1694,-4.1724,-4.1955,-4.3193,-4.3639,-4.3793,-4.4409,-4.461,-4.461,-4.461,-4.461,-4.461,-4.461,-4.4435,-4.4281,-4.4281,-4.3988,-4.3729,-4.391,-4.3793,-4.3596,-4.3344,-4.329,-4.329,-4.329,-4.329,-4.329,-4.329,-4.329,-4.329,-4.329,-4.329,-4.329,-4.329,-4.329,-4.329,-4.329,-4.329,-4.309,-4.2545,-4.2485,-4.2231,-4.1594,-4.1549,-4.1549,-4.1549,-4.1444,-4.1422,-4.1422,-4.1422,-4.1452,-4.1512,-4.1512,-4.1542,-4.1549,-4.1549,-4.1878,-3.7138,-3.7677,-3.8569,-4.0632,-4.3248,-4.5418,-4.5849,-4.7219,-4.7989,-4.6542,-4.7281,-4.8219,-4.8373,-4.8281,-4.8235,-4.8373,-4.8527,-4.8435,-4.7896,-4.7819,-4.7819,-4.7819,-4.7819,-4.8035,-4.8558,-4.8127,-4.7542,-4.6865,-4.6188,-4.5511,-4.4872,-4.4702,-4.461,-4.461,-4.461,-4.461,-4.461,-4.461,-4.4348,-4.3824,-4.3824,-4.3094,-4.1832,-4.2217,-4.1786,-4.072,-4.072,-4.0643,-4.0551,-4.1309,-4.1601,-4.1632,-4.2017,-4.2263,-4.2386,-4.2386,-4.2709,-4.3223,-4.3501,-4.3947,-4.4425,-4.4564,-4.461,-4.461,-4.461,-4.461,-4.461,-4.461,-4.4358,-4.4104,-4.4243,-4.3856,-4.3463,-4.3714,-4.3557,-4.3384,-4.329,-4.329,-4.329,-4.329,-4.329,-4.329,-4.329,-4.329,-4.329,-4.329,-4.329,-4.329,-4.329,-4.329,-4.329,-4.329,-4.329,-4.3245,-4.3135,-4.3135,-4.3021,-4.2886,-4.2871,-4.2871,-4.2871,-4.1923,-4.1422,-4.1422,-4.1422,-4.1677,-4.2186,-4.2186,-4.2417,-4.2871,-4.2871,-4.2946,-3.6923,-3.7754,-3.9093,-4.1478,-4.4356,-4.6603,-4.6603,-4.765,-4.8312,-4.725,-4.7881,-4.862,-4.862,-4.8358,-4.8127,-4.8127,-4.785,-4.7527,-4.7173,-4.7127,-4.7234,-4.7573,-4.7604,-4.7742,-4.8096,-4.7819,-4.7188,-4.6188,-4.5788,-4.5295,-4.4656,-4.461,-4.461,-4.461,-4.461,-4.461,-4.461,-4.4302,-4.3963,-4.3608,-4.3248,-4.2586,-4.1601,-4.1601,-4.1181,-4.0505,-4.0858,-4.0812,-4.0551,-4.1309,-4.1601,-4.1632,-4.1986,-4.2325,-4.2648,-4.2956,-4.3316,-4.3655,-4.3978,-4.4317,-4.461,-4.461,-4.461,-4.461,-4.461,-4.461,-4.461,-4.461,-4.4396,-4.4143,-4.4166,-4.3832,-4.3503,-4.3518,-4.3384,-4.329,-4.329,-4.329,-4.329,-4.329,-4.329,-4.329,-4.329,-4.329,-4.329,-4.329,-4.329,-4.329,-4.329,-4.329,-4.329,-4.329,-4.329,-4.329,-4.329,-4.329,-4.329,-4.329,-4.329,-4.329,-4.329,-4.2671,-4.2312,-4.2312,-4.2312,-4.2476,-4.2821,-4.2821,-4.3,-4.329,-4.329,-4.329,-3.663,-3.7831,-3.9647,-4.2155,-4.4603,-4.6419,-4.6419,-4.7388,-4.8266,-4.8266,-4.8358,-4.8435,-4.8435,-4.7881,-4.7434,-4.7434,-4.6957,-4.6557,-4.6434,-4.6419,-4.6634,-4.7188,-4.725,-4.7296,-4.7419,-4.7327,-4.6788,-4.5664,-4.548,-4.5172,-4.4641,-4.461,-4.461,-4.461,-4.461,-4.4526,-4.444,-4.3886,-4.3485,-4.327,-4.2556,-4.2017,-4.1571,-4.0863,-4.0489,-4.052,-4.1155,-4.1078,-4.0551,-4.1309,-4.1663,-4.1786,-4.1894,-4.2355,-4.3017,-4.3578,-4.3778,-4.3855,-4.4425,-4.461,-4.461,-4.461,-4.461,-4.461,-4.461,-4.461,-4.461,-4.461,-4.4473,-4.4243,-4.4089,-4.391,-4.3675,-4.3423,-4.3384,-4.3384,-4.329,-4.329,-4.329,-4.329,-4.329,-4.329,-4.329,-4.329,-4.329,-4.329,-4.329,-4.329,-4.329,-4.329,-4.329,-4.329,-4.329,-4.329,-4.329,-4.329,-4.329,-4.329,-4.329,-4.329,-4.329,-4.329,-4.329,-4.329,-4.329,-4.329,-4.329,-4.329,-4.329,-4.329,-4.329,-4.329,-3.7215,-3.9231,-4.1555,-4.3063,-4.4625,-4.5726,-4.5726,-4.6311,-4.6865,-4.6865,-4.7327,-4.7742,-4.7742,-4.7188,-4.6726,-4.6726,-4.6665,-4.6388,-4.5803,-4.5726,-4.5757,-4.5849,-4.5849,-4.6095,-4.668,-4.6203,-4.5772,-4.5603,-4.5049,-4.4679,-4.461,-4.461,-4.461,-4.461,-4.461,-4.4332,-4.3747,-4.3655,-4.3039,-4.1848,-4.114,-4.1078,-4.1571,-4.0863,-4.0489,-4.0505,-4.0597,-4.0582,-4.0551,-4.1309,-4.194,-4.2525,-4.3131,-4.3762,-4.4326,-4.444,-4.4486,-4.4486,-4.4594,-4.461,-4.461,-4.461,-4.461,-4.461,-4.461,-4.461,-4.461,-4.461,-4.4473,-4.4281,-4.4281,-4.4089,-4.391,-4.369,-4.3651,-4.3596,-4.3344,-4.329,-4.329,-4.329,-4.329,-4.329,-4.329,-4.329,-4.329,-4.329,-4.329,-4.329,-4.329,-4.329,-4.329,-4.329,-4.329,-4.329,-4.329,-4.329,-4.329,-4.329,-4.329,-4.329,-4.329,-4.329,-4.329,-4.329,-4.329,-4.329,-4.329,-4.329,-4.329,-4.329,-4.329,-4.329,-3.8246,-3.9508,-4.094,-4.3085,-4.4348,-4.5126,-4.5495,-4.6111,-4.6603,-4.6603,-4.6542,-4.6588,-4.6973,-4.648,-4.6034,-4.6034,-4.5711,-4.5357,-4.5103,-4.5018,-4.5157,-4.5541,-4.5588,-4.5711,-4.6003,-4.5757,-4.5434,-4.5087,-4.4779,-4.461,-4.461,-4.461,-4.461,-4.461,-4.461,-4.4286,-4.3624,-4.3217,-4.234,-4.1001,-4.0643,-4.0659,-4.0986,-4.0643,-4.0489,-4.0489,-4.0489,-4.0489,-4.052,-4.0863,-4.1417,-4.2063,-4.2355,-4.3131,-4.4055,-4.4055,-4.4286,-4.461,-4.461,-4.461,-4.461,-4.461,-4.461,-4.461,-4.461,-4.461,-4.461,-4.461,-4.4549,-4.4435,-4.432,-4.4243,-4.4104,-4.3754,-4.369,-4.3636,-4.3384,-4.329,-4.329,-4.329,-4.329,-4.329,-4.329,-4.329,-4.329,-4.329,-4.329,-4.329,-4.329,-4.329,-4.329,-4.329,-4.329,-4.329,-4.329,-4.329,-4.329,-4.329,-4.329,-4.329,-4.329,-4.329,-4.329,-4.329,-4.329,-4.329,-4.329,-4.329,-4.329,-4.3305,-4.3678,-4.3648,-3.8554,-3.9139,-3.9831,-4.2202,-4.331,-4.4048,-4.4918,-4.5464,-4.588,-4.6049,-4.568,-4.548,-4.5988,-4.5664,-4.5341,-4.5341,-4.4949,-4.461,-4.461,-4.461,-4.481,-4.528,-4.5341,-4.5341,-4.5341,-4.5341,-4.5126,-4.4656,-4.461,-4.4548,-4.4363,-4.4363,-4.4286,-4.4079,-4.4079,-4.3756,-4.3116,-4.2417,-4.1555,-4.0489,-4.0489,-4.0489,-4.0489,-4.0489,-4.0489,-4.0489,-4.0489,-4.0489,-4.0489,-4.0489,-4.092,-4.1601,-4.1601,-4.2309,-4.3393,-4.3547,-4.3932,-4.4379,-4.4548,-4.461,-4.461,-4.461,-4.461,-4.461,-4.461,-4.461,-4.461,-4.461,-4.461,-4.4534,-4.4358,-4.4281,-4.4205,-4.3808,-4.369,-4.3636,-4.3384,-4.329,-4.329,-4.329,-4.329,-4.329,-4.329,-4.329,-4.329,-4.329,-4.329,-4.329,-4.329,-4.329,-4.329,-4.329,-4.329,-4.329,-4.329,-4.329,-4.329,-4.329,-4.329,-4.329,-4.329,-4.329,-4.329,-4.329,-4.329,-4.329,-4.329,-4.329,-4.329,-4.3305,-4.4003,-4.4007,-3.74,-3.8077,-3.8908,-4.0305,-4.1217,-4.2094,-4.3424,-4.3732,-4.3947,-4.4594,-4.4702,-4.4671,-4.4718,-4.4702,-4.4671,-4.4671,-4.4641,-4.461,-4.461,-4.461,-4.4625,-4.4671,-4.4671,-4.4671,-4.4671,-4.4671,-4.4656,-4.461,-4.461,-4.4332,-4.3701,-4.3655,-4.334,-4.2725,-4.2709,-4.2386,-4.1709,-4.1001,-4.0566,-4.0489,-4.0489,-4.0489,-4.0489,-4.0489,-4.0489,-4.0489,-4.0489,-4.0489,-4.0489,-4.0489,-4.092,-4.1601,-4.1601,-4.2032,-4.274,-4.3393,-4.3624,-4.3747,-4.4394,-4.461,-4.461,-4.461,-4.461,-4.461,-4.461,-4.461,-4.461,-4.461,-4.461,-4.4534,-4.4358,-4.4281,-4.4205,-4.3808,-4.369,-4.3636,-4.3384,-4.329,-4.329,-4.329,-4.329,-4.329,-4.329,-4.329,-4.329,-4.329,-4.329,-4.329,-4.329,-4.329,-4.329,-4.329,-4.329,-4.329,-4.329,-4.329,-4.329,-4.329,-4.329,-4.329,-4.329,-4.329,-4.329,-4.329,-4.329,-4.329,-4.329,-4.329,-4.329,-4.3305,-4.4003,-4.4302,-3.7323,-3.7677,-3.8185,-3.9505,-4.0366,-4.1155,-4.2094,-4.2633,-4.3033,-4.3264,-4.3648,-4.3978,-4.3978,-4.4317,-4.461,-4.461,-4.461,-4.461,-4.461,-4.461,-4.461,-4.461,-4.461,-4.461,-4.461,-4.4225,-4.3978,-4.3978,-4.3556,-4.3202,-4.2971,-4.2956,-4.2848,-4.2617,-4.2602,-4.2279,-4.1617,-4.0858,-4.0489,-4.0489,-4.0489,-4.0489,-4.0489,-4.0489,-4.0489,-4.0489,-4.0489,-4.0489,-4.0489,-4.0489,-4.0643,-4.0874,-4.0874,-4.134,-4.1986,-4.2217,-4.2848,-4.3639,-4.3886,-4.4255,-4.4548,-4.4117,-4.4255,-4.4533,-4.4101,-4.4271,-4.461,-4.461,-4.461,-4.4534,-4.4358,-4.4281,-4.4205,-4.3808,-4.3557,-4.3423,-4.3329,-4.329,-4.329,-4.329,-4.329,-4.329,-4.329,-4.329,-4.329,-4.329,-4.329,-4.329,-4.329,-4.329,-4.329,-4.329,-4.329,-4.329,-4.329,-4.329,-4.329,-4.329,-4.329,-4.329,-4.329,-4.329,-4.329,-4.329,-4.329,-4.3499,-4.3958,-4.3499,-4.3514,-4.3932,-4.4212,-4.4092,-3.703,-3.7153,-3.7492,-3.8846,-3.9339,-3.9816,-4.0986,-4.1586,-4.1986,-4.2217,-4.2786,-4.3248,-4.3248,-4.3618,-4.4064,-4.4548,-4.4425,-4.4271,-4.4271,-4.4271,-4.4117,-4.3633,-4.4009,-4.4101,-4.3618,-4.3371,-4.3248,-4.3248,-4.2848,-4.2509,-4.2279,-4.2263,-4.2155,-4.1909,-4.1909,-4.1694,-4.1247,-4.0735,-4.0489,-4.0489,-4.0489,-4.0489,-4.0489,-4.0489,-4.0489,-4.0489,-4.0489,-4.0489,-4.0489,-4.0489,-4.0489,-4.0489,-4.0489,-4.0782,-4.1263,-4.1509,-4.2155,-4.3008,-4.3454,-4.3762,-4.391,-4.3947,-4.4086,-4.424,-4.4009,-4.4255,-4.461,-4.461,-4.461,-4.4534,-4.4358,-4.4243,-4.4089,-4.3754,-4.3557,-4.3423,-4.3329,-4.329,-4.329,-4.329,-4.329,-4.329,-4.329,-4.329,-4.329,-4.329,-4.329,-4.329,-4.329,-4.329,-4.329,-4.329,-4.329,-4.329,-4.329,-4.329,-4.329,-4.329,-4.329,-4.329,-4.329,-4.329,-4.329,-4.329,-4.329,-4.3618,-4.4317,-4.3618,-4.3514,-4.3947,-4.4212,-4.4197,0.0,0.0,0.0,-3.8123,-3.7969,-3.8015,-3.9951,-4.0428,-4.0628,-4.1386,-4.2078,-4.2556,-4.2571,-4.2602,-4.3033,-4.431,-4.3994,-4.3547,-4.3547,-4.3531,-4.3039,-4.1724,-4.2709,-4.3023,-4.1724,-4.2171,-4.2556,-4.2586,-4.2556,-4.2263,-4.1601,-4.1571,-4.1247,-4.052,-4.0489,-4.0489,-4.0489,-4.0489,-4.0489,-4.0489,-4.0489,-4.0489,-4.0489,-4.0489,-4.0489,-4.0489,-4.0489,-4.0489,-4.0489,-4.0489,-4.0489,-4.0489,-4.0489,-4.0489,-4.0582,-4.1309,-4.1586,-4.1786,-4.3131,-4.314,-4.2848,-4.4141,-4.4148,-4.3762,-4.4394,-4.4594,-4.461,-4.461,-4.461,-4.4534,-4.4358,-4.4127,-4.3949,-4.3769,-4.369,-4.3596,-4.3384,-4.329,-4.329,-4.329,-4.329,-4.329,-4.329,-4.329,-4.329,-4.329,-4.329,-4.329,-4.329,-4.329,-4.329,-4.329,-4.329,-4.329,-4.329,-4.329,-4.329,-4.329,-4.329,-4.329,-4.329,-4.329,-4.329,-4.329,-4.329,-4.3604,-4.4287,-4.3604,-4.3305,-4.3334,-4.4003,-4.4631,-3.6492,0.0,0.0,0.0,0.0,0.0,-3.82,-3.8723,-3.9262,-3.9955,-4.0597,-4.1228,-4.1786,-4.2279,-4.2725,-4.3094,-4.2586,-4.214,-4.214,-4.1694,-4.1232,-4.0863,-4.114,-4.1432,-4.1586,-4.1294,-4.1309,-4.1848,-4.1401,-4.0981,-4.0797,-4.0782,-4.0689,-4.0505,-4.0489,-4.0489,-4.0489,-4.0489,-4.0489,-4.0489,-4.0489,-4.0489,-4.0489,-4.0489,-4.0489,-4.0489,-4.0489,-4.0489,-4.0489,-4.0489,-4.0489,-4.0489,-4.0489,-4.0489,-4.052,-4.072,-4.1155,-4.1724,-4.2571,-4.3063,-4.3393,-4.3762,-4.4086,-4.4286,-4.3978,-4.4225,-4.461,-4.461,-4.461,-4.4534,-4.4358,-4.405,-4.3769,-4.3729,-4.3557,-4.3384,-4.3329,-4.329,-4.329,-4.329,-4.329,-4.329,-4.329,-4.329,-4.329,-4.329,-4.329,-4.329,-4.329,-4.329,-4.329,-4.329,-4.329,-4.329,-4.329,-4.329,-4.329,-4.329,-4.329,-4.329,-4.329,-4.329,-4.329,-4.329,-4.329,-4.3379,-4.3559,-4.3379,-4.3544,-4.4032,-4.3708,-4.3663,0.0,0.0,0.0,-3.6846,0.0,0.0,-3.7446,-3.78,-3.82,-3.86,-3.9216,-3.9816,-4.0232,-4.0632,-4.0986,-4.1278,-4.0755,-4.0616,-4.1478,-4.1232,-4.072,-4.0136,-4.0582,-4.0801,-4.0355,-4.0151,-4.017,-4.0309,-4.0151,-4.0197,-4.0489,-4.0489,-4.0489,-4.0489,-4.0489,-4.0489,-4.0489,-4.0489,-4.0489,-4.0489,-4.0489,-4.0489,-4.0489,-4.0489,-4.0489,-4.0489,-4.0489,-4.0489,-4.0489,-4.0489,-4.0489,-4.0489,-4.0489,-4.0489,-4.0489,-4.0489,-4.0751,-4.1247,-4.194,-4.2432,-4.2869,-4.3424,-4.387,-4.4178,-4.4055,-4.4302,-4.461,-4.461,-4.461,-4.4534,-4.4358,-4.4143,-4.391,-4.3729,-4.3596,-4.3423,-4.3329,-4.329,-4.329,-4.329,-4.329,-4.329,-4.329,-4.329,-4.329,-4.329,-4.329,-4.329,-4.329,-4.329,-4.329,-4.329,-4.329,-4.329,-4.329,-4.329,-4.329,-4.329,-4.329,-4.329,-4.329,-4.329,-4.329,-4.329,-4.329,-4.329,-4.329,-4.329,-4.3484,-4.3858,-4.3469,-4.329,0.0,0.0,0.0,-3.7167,-3.6875,0.0,-3.7214,-3.7352,-3.7368,-3.7477,-3.7984,-3.8415,-3.8492,-3.8508,-3.8708,-3.9308,-3.8908,-3.9185,-4.1093,-4.1309,-4.0801,-3.9554,-4.0493,-4.0555,-3.8785,-3.917,-3.9259,-3.8769,-3.9259,-3.9828,-4.0351,-4.0459,-4.0428,-4.0274,-4.0413,-4.0428,-4.0274,-4.0428,-4.0459,-4.0382,-4.0459,-4.0489,-4.0489,-4.0489,-4.0489,-4.0489,-4.0489,-4.0489,-4.0489,-4.0489,-4.0489,-4.0489,-4.0489,-4.0489,-4.0489,-4.0489,-4.0489,-4.0597,-4.134,-4.1601,-4.1801,-4.31,-4.3501,-4.3624,-4.4302,-4.4502,-4.4517,-4.4594,-4.461,-4.4534,-4.4358,-4.4281,-4.4166,-4.3808,-4.369,-4.3596,-4.3344,-4.329,-4.329,-4.329,-4.329,-4.329,-4.329,-4.329,-4.329,-4.329,-4.329,-4.329,-4.329,-4.329,-4.329,-4.329,-4.329,-4.329,-4.329,-4.329,-4.329,-4.329,-4.329,-4.329,-4.329,-4.329,-4.329,-4.329,-4.329,-4.329,-4.329,-4.329,-4.329,-4.329,-4.329,-4.329,-3.6274,-3.6195,-3.6131,-3.6268,-3.6191,0.0,-3.6411,-3.6441,-3.6657,-3.7352,-3.76,-3.7861,-3.8415,-3.8508,-3.8554,-3.8677,-3.86,-3.8846,-3.9801,-3.9462,-3.9016,-3.8739,-3.8954,-3.917,-3.9308,-3.9413,-3.9659,-4.0074,-4.0213,-4.012,-3.9705,-4.0197,-3.9997,-3.8939,-3.992,-3.9967,-3.8908,-3.9951,-4.0213,-3.969,-4.0228,-4.0489,-4.0489,-4.0489,-4.0489,-4.0489,-4.0489,-4.0489,-4.0489,-4.0489,-4.0489,-4.0489,-4.0489,-4.0489,-4.0489,-4.0489,-4.0489,-4.0597,-4.134,-4.1601,-4.1724,-4.2525,-4.2802,-4.2925,-4.3608,-4.3809,-4.3917,-4.4471,-4.461,-4.4534,-4.4358,-4.4166,-4.3988,-4.3769,-4.3557,-4.3384,-4.329,-4.329,-4.329,-4.329,-4.329,-4.329,-4.329,-4.329,-4.329,-4.329,-4.329,-4.329,-4.329,-4.329,-4.329,-4.329,-4.329,-4.329,-4.329,-4.329,-4.329,-4.329,-4.329,-4.329,-4.329,-4.329,-4.329,-4.329,-4.329,-4.329,-4.329,-4.329,-4.329,-4.329,-4.329,-4.329,-3.6242,-3.6148,-3.6085,-3.6037,-3.6005,0.0,0.0,-3.6085,-3.6239,-3.6749,-3.6842,-3.6997,-3.7399,-3.7507,-3.7615,-3.7954,-3.8,-3.8246,-3.8923,-3.8723,-3.8631,-3.897,-3.9016,-3.9139,-3.9493,-3.9216,-3.9154,-3.9459,-3.92,-3.917,-3.9474,-3.949,-3.9182,-3.8539,-3.917,-3.92,-3.8523,-3.9185,-3.9321,-3.9031,-3.9659,-3.9982,-3.9997,-4.0336,-4.0489,-4.0489,-4.0489,-4.0489,-4.0489,-4.0489,-4.0489,-4.0489,-4.0489,-4.0489,-4.0489,-4.0489,-4.0489,-4.0551,-4.0905,-4.1294,-4.1663,-4.1986,-4.234,-4.2627,-4.2861,-4.3125,-4.3424,-4.3949,-4.4212,-4.4281,-4.4166,-4.3988,-4.3793,-4.3557,-4.3384,-4.329,-4.329,-4.329,-4.329,-4.329,-4.329,-4.329,-4.329,-4.329,-4.329,-4.329,-4.329,-4.329,-4.329,-4.329,-4.329,-4.329,-4.329,-4.329,-4.329,-4.329,-4.329,-4.329,-4.329,-4.329,-4.329,-4.329,-4.329,-4.329,-4.329,-4.329,-4.329,-4.329,-4.329,-4.329,-4.329,-4.329,-3.6499,-3.6374,-3.6219,-3.6107,-3.6016,-3.591,0.0,0.0,0.0,-3.6164,-3.6196,-3.6274,-3.646,-3.6492,-3.6676,-3.7215,-3.7307,-3.7507,-3.8046,-3.8123,-3.8477,-3.9367,-3.9367,-3.9351,-3.9474,-3.9031,-3.8646,-3.8523,-3.8123,-3.8262,-3.9059,-3.8739,-3.8385,-3.8123,-3.8369,-3.8385,-3.8123,-3.8385,-3.8446,-3.8323,-3.9,-3.94,-3.9539,-4.0043,-4.0366,-4.0489,-4.0489,-4.0489,-4.0489,-4.0489,-4.0489,-4.0489,-4.0489,-4.0489,-4.0489,-4.0489,-4.0489,-4.0505,-4.0455,-4.0839,-4.1331,-4.1295,-4.1832,-4.2471,-4.2432,-4.2802,-4.3259,-4.3584,-4.3831,-4.3988,-4.3949,-4.3832,-4.3636,-4.3384,-4.329,-4.329,-4.329,-4.329,-4.329,-4.329,-4.329,-4.329,-4.329,-4.329,-4.329,-4.329,-4.329,-4.329,-4.329,-4.329,-4.329,-4.329,-4.329,-4.329,-4.329,-4.329,-4.329,-4.329,-4.329,-4.329,-4.329,-4.329,-4.329,-4.329,-4.329,-4.329,-4.329,-4.329,-4.329,-4.329,-4.329,-4.329,-3.7431,-3.6992,-3.6472,-3.6439,-3.6004,-3.5587,-3.5703,0.0,-3.5816,-3.6148,0.0,-3.6274,-3.646,0.0,0.0,-3.6599,-3.6599,-3.663,-3.6707,-3.6722,-3.7415,-3.9293,-3.8985,-3.8862,-3.9428,-3.9447,-3.9154,-3.8554,-3.8985,-3.8831,-3.7784,-3.8231,-3.7954,-3.6753,-3.7877,-3.7938,-3.6738,-3.7908,-3.82,-3.7631,-3.8292,-3.8939,-3.949,-3.9567,-3.992,-4.0489,-4.0489,-4.0489,-4.0489,-4.0489,-4.0489,-4.0489,-4.0489,-4.0489,-4.0489,-4.0489,-4.0489,-4.0489,-4.0366,-4.0392,-4.0434,-4.0258,-4.1055,-4.218,-4.2735,-4.3373,-4.392,-4.3944,-4.3966,-4.3949,-4.3754,-4.3729,-4.3636,-4.3384,-4.329,-4.329,-4.329,-4.329,-4.329,-4.329,-4.329,-4.329,-4.329,-4.329,-4.329,-4.329,-4.329,-4.329,-4.329,-4.329,-4.329,-4.329,-4.329,-4.329,-4.329,-4.329,-4.329,-4.329,-4.329,-4.329,-4.329,-4.329,-4.329,-4.329,-4.329,-4.329,-4.329,-4.329,-4.329,-4.329,-4.329,-4.329,-3.7666,-3.756,-3.724,-3.6648,-3.6352,-3.6102,-3.5694,-3.5572,-3.5653,-3.5847,0.0,0.0,0.0,0.0,0.0,0.0,-3.6195,-3.6226,-3.6305,-3.6352,-3.6843,-3.8167,-3.8092,-3.8031,-3.8323,-3.8708,-3.8646,-3.7984,-3.8185,-3.8108,-3.7523,-3.74,-3.7076,-3.6507,-3.7046,-3.7076,-3.6492,-3.7061,-3.72,-3.6923,-3.76,-3.8077,-3.8354,-3.8754,-3.9308,-3.9905,-3.9905,-4.0136,-4.0489,-4.0489,-4.0489,-4.0489,-4.0489,-4.0489,-4.0489,-4.0489,-4.0455,-4.0366,-4.0312,-4.0242,-4.0101,-4.0031,-4.0561,-4.1306,-4.1704,-4.241,-4.3051,-4.2864,-4.2954,-4.3087,-4.3117,-4.3025,-4.2998,-4.324,-4.329,-4.329,-4.329,-4.329,-4.329,-4.329,-4.329,-4.329,-4.329,-4.329,-4.329,-4.329,-4.329,-4.329,-4.329,-4.329,-4.329,-4.329,-4.329,-4.329,-4.329,-4.329,-4.329,-4.329,-4.329,-4.329,-4.329,-4.329,-4.329,-4.329,-4.329,-4.329,-4.329,-4.329,-4.329,-4.329,-4.329,-4.329,-3.8012,-3.7892,-3.7669,-3.6918,-3.6547,-3.6207,-3.5642,-3.5639,-3.5779,-3.5701,-3.5838,0.0,0.0,0.0,-3.6005,0.0,0.0,-3.6037,-3.6148,-3.6179,-3.6519,-3.7383,-3.7507,-3.743,-3.723,-3.7831,-3.7954,-3.7277,-3.74,-3.7415,-3.723,-3.6753,-3.6492,-3.6492,-3.6492,-3.6492,-3.6492,-3.6492,-3.6492,-3.6492,-3.6984,-3.7323,-3.7523,-3.8,-3.86,-3.9247,-3.9247,-3.9598,-4.0213,-4.0213,-4.0286,-4.047,-4.047,-4.047,-4.047,-4.0489,-4.0436,-4.0331,-4.0242,-4.0066,-3.9864,-4.003,-4.0456,-4.0956,-4.1299,-4.1874,-4.2344,-4.2168,-4.213,-4.2179,-4.231,-4.2218,-4.2291,-4.291,-4.306,-4.312,-4.3245,-4.329,-4.329,-4.329,-4.329,-4.329,-4.329,-4.329,-4.329,-4.329,-4.329,-4.329,-4.329,-4.329,-4.329,-4.329,-4.329,-4.329,-4.329,-4.329,-4.329,-4.329,-4.329,-4.329,-4.329,-4.329,-4.329,-4.329,-4.329,-4.329,-4.329,-4.329,-4.329,-4.329,-4.329,-4.329,-3.8706,-3.8052,-3.7404,-3.7389,-3.6447,-3.5534,-3.5504,-3.5998,-3.6319,-3.5791,-3.6215,-3.6519,-3.6095,-3.6005,0.0,0.0,0.0,0.0,0.0,-3.6116,-3.6519,-3.7383,-3.7507,-3.7246,-3.6599,-3.7138,-3.7246,-3.6569,-3.7138,-3.7215,-3.6553,-3.6507,-3.6492,-3.6492,-3.6492,-3.6492,-3.6492,-3.6492,-3.6492,-3.6492,-3.6507,-3.6861,-3.7507,-3.7523,-3.7908,-3.8539,-3.8539,-3.8923,-3.9521,-3.9521,-3.9852,-4.0312,-4.0312,-4.0312,-4.0312,-4.0455,-4.0489,-4.0455,-4.0137,-3.9747,-3.9529,-4.0157,-4.0853,-4.1512,-4.2141,-4.2366,-4.2396,-4.2381,-4.1931,-4.1452,-4.1452,-4.1452,-4.1617,-4.2276,-4.2425,-4.2605,-4.3155,-4.329,-4.329,-4.329,-4.329,-4.329,-4.329,-4.329,-4.329,-4.329,-4.329,-4.329,-4.329,-4.329,-4.329,-4.329,-4.329,-4.329,-4.329,-4.329,-4.329,-4.329,-4.329,-4.329,-4.329,-4.329,-4.329,-4.329,-4.329,-4.329,-4.329,-4.329,-4.329,-4.329,-4.329,-4.329,-3.9187,-3.9058,-3.8792,-3.8202,-3.7522,-3.6805,-3.6286,-3.6327,-3.633,-3.5722,-3.6112,-3.6367,-3.5771,-3.5683,0.0,0.0,0.0,0.0,0.0,-3.6038,-3.6319,-3.6595,-3.6767,-3.6738,-3.6507,-3.7107,-3.7215,-3.6538,-3.7123,-3.7215,-3.6538,-3.6492,-3.6492,-3.6492,-3.6492,-3.6492,-3.6492,-3.6492,-3.6492,-3.6492,-3.6492,-3.6615,-3.683,-3.683,-3.72,-3.7861,-3.8323,-3.8893,-3.9521,-3.9967,-4.0255,-4.0436,-4.0436,-4.0436,-4.0436,-4.0366,-4.0366,-4.0296,-3.9945,-3.9696,-3.9619,-3.9715,-4.0187,-4.0771,-4.0995,-4.1407,-4.1662,-4.119,-4.0905,-4.0726,-4.0726,-4.0726,-4.0905,-4.1587,-4.2081,-4.247,-4.2641,-4.303,-4.329,-4.329,-4.329,-4.329,-4.329,-4.329,-4.329,-4.329,-4.329,-4.329,-4.329,-4.329,-4.329,-4.329,-4.329,-4.329,-4.329,-4.329,-4.329,-4.329,-4.329,-4.329,-4.329,-4.329,-4.329,-4.329,-4.329,-4.329,-4.329,-4.329,-4.329,-4.329,-4.329,-4.329,-3.9197,-3.9193,-3.9108,-3.8532,-3.8002,-3.7391,-3.666,-3.6656,-3.6567,-3.5684,-3.6028,-3.6297,-3.5624,-3.5504,0.0,0.0,0.0,0.0,0.0,-3.5958,-3.6148,-3.6196,-3.6383,-3.6492,-3.6492,-3.6892,-3.6969,-3.6522,-3.6892,-3.6953,-3.6507,-3.6722,-3.6846,-3.6846,-3.6846,-3.6846,-3.6846,-3.6615,-3.6492,-3.6492,-3.6492,-3.6492,-3.6492,-3.6492,-3.6738,-3.7169,-3.76,-3.8308,-3.92,-3.9598,-4.0025,-4.0436,-4.0436,-4.0436,-4.0436,-4.0401,-4.0331,-4.0242,-3.991,-3.9768,-3.9661,-3.9445,-4.0023,-4.0756,-4.0756,-4.1205,-4.1677,-4.122,-4.0935,-4.0696,-4.0457,-4.0397,-4.0561,-4.122,-4.1572,-4.1886,-4.2551,-4.2865,-4.3045,-4.3245,-4.329,-4.329,-4.329,-4.329,-4.329,-4.329,-4.329,-4.329,-4.329,-4.329,-4.329,-4.329,-4.329,-4.329,-4.329,-4.329,-4.329,-4.329,-4.329,-4.329,-4.329,-4.329,-4.3409,-4.3633,-4.3409,-4.3409,-4.3648,-4.3409,-4.329,-4.329,-4.329,-4.329]},{"header":{"parameterUnit":"m.s-1","parameterCategory":1,"la1":30.6,"la2":29.2853,"lo1":-89.7004,"lo2":-87.6739,"dy":0.0162,"dx":0.0183,"nx":112,"ny":82,"refTime":"2023-04-18T12:00:00:Z","depth":0,"parameterNumber":3,"parameterNumberName":"V-component_of_WINDS"},"data":[0.0,0.0,0.0,0.0,0.0,0.0,0.0,0.0,0.0,0.0,0.0,0.0,0.0,0.0,0.0,0.0,0.0,0.0,0.0,0.0,0.0,0.0,0.0,0.0,0.0,0.0,0.0,0.0,0.0,0.0,0.0,0.0,0.0,0.0,0.0,0.0,0.0,0.0,0.0,0.0,0.0,0.0,0.0,0.0,0.0,0.0,0.0,0.0,0.0,0.0,0.0,0.0,0.0,0.0,0.0,0.0,0.0,0.0,0.0,0.0,0.0,0.0,0.0,0.0,0.0,0.0,0.0,0.0,0.0,0.0,0.0,0.0,0.0,0.0,0.0,0.0,0.0,0.0,0.0,0.0,0.0,0.0,0.0,0.0,0.0,0.0,0.0,0.0,0.0,0.0,1.6634,1.7838,1.9708,2.0655,2.0052,1.9845,1.9216,1.7974,0.0,0.0,0.0,0.0,0.0,0.0,0.0,0.0,0.0,0.0,0.0,0.0,0.0,0.0,0.0,0.0,0.0,0.0,0.0,0.0,0.0,0.0,0.0,0.0,0.0,0.0,0.0,0.0,0.0,0.0,0.0,0.0,0.0,0.0,0.0,0.0,0.0,0.0,0.0,0.0,0.0,0.0,0.0,0.0,0.0,0.0,0.0,0.0,0.0,0.0,0.0,0.0,0.0,0.0,0.0,0.0,0.0,0.0,0.0,0.0,0.0,0.0,0.0,0.0,0.0,0.0,0.0,0.0,0.0,0.0,0.0,0.0,0.0,0.0,0.0,0.0,0.0,0.0,0.0,0.0,0.0,0.0,0.0,0.0,0.0,0.0,0.0,0.0,0.0,0.0,0.0,0.0,0.0,0.0,0.0,0.0,0.0,0.0,0.0,0.0,0.0,0.0,0.0,0.0,1.662,1.8621,2.0045,2.075,2.0353,1.9495,1.8764,1.8255,0.0,0.0,0.0,0.0,0.0,0.0,0.0,0.0,0.0,0.0,0.0,0.0,0.0,0.0,0.0,0.0,0.0,0.0,0.0,0.0,0.0,0.0,0.0,0.0,0.0,0.0,0.0,0.0,0.0,0.0,0.0,0.0,0.0,0.0,0.0,0.0,0.0,0.0,0.0,0.0,0.0,0.0,0.0,0.0,0.0,0.0,0.0,0.0,0.0,0.0,0.0,0.0,0.0,0.0,0.0,0.0,0.0,0.0,0.0,0.0,0.0,0.0,0.0,0.0,0.0,0.0,0.0,0.0,0.0,0.0,0.0,0.0,0.0,0.0,0.0,0.0,0.0,0.0,0.0,0.0,0.0,0.0,0.0,0.0,0.0,0.0,0.0,0.0,0.0,0.0,0.0,0.0,0.0,0.0,0.0,0.0,0.0,0.0,0.0,0.0,0.0,0.0,0.0,1.7458,1.8261,2.0048,2.118,2.1374,2.0474,1.9431,1.8676,1.8319,1.7612,0.0,0.0,0.0,0.0,0.0,0.0,0.0,0.0,0.0,0.0,0.0,0.0,0.0,0.0,0.0,0.0,0.0,0.0,0.0,0.0,0.0,0.0,0.0,0.0,0.0,0.0,0.0,0.0,0.0,0.0,0.0,0.0,0.0,0.0,0.0,0.0,0.0,0.0,0.0,0.0,0.0,0.0,0.0,0.0,0.0,0.0,0.0,0.0,0.0,0.0,0.0,0.0,0.0,0.0,0.0,0.0,0.0,0.0,0.0,0.0,0.0,0.0,0.0,0.0,0.0,0.0,0.0,0.0,0.0,0.0,0.0,0.0,0.0,0.0,0.0,0.0,0.0,0.0,0.0,0.0,0.0,0.0,0.0,0.0,0.0,0.0,0.0,0.0,0.0,0.0,0.0,0.0,0.0,0.0,0.0,0.0,0.0,0.0,0.0,0.0,0.0,0.0,1.9118,2.012,2.1385,2.2233,2.2186,2.0785,1.9554,1.8648,1.8081,1.7143,0.0,0.0,0.0,0.0,0.0,0.0,0.0,0.0,0.0,0.0,0.0,0.0,0.0,0.0,0.0,0.0,0.0,0.0,0.0,0.0,0.0,0.0,0.0,0.0,0.0,0.0,0.0,0.0,0.0,0.0,0.0,0.0,0.0,0.0,0.0,0.0,0.0,0.0,0.0,0.0,0.0,0.0,0.0,0.0,0.0,0.0,0.0,0.0,0.0,0.0,0.0,0.0,0.0,0.0,0.0,0.0,0.0,0.0,0.0,0.0,0.0,0.0,0.0,0.0,0.0,0.0,0.0,0.0,0.0,0.0,0.0,0.0,0.0,0.0,0.0,0.0,0.0,0.0,0.0,0.0,0.0,0.0,0.0,0.0,0.0,0.0,0.0,0.0,0.0,0.0,0.0,0.0,0.0,0.0,0.0,0.0,0.0,0.0,0.0,0.0,0.0,0.0,2.0038,2.1454,2.209,2.2841,2.2835,2.1552,2.0024,1.864,1.7459,1.6651,0.0,0.0,0.0,0.0,0.0,0.0,0.0,0.0,0.0,0.0,0.0,0.0,0.0,0.0,0.0,0.0,0.0,0.0,0.0,0.0,0.0,0.0,0.0,0.0,0.0,0.0,0.0,0.0,0.0,0.0,0.0,0.0,0.0,0.0,0.0,0.0,0.0,0.0,0.0,0.0,0.0,0.0,0.0,0.0,0.0,0.0,0.0,0.0,0.0,0.0,0.0,0.0,0.0,0.0,0.0,0.0,0.0,0.0,0.0,0.0,0.0,0.0,0.0,0.0,0.0,0.0,0.0,0.0,0.0,0.0,0.0,0.0,0.0,0.0,0.0,0.0,0.0,0.0,0.0,0.0,0.0,0.0,0.0,0.0,0.0,0.0,0.0,0.0,0.0,0.0,0.0,0.0,0.0,0.0,0.0,0.0,0.0,0.0,0.0,0.0,0.0,0.0,2.0652,2.1994,2.2795,2.3627,2.3409,2.1631,2.0261,1.9101,1.8121,0.0,0.0,0.0,0.0,0.0,0.0,0.0,0.0,0.0,0.0,0.0,0.0,0.0,0.0,0.0,0.0,0.0,0.0,0.0,0.0,0.0,0.0,0.0,0.0,0.0,0.0,0.0,0.0,0.0,0.0,0.0,0.0,0.0,0.0,0.0,0.0,0.0,0.0,0.0,0.0,0.0,0.0,0.0,0.0,0.0,0.0,0.0,0.0,0.0,0.0,0.0,0.0,0.0,0.0,0.0,0.0,0.0,0.0,0.0,0.0,0.0,0.0,0.0,0.0,0.0,0.0,0.0,0.0,0.0,0.0,0.0,0.0,0.0,0.0,0.0,0.0,0.0,0.0,0.0,0.0,0.0,0.0,0.0,0.0,0.0,0.0,0.0,0.0,0.0,0.0,0.0,0.0,0.0,0.0,0.0,0.0,0.0,0.0,0.0,0.0,0.0,0.0,1.9954,2.1342,2.263,2.3582,2.4333,2.4035,2.2169,2.0907,1.9704,1.8425,0.0,0.0,0.0,0.0,0.0,0.0,0.0,0.0,0.0,0.0,0.0,0.0,0.0,0.0,0.0,0.0,0.0,0.0,0.0,0.0,0.0,0.0,0.0,0.0,0.0,0.0,0.0,0.0,0.0,0.0,0.0,0.0,0.0,0.0,0.0,0.0,0.0,0.0,0.0,0.0,0.0,0.0,0.0,0.0,0.0,0.0,0.0,0.0,0.0,0.0,0.0,0.0,0.0,0.0,0.0,0.0,0.0,0.0,0.0,0.0,0.0,0.0,0.0,0.0,0.0,0.0,0.0,0.0,0.0,0.0,0.0,0.0,0.0,0.0,0.0,0.0,0.0,0.0,0.0,0.0,0.0,0.0,0.0,0.0,0.0,0.0,0.0,0.0,0.0,0.0,0.0,0.0,0.0,0.0,0.0,0.0,0.0,0.0,0.0,0.0,0.0,0.0,2.0556,2.2129,2.3541,2.4404,2.4914,2.4622,2.3212,2.2058,2.0438,0.0,0.0,0.0,0.0,0.0,0.0,0.0,0.0,0.0,0.0,0.0,0.0,0.0,0.0,0.0,0.0,0.0,0.0,0.0,0.0,0.0,0.0,0.0,0.0,0.0,0.0,0.0,0.0,0.0,0.0,0.0,0.0,0.0,0.0,0.0,0.0,0.0,0.0,0.0,0.0,0.0,0.0,0.0,0.0,0.0,0.0,0.0,0.0,0.0,0.0,0.0,0.0,0.0,0.0,0.0,0.0,0.0,0.0,0.0,0.0,0.0,0.0,0.0,0.0,0.0,0.0,0.0,0.0,0.0,0.0,0.0,0.0,0.0,0.0,0.0,0.0,0.0,0.0,0.0,0.0,0.0,0.0,0.0,0.0,0.0,0.0,0.0,0.0,0.0,0.0,0.0,0.0,0.0,0.0,0.0,0.0,0.0,0.0,0.0,0.0,0.0,0.0,0.0,2.0937,2.2183,2.3238,2.3928,2.4534,2.4421,2.3287,2.2287,2.1167,1.9833,0.0,0.0,0.0,0.0,0.0,0.0,0.0,0.0,0.0,0.0,0.0,0.0,0.0,0.0,0.0,0.0,0.0,0.0,0.0,0.0,0.0,0.0,0.0,0.0,0.0,0.0,0.0,0.0,0.0,0.0,0.0,0.0,0.0,0.0,0.0,0.0,0.0,0.0,0.0,0.0,0.0,0.0,0.0,0.0,0.0,0.0,0.0,0.0,0.0,0.0,0.0,0.0,0.0,0.0,0.0,0.0,0.0,0.0,0.0,0.0,0.0,0.0,0.0,0.0,0.0,0.0,0.0,0.0,0.0,0.0,0.0,0.0,0.0,0.0,0.0,0.0,0.0,0.0,0.0,0.0,0.0,0.0,0.0,0.0,0.0,0.0,0.0,0.0,0.0,0.0,0.0,0.0,0.0,0.0,0.0,0.0,0.0,0.0,0.0,0.0,0.0,0.0,2.1083,2.2042,2.2872,2.3607,2.4126,2.411,2.3371,2.2654,2.1827,2.085,0.0,0.0,0.0,0.0,0.0,0.0,0.0,0.0,0.0,0.0,0.0,0.0,0.0,0.0,0.0,0.0,0.0,0.0,0.0,0.0,0.0,0.0,0.0,0.0,0.0,0.0,0.0,0.0,0.0,0.0,0.0,0.0,0.0,0.0,0.0,0.0,0.0,0.0,0.0,0.0,0.0,0.0,0.0,0.0,0.0,0.0,0.0,0.0,0.0,0.0,0.0,0.0,0.0,0.0,0.0,0.0,0.0,0.0,0.0,0.0,0.0,0.0,0.0,0.0,0.0,0.0,0.0,0.0,0.0,0.0,0.0,0.0,0.0,0.0,0.0,0.0,0.0,0.0,0.0,0.0,0.0,0.0,0.0,0.0,0.0,0.0,0.0,0.0,0.0,0.0,0.0,0.0,0.0,0.0,0.0,0.0,0.0,0.0,0.0,0.0,0.0,0.0,2.1142,2.1874,2.2623,2.3457,2.3711,2.3798,2.3563,2.3145,2.2443,2.1391,0.0,0.0,0.0,0.0,0.0,0.0,0.0,0.0,0.0,0.0,0.0,0.0,0.0,0.0,0.0,0.0,0.0,0.0,0.0,0.0,0.0,0.0,0.0,0.0,0.0,0.0,0.0,0.0,0.0,0.0,0.0,0.0,0.0,0.0,0.0,0.0,0.0,0.0,0.0,0.0,0.0,0.0,0.0,0.0,0.0,0.0,0.0,0.0,0.0,0.0,0.0,0.0,0.0,0.0,0.0,0.0,0.0,0.0,0.0,0.0,2.1396,2.1934,0.0,0.0,0.0,0.0,0.0,0.0,0.0,0.0,0.0,0.0,0.0,0.0,0.0,0.0,0.0,0.0,0.0,0.0,0.0,0.0,0.0,0.0,0.0,0.0,0.0,0.0,0.0,0.0,0.0,0.0,0.0,0.0,0.0,0.0,0.0,0.0,0.0,0.0,0.0,0.0,2.168,2.2453,2.3173,2.3704,2.41,2.4193,2.3835,2.3701,2.3248,2.2266,2.2123,0.0,0.0,0.0,0.0,0.0,0.0,0.0,0.0,0.0,0.0,0.0,0.0,0.0,0.0,0.0,0.0,0.0,0.0,0.0,0.0,0.0,0.0,0.0,0.0,0.0,0.0,0.0,0.0,0.0,0.0,0.0,0.0,0.0,0.0,0.0,0.0,0.0,0.0,0.0,0.0,0.0,0.0,0.0,0.0,0.0,0.0,0.0,0.0,0.0,0.0,0.0,0.0,0.0,0.0,0.0,0.0,0.0,0.0,0.0,2.1133,2.1377,0.0,0.0,0.0,0.0,0.0,0.0,0.0,0.0,0.0,0.0,0.0,0.0,0.0,0.0,0.0,0.0,0.0,0.0,0.0,0.0,0.0,0.0,0.0,0.0,0.0,0.0,0.0,0.0,0.0,0.0,0.0,0.0,0.0,0.0,0.0,0.0,0.0,0.0,0.0,0.0,2.2109,2.2584,2.3018,2.34,2.3667,2.3836,2.387,2.3655,2.3371,2.2873,2.2625,0.0,0.0,0.0,0.0,0.0,0.0,0.0,0.0,0.0,0.0,0.0,0.0,0.0,0.0,0.0,0.0,0.0,0.0,0.0,0.0,0.0,0.0,0.0,0.0,0.0,0.0,0.0,0.0,0.0,0.0,0.0,0.0,0.0,0.0,0.0,0.0,0.0,0.0,0.0,0.0,0.0,0.0,0.0,0.0,0.0,0.0,0.0,0.0,0.0,0.0,0.0,0.0,0.0,2.2285,2.248,2.2227,2.2578,2.2549,2.2178,2.1486,2.1211,2.1278,2.0869,0.0,0.0,0.0,0.0,0.0,0.0,0.0,0.0,0.0,0.0,0.0,0.0,0.0,0.0,0.0,0.0,0.0,0.0,0.0,0.0,0.0,0.0,2.1414,2.1414,2.1787,2.21,2.21,0.0,0.0,0.0,0.0,0.0,0.0,0.0,0.0,0.0,0.0,0.0,2.2314,2.2572,2.2797,2.3149,2.3178,2.3406,2.3841,2.3561,2.3378,2.3329,2.2873,2.2449,0.0,0.0,0.0,0.0,0.0,0.0,0.0,0.0,0.0,0.0,0.0,0.0,0.0,0.0,0.0,0.0,0.0,0.0,0.0,0.0,0.0,0.0,0.0,0.0,0.0,0.0,0.0,0.0,0.0,0.0,0.0,0.0,2.1366,2.1366,0.0,0.0,0.0,0.0,0.0,0.0,0.0,0.0,0.0,0.0,0.0,0.0,0.0,2.1973,2.2344,2.2662,2.2847,2.2847,2.3018,2.3242,2.3545,2.3594,2.3594,2.3525,2.3418,0.0,2.1768,2.1328,0.0,0.0,0.0,0.0,0.0,0.0,0.0,0.0,0.0,0.0,0.0,0.0,0.0,0.0,0.0,0.0,0.0,0.0,0.0,0.0,0.0,0.0,2.2344,2.2344,2.2623,2.2925,2.2925,2.2402,2.1885,2.1885,2.1836,2.168,0.0,0.0,0.0,0.0,0.0,0.0,2.1953,2.2778,2.3391,2.345,2.358,2.3841,2.411,2.4102,2.4006,2.3815,2.335,2.307,2.3008,2.2625,0.0,0.0,0.0,0.0,0.0,0.0,0.0,0.0,0.0,0.0,0.0,0.0,0.0,0.0,0.0,0.0,0.0,0.0,0.0,0.0,0.0,0.0,0.0,0.0,0.0,0.0,0.0,0.0,0.0,2.1562,2.1514,2.122,2.1279,2.1153,0.0,0.0,0.0,0.0,0.0,0.0,0.0,0.0,0.0,2.1943,2.2607,2.3047,2.3232,2.3887,2.4219,2.4228,2.4736,2.4941,2.4893,2.5779,2.602,2.5859,2.6447,2.6217,2.5291,2.3442,2.2524,2.2332,0.0,0.0,0.0,0.0,2.2808,2.3302,2.3302,2.3535,2.3875,2.4045,0.0,0.0,0.0,0.0,0.0,0.0,0.0,2.3499,2.4064,2.4106,2.4085,2.4388,2.4555,2.4575,2.4325,2.4169,2.3783,2.2748,2.2402,2.2178,2.1982,2.1758,0.0,0.0,0.0,2.2324,2.2559,2.2997,2.3276,2.3276,2.3363,2.3537,2.3764,2.3894,2.3762,2.332,2.3216,2.2956,2.2439,2.2211,2.2325,0.0,0.0,0.0,0.0,0.0,0.0,0.0,0.0,0.0,0.0,0.0,0.0,0.0,0.0,0.0,0.0,0.0,0.0,0.0,0.0,0.0,0.0,0.0,0.0,0.0,0.0,0.0,0.0,2.1543,2.168,2.1093,2.1845,2.2097,0.0,0.0,0.0,0.0,0.0,0.0,2.2666,2.3909,2.4429,2.4003,2.4451,2.4774,2.4848,2.5759,2.6137,2.599,2.711,2.741,2.7087,2.8237,2.8585,2.8343,2.9143,2.9121,2.8382,2.5797,2.4513,2.4142,2.4263,2.4561,2.4875,2.4513,2.473,2.5209,2.5209,2.5279,2.5318,2.5413,2.5585,2.5658,2.5252,0.0,0.0,0.0,0.0,2.5004,2.5768,2.565,2.5434,2.5837,2.5872,2.5732,2.5423,2.5579,2.5411,2.4059,2.3388,2.2968,2.2849,2.2414,0.0,2.2324,2.2441,2.2627,2.2896,2.3033,2.3091,2.3091,2.3091,2.3188,2.3503,2.3634,2.3516,2.3061,2.3207,2.2969,2.2278,2.2183,2.2325,2.2666,0.0,0.0,0.0,0.0,0.0,0.0,0.0,0.0,0.0,0.0,0.0,0.0,0.0,0.0,0.0,0.0,0.0,0.0,0.0,0.0,0.0,0.0,0.0,0.0,0.0,0.0,0.0,0.0,0.0,2.0742,2.2453,0.0,0.0,0.0,0.0,2.5736,2.5406,2.5601,2.6556,2.6697,2.715,2.8076,2.7537,2.7409,2.7769,2.8709,2.8937,2.8423,3.0102,3.0777,3.0645,3.0717,3.0766,3.0745,3.0794,3.0307,2.9426,2.7987,2.7095,2.6568,2.6157,2.5981,2.6044,2.597,2.6487,2.7174,2.7174,2.7315,2.761,2.8139,2.7747,2.7098,2.7075,2.6427,0.0,0.0,2.5753,2.5764,2.5819,2.5808,2.5797,2.5819,2.5777,2.5777,2.5786,2.5808,2.5777,2.5694,2.4978,2.4237,2.3804,0.0,2.2353,2.1973,2.2256,2.2519,2.2539,2.2847,2.3091,2.3091,2.3091,2.3188,2.3503,2.3503,2.357,2.3737,2.36,2.3472,2.3421,2.3217,2.3132,2.3153,2.3153,0.0,0.0,0.0,0.0,0.0,0.0,0.0,0.0,0.0,0.0,0.0,0.0,0.0,0.0,0.0,0.0,0.0,0.0,0.0,0.0,0.0,0.0,0.0,0.0,0.0,0.0,0.0,0.0,2.4563,2.5883,0.0,2.5737,2.6185,2.6583,2.6617,2.7561,2.8064,2.7844,2.8925,2.9589,2.9678,2.9976,3.0417,3.0903,3.1478,3.1715,3.1564,3.2154,3.2449,3.2375,3.2745,3.2892,3.2932,3.3273,3.3045,3.2405,3.1903,3.0454,2.8555,2.863,2.8895,2.9117,2.8397,2.8792,2.9587,2.9201,2.9141,2.928,2.946,2.8848,2.8177,2.8852,2.8598,2.804,2.804,2.804,2.804,2.804,2.7795,2.7621,2.7958,2.7784,2.7539,2.7539,2.7539,2.7539,2.7539,2.6329,2.5273,2.5101,2.4829,2.4567,2.4451,2.4514,2.4619,2.4619,2.4756,2.4861,2.4861,2.4317,2.4079,2.4337,2.3917,2.3556,2.3193,2.3258,2.3042,2.2445,2.2348,2.2439,2.2739,2.2449,2.2366,0.0,0.0,0.0,0.0,0.0,0.0,0.0,0.0,0.0,0.0,0.0,0.0,0.0,0.0,0.0,0.0,0.0,0.0,0.0,0.0,0.0,0.0,0.0,0.0,0.0,2.5591,2.6508,2.7347,2.8847,2.9522,2.8733,2.9226,2.9554,2.9565,3.0531,3.1064,3.0835,3.1936,3.2491,3.2438,3.2634,3.2922,3.3257,3.3738,3.3894,3.3749,3.4287,3.4354,3.4014,3.4363,3.4435,3.4298,3.4625,3.4583,3.4258,3.4258,3.2982,3.1035,3.1141,3.1276,3.1336,3.0639,3.0699,3.1103,3.0585,3.035,3.0326,3.0146,2.9617,2.9172,2.9869,2.9845,2.9532,2.9352,2.9424,2.9532,2.9352,2.9172,2.9088,2.9256,2.9027,2.8727,2.8546,2.851,2.851,2.851,2.7296,2.6287,2.6287,2.5997,2.5777,2.5777,2.5777,2.5777,2.5777,2.5777,2.5777,2.5777,2.5284,2.4999,2.5126,2.4787,2.4294,2.3667,2.3706,2.3297,2.2335,2.2296,2.2346,2.2501,2.219,2.219,2.2501,0.0,0.0,0.0,0.0,0.0,0.0,0.0,0.0,0.0,0.0,0.0,0.0,0.0,0.0,0.0,0.0,0.0,0.0,0.0,0.0,0.0,0.0,0.0,2.5481,2.759,2.8975,2.8723,3.1071,3.2593,3.2227,3.2936,3.3789,3.4727,3.4342,3.451,3.5581,3.5641,3.5881,3.6411,3.5413,3.4895,3.4907,3.5403,3.5391,3.4918,3.6486,3.6675,3.5665,3.5653,3.5352,3.4799,3.4787,3.4775,3.4775,3.4775,3.4474,3.397,3.3513,3.2996,3.2527,3.2515,3.2142,3.1633,3.1127,3.0946,3.0862,3.0302,3.0122,3.0122,3.0134,3.0122,3.0013,2.9496,2.9713,2.9989,2.946,2.9701,2.9953,2.9424,2.9304,2.916,2.8619,2.851,2.851,2.851,2.7805,2.7226,2.7226,2.6505,2.5861,2.5861,2.5861,0.0,2.5861,2.5861,2.5861,2.5861,2.5861,2.5872,2.5872,2.5994,2.5856,2.5323,2.4984,2.436,2.3365,2.3242,2.3005,2.2519,2.249,2.2501,2.2522,0.0,0.0,0.0,0.0,0.0,0.0,0.0,0.0,0.0,0.0,0.0,0.0,0.0,0.0,0.0,0.0,0.0,0.0,0.0,0.0,0.0,2.8237,2.9141,2.935,3.0429,3.1702,3.2924,3.443,3.5184,3.4661,3.5168,3.5509,3.54,3.5617,3.5881,3.617,3.6194,3.6435,3.6952,3.6705,3.6728,3.7108,3.7251,3.7251,3.7108,3.758,3.7409,3.6747,3.6362,3.5905,3.5376,3.4943,3.4775,3.4775,3.4775,3.4691,3.451,3.3994,3.3525,3.3032,3.2647,3.2142,3.1681,3.1536,3.1488,3.1464,3.132,3.1019,3.0735,3.1151,3.1007,3.0627,3.0482,3.0585,3.0585,3.0013,2.9977,2.9953,2.9424,2.9304,2.916,2.8619,2.851,2.851,2.851,2.8299,2.8139,2.8139,2.7926,2.7753,2.7753,2.7753,2.7753,2.7753,2.7753,2.7753,2.7753,2.7174,2.6887,2.701,2.614,2.5444,2.5115,2.4765,2.4323,2.3746,2.381,2.3522,2.287,2.2636,2.2656,0.0,0.0,0.0,0.0,0.0,0.0,0.0,0.0,0.0,0.0,0.0,0.0,0.0,0.0,0.0,0.0,0.0,0.0,0.0,0.0,0.0,0.0,3.0676,3.193,3.2769,3.3458,3.4382,3.5663,3.6555,3.694,3.6639,3.6892,3.694,3.6627,3.6892,3.7072,3.7072,3.7072,3.7204,3.7517,3.7529,3.7673,3.7986,3.7986,3.7986,3.7986,3.7986,3.7709,3.718,3.6651,3.611,3.5581,3.5003,3.4775,3.4775,3.4775,3.4775,3.4751,0.0,0.0,0.0,0.0,3.2142,3.1705,3.1705,3.1705,3.1669,3.1452,3.132,3.1259,3.1356,3.132,3.1199,3.0983,3.1079,3.1127,3.0555,3.0422,3.029,2.9749,2.946,2.916,2.8619,2.851,2.851,2.851,2.851,0.0,2.851,2.851,2.851,2.851,2.851,2.851,2.851,2.851,2.851,2.851,2.8059,2.7805,2.7926,2.7114,0.0,0.0,0.0,2.49,2.4317,2.4368,0.0,0.0,0.0,2.3694,2.4577,2.4104,0.0,0.0,2.4575,2.4497,0.0,0.0,0.0,0.0,0.0,0.0,0.0,0.0,0.0,0.0,0.0,0.0,0.0,0.0,0.0,0.0,3.2815,3.415,3.5593,3.6302,3.6807,3.7156,3.7661,3.7986,3.7986,3.7986,3.7986,3.7986,3.7986,3.7986,3.7986,3.7986,0.0,0.0,0.0,3.7986,3.7986,3.7986,3.7986,3.7986,3.7986,3.7709,3.718,3.6651,3.611,3.5581,3.5003,3.4775,3.4775,3.4775,3.4775,3.4763,3.4703,3.4318,3.3778,3.2791,3.2094,3.1705,3.1705,0.0,0.0,3.1163,3.1332,3.1621,3.1151,3.1296,3.1536,3.1127,3.1308,3.1524,3.1115,3.1007,3.0862,3.023,2.9737,2.9232,2.8643,2.851,2.851,2.851,2.851,2.851,2.851,2.851,2.851,2.851,2.851,2.851,2.851,2.851,2.851,2.851,2.851,0.0,2.851,2.8368,2.8047,2.7606,2.6688,2.5838,2.502,2.4955,2.5171,2.5658,2.4921,2.52,2.6495,2.488,2.4713,2.5788,2.4903,2.4497,0.0,0.0,0.0,0.0,0.0,0.0,0.0,0.0,0.0,0.0,0.0,0.0,0.0,0.0,0.0,3.219,3.4282,3.6062,3.6783,3.7733,3.8058,3.7288,3.7661,3.7986,3.7986,3.7986,3.7986,3.7986,3.7986,3.7986,3.7986,3.7986,3.7986,3.7986,3.7986,3.7986,3.7986,3.7986,3.7986,3.7986,3.7986,0.0,3.718,3.6651,3.611,3.5581,3.5003,3.4775,3.4775,3.4775,3.4775,3.4691,3.3909,3.3525,3.3308,3.2271,3.1801,3.1705,3.1705,3.1705,3.1693,3.1585,3.1621,3.1693,3.1585,3.1332,0.0,3.1464,3.132,3.1151,3.1476,3.156,3.1308,3.0314,3.0013,2.9677,2.8715,2.851,2.851,2.851,2.851,2.851,2.851,2.851,2.851,2.851,2.851,2.851,2.851,2.851,2.851,2.851,2.851,2.851,2.851,2.8239,2.8003,2.7893,2.7238,2.663,2.6198,2.5973,2.5885,2.6017,2.6035,2.6194,2.6495,2.579,2.5576,2.5788,2.4903,2.4497,0.0,0.0,0.0,0.0,0.0,0.0,0.0,0.0,0.0,0.0,0.0,2.9941,3.0747,0.0,3.3513,3.4318,3.623,3.7601,3.7589,3.8298,3.8611,3.807,3.8467,3.8575,3.8034,3.8238,3.8286,3.7998,3.7986,3.7986,3.7986,3.7986,3.7986,3.7986,3.7986,3.7986,3.7986,3.7986,3.7986,3.7986,3.7986,3.7841,3.7565,3.7036,3.6507,3.5978,3.5449,3.5076,3.4775,3.4775,3.4775,3.4703,3.397,3.3513,3.3224,3.2683,3.2175,3.1705,3.1705,3.1705,3.1669,3.1404,3.1488,3.1609,3.1079,3.1103,3.1259,3.0995,3.1103,3.1308,3.1308,3.1115,3.0735,3.0218,2.9689,2.916,2.8619,2.851,2.851,2.851,2.851,2.851,2.851,2.851,2.851,2.851,2.851,2.851,2.851,2.851,2.851,2.851,2.851,2.851,2.851,2.8278,2.8095,2.7901,2.7667,2.7498,2.7293,2.7172,2.7225,2.7496,2.72,2.7399,2.8168,2.7024,2.6689,2.7139,2.5799,2.4903,0.0,0.0,0.0,0.0,0.0,0.0,0.0,2.8615,2.8979,3.0134,3.0711,3.1444,3.2839,3.4294,3.5569,3.6423,3.7829,3.8659,3.8214,3.8539,3.8815,3.8815,3.9104,3.8948,3.807,3.8395,3.8467,3.801,3.7986,3.7986,3.7986,3.7986,3.7986,3.7986,3.7986,3.7986,3.7986,3.7986,3.7986,3.7986,3.7986,3.7986,3.7962,3.7324,3.6807,3.6374,3.5737,3.522,3.4775,3.4775,3.4715,3.4583,3.4162,3.3729,3.3272,3.3176,3.2587,3.1849,3.1753,3.1705,3.1633,3.1211,3.1356,3.1548,3.0651,3.0958,3.1404,3.0603,3.097,3.1476,3.1151,3.0711,3.0362,3.0266,2.9508,2.8787,2.8691,2.8582,2.851,2.851,2.851,2.851,2.851,2.851,2.851,2.851,2.851,2.851,2.851,2.851,2.851,2.851,2.851,2.855,2.863,2.8531,2.836,2.8027,2.8162,2.8222,2.8109,2.821,2.8473,2.8888,2.8317,2.8586,2.9792,2.8183,2.7758,2.8462,2.6812,2.5589,2.8102,2.781,2.7942,2.833,2.8775,2.9629,0.0,3.1961,3.2394,3.3897,3.421,3.445,3.5148,3.6182,3.6964,3.7084,3.807,3.8791,3.8731,3.8779,3.8815,3.8815,3.8431,3.8118,3.7998,3.8034,3.8046,3.7986,3.7986,3.7986,3.7986,3.7986,3.7986,3.7986,3.7986,3.7986,3.7986,3.7986,3.7986,3.7986,3.7986,3.7986,3.795,3.6952,3.6459,3.635,3.5352,3.4835,3.4775,3.4775,3.4498,3.4066,3.4018,3.3729,3.3236,3.2767,3.2515,3.2334,3.1886,3.1705,3.1705,3.1633,3.1657,3.1681,3.1573,3.1284,3.1079,3.1428,3.1284,3.1103,3.1512,3.1573,3.1416,3.0946,3.0338,2.9785,2.9316,2.8847,2.851,2.851,2.851,2.851,2.851,2.851,2.851,2.851,2.851,2.851,2.851,2.851,2.851,2.851,2.851,2.863,2.9013,2.9174,2.9134,2.88,2.88,2.8612,2.8122,2.8574,2.8825,2.8888,2.9313,2.9639,2.9792,2.8831,2.8422,2.8462,2.7435,2.6494,2.9136,2.8655,2.845,2.9605,3.0062,3.0615,3.2154,3.2743,3.3308,3.4571,3.5316,3.5905,3.6435,3.7661,3.8503,3.819,3.9296,3.9874,3.8948,3.908,3.8924,3.7986,3.7938,3.7986,3.7986,3.8274,3.8334,3.7998,3.7986,3.7986,3.7986,3.7986,3.7986,3.7986,3.7986,3.7986,3.7986,3.7986,3.7986,3.7986,3.7986,3.7829,3.7505,3.7072,3.6531,3.5905,3.5148,3.4775,3.4775,3.4775,3.4643,3.4414,3.4114,3.3862,3.3621,3.2803,3.2503,3.2418,3.191,3.1705,3.1705,3.1705,3.1705,3.1657,3.1344,3.1308,3.1296,3.0898,3.1079,3.1356,3.1271,3.1247,3.1199,3.0927,3.047,3.0025,2.9797,2.934,2.8967,2.8967,2.8967,2.8967,2.8967,2.8967,2.8967,2.8967,2.8703,2.851,2.851,2.851,2.851,2.851,2.851,2.859,2.8749,2.8922,2.9059,2.9043,2.9134,2.9149,2.9101,2.9302,2.9428,2.9428,2.9666,2.9792,2.9792,2.9417,2.9248,2.9248,2.8331,2.7718,2.9472,2.9088,2.8931,3.0663,3.1324,3.1865,3.308,3.3765,3.4438,3.5485,3.6314,3.6952,3.7336,3.8491,3.926,3.8876,3.9777,4.0126,3.8972,3.8888,3.8515,3.7336,3.7409,3.7601,3.7745,3.8262,3.8419,3.801,3.7986,3.7986,3.7986,3.7986,3.7986,3.7986,3.7986,3.7986,3.7986,3.7986,3.7914,3.7757,3.7757,3.7481,3.6976,3.6819,3.6266,3.5376,3.4943,3.4775,3.4775,3.4775,3.4691,3.4522,3.4138,3.391,3.3694,3.2996,3.2623,3.2418,3.191,3.1705,3.1705,3.1705,3.1813,3.1862,3.1444,3.1589,3.1777,3.0963,3.1192,3.1621,3.1235,3.1139,3.1139,3.1139,3.073,3.0302,3.0302,2.9893,2.952,2.952,2.952,2.952,2.952,2.952,2.952,2.952,2.9063,2.8679,2.8522,2.851,2.851,2.851,2.855,2.8578,2.8578,2.8803,2.904,2.9157,2.9404,2.9599,2.9792,2.9792,2.9792,2.9792,2.9792,2.9792,2.9792,2.9792,2.9792,2.9792,2.917,2.887,2.827,2.8534,2.9015,3.1151,3.2488,3.3621,3.5172,3.593,3.6615,3.7661,3.7914,3.7938,3.795,3.8443,3.8839,3.8815,3.8864,3.8876,3.8827,3.7926,3.724,3.7204,3.6759,3.6651,3.7168,3.7697,3.7998,3.7986,3.7986,3.7986,3.7986,3.7986,3.7986,3.7986,3.7986,3.7986,3.7986,3.7986,3.7721,3.7216,3.7216,3.694,3.6411,3.5905,3.5364,3.4799,3.4787,3.4775,3.4775,3.4775,3.4474,3.4018,3.4006,3.3741,3.3308,3.3272,3.2947,3.2418,3.191,3.1705,3.1705,3.1705,3.2034,3.2466,3.2454,3.2466,3.2466,3.2442,3.2058,3.1705,3.1681,3.1681,3.1681,3.1681,3.1284,3.0898,3.0898,3.0434,3.0062,3.0062,3.0062,3.0062,3.0062,3.0062,3.0062,3.0062,2.9617,2.9088,2.857,2.851,2.851,2.851,2.8657,2.8803,2.8803,2.9145,2.938,2.938,2.965,2.9792,2.9792,2.9792,2.9792,2.9792,2.9792,2.9792,2.9792,2.9792,2.9792,2.9792,2.9753,2.9753,2.9364,3.0338,3.1661,3.3765,3.4823,3.5677,3.6904,3.7324,3.7553,3.7914,3.7144,3.6411,3.6411,3.6567,3.6807,3.7156,3.8118,3.8815,3.8815,3.8503,3.7878,3.6795,3.7132,3.724,3.6723,3.7144,3.7601,3.795,3.7986,3.7986,3.7986,3.7986,3.7986,3.7986,3.7986,3.7986,3.7986,3.7637,3.7372,3.718,3.6483,3.605,3.5857,3.5328,3.4943,3.4775,3.4775,3.4775,3.4775,3.4775,3.4679,3.445,3.3813,3.3645,3.3658,3.302,3.2647,3.2466,3.2286,3.2214,3.2214,3.2214,3.2587,3.302,3.302,3.302,3.2947,3.2599,3.237,3.213,3.1801,3.1452,3.1271,3.1621,3.1308,3.1019,3.1368,3.1031,3.0645,3.0645,3.0645,3.0645,3.0645,3.0731,3.0658,3.0089,2.9629,2.9112,2.8582,2.851,2.855,2.8685,2.8764,2.8831,2.9,2.9118,2.9275,2.938,2.947,2.9599,2.9792,2.9792,2.9792,2.9792,2.9792,2.9792,2.9792,2.9792,2.9792,2.9792,2.9792,2.9792,3.0884,3.1983,3.3314,3.5603,3.6282,3.6657,3.7729,3.7671,3.7386,3.7404,3.6459,3.5557,3.5376,3.5184,3.5111,3.5509,3.6278,3.7036,3.7589,3.7517,3.7216,3.6747,3.712,3.7228,3.6735,3.7,3.7409,3.7938,3.7986,3.7986,3.7986,3.7986,3.7986,3.7986,3.7986,3.7986,3.7986,3.7457,3.7,3.6615,3.5749,3.5328,3.5328,3.4943,3.4775,3.4775,3.4775,3.4775,3.4775,3.4775,3.4667,3.4438,3.3813,3.3525,3.3428,3.2959,3.2659,3.2527,3.2719,3.2659,3.2527,3.2719,3.3128,3.3561,3.3561,3.3561,3.3452,3.2935,3.2647,3.237,3.1849,3.1308,3.1007,3.1344,3.1163,3.1007,3.1356,3.1308,3.1199,3.1199,3.1199,3.1199,3.1199,3.1361,3.1241,3.0543,3.0073,2.9573,2.8794,2.8697,2.8776,2.8882,2.8922,2.8961,2.9091,2.917,2.9275,2.938,2.947,2.9611,2.9792,2.9792,2.9792,2.9792,2.9792,2.9792,2.9792,2.9792,2.9792,2.9792,2.9792,2.9792,3.2584,3.3327,3.3948,3.6545,3.6747,3.6626,3.7671,3.7055,3.6336,3.6369,3.5881,3.5304,3.4799,3.4258,3.3934,3.3982,3.3705,3.3982,3.5521,3.5255,3.5533,3.7024,3.6771,3.6675,3.7144,3.7216,3.7433,3.7938,3.7986,3.7986,3.7986,3.7986,3.7986,3.7986,3.7986,3.7986,3.7986,3.7433,3.6627,3.5569,3.5015,3.4775,3.4775,3.4775,3.4775,3.4775,3.4775,3.4763,3.4739,3.4739,3.4426,3.3958,3.3922,3.338,3.2599,3.308,3.2947,3.2623,3.314,3.2996,3.2659,3.3164,3.3669,3.403,3.403,3.403,3.3922,3.3464,3.2923,3.2382,3.1886,3.132,3.0855,3.0946,3.0934,3.0922,3.0958,3.1356,3.1705,3.1705,3.1705,3.1705,3.1705,3.1849,3.1799,3.1272,3.0996,3.0421,2.9275,2.9116,2.9091,2.9091,2.9131,2.9131,2.9131,2.9314,2.9419,2.9419,2.965,2.9792,2.9792,2.9792,2.9792,2.9792,2.9792,2.9792,2.9792,2.9792,2.9792,2.9792,2.9792,2.9792,3.3126,3.4348,3.5646,3.6331,3.6703,3.6873,3.6773,3.6573,3.6255,3.5879,3.4475,3.326,3.3116,3.2984,3.3152,3.3874,3.4919,3.6026,3.7216,3.7264,3.718,3.7192,3.7421,3.7481,3.7216,3.7553,3.7841,3.7974,3.7986,3.7986,3.7986,3.7986,3.7986,3.7986,3.7986,3.7986,3.7986,3.7072,3.6074,3.4979,3.4895,3.4775,3.4775,3.4775,3.4775,3.4775,3.4775,3.4558,3.4186,3.4186,3.3945,3.344,3.3056,3.2971,3.3056,3.2803,3.2863,3.3164,3.3669,3.3706,3.3622,3.3754,3.415,3.4583,3.4583,3.4583,3.4474,3.3946,3.32,3.2466,3.2322,3.1288,3.0494,3.132,3.1199,3.1031,3.1428,3.1609,3.1705,3.1705,3.1705,3.1761,3.1893,3.1849,3.17,3.1455,3.1357,3.0974,2.9893,2.9389,2.917,2.9314,2.9302,2.9392,2.9585,2.9663,2.9702,2.9702,2.9753,2.9792,2.9792,2.9792,2.9792,2.9792,2.9792,2.9792,2.9792,2.9792,2.9792,2.9792,2.9792,2.9792,3.4847,3.5587,3.643,3.6909,3.6744,3.6337,3.6057,3.5464,3.4853,3.4354,3.3116,3.213,3.213,3.213,3.2406,3.3236,3.4114,3.522,3.6723,3.694,3.7096,3.7493,3.7805,3.7866,3.7565,3.7805,3.789,3.7649,3.7853,3.7986,3.7986,3.7986,3.7986,3.7986,3.7986,3.7757,3.7288,3.6471,3.5653,3.4775,3.4775,3.4775,3.4775,3.4775,3.4775,3.4763,3.4534,3.427,3.397,3.3801,3.3404,3.2911,3.2623,3.2527,3.2539,3.225,3.2478,3.302,3.3537,3.3802,3.403,3.4258,3.4534,3.4775,3.4775,3.4775,3.4667,3.4138,3.3574,3.3068,3.2611,3.1829,3.124,3.1621,3.1476,3.1416,3.1958,3.2034,3.2034,3.2034,3.1874,3.1761,3.1849,3.1937,3.1928,3.1742,3.1785,3.1583,3.0918,3.018,2.9816,2.9922,2.971,2.965,2.9792,2.9792,2.9792,2.9792,2.9792,2.9792,2.9792,2.9792,2.9792,2.9792,2.9792,2.9792,2.9792,2.9792,2.9792,2.9792,2.9792,2.9792,3.69,3.6784,3.6538,3.7548,3.6525,3.531,3.5248,3.4097,3.2854,3.227,3.1853,3.1585,3.1512,3.1609,3.1958,3.2683,3.2815,3.3537,3.5629,3.593,3.6447,3.7817,3.7986,3.7986,3.7986,3.7986,3.7793,3.7336,3.7721,3.795,3.7878,3.7938,3.795,3.7878,3.7938,3.7433,3.6314,3.5918,3.5425,3.4775,3.4775,3.4775,3.4775,3.4775,3.4775,3.4751,3.4222,3.3958,3.385,3.3392,3.2875,3.2382,3.2382,3.2094,3.1705,3.1705,3.2022,3.2563,3.3032,3.3561,3.4078,3.4607,3.4775,3.4775,3.4775,3.4775,3.4679,3.4234,3.3994,3.3706,3.2923,3.2599,3.2394,3.203,3.1922,3.2054,3.2503,3.2611,3.2587,3.2515,3.2151,3.1834,3.1761,3.2125,3.23,3.2081,3.2172,3.2201,3.2045,3.1173,3.062,3.062,3.0118,2.9792,2.9792,2.9792,2.9792,2.9792,2.9792,2.9792,2.9792,2.9792,2.9792,2.9792,2.9792,2.9792,2.9792,2.9792,2.9792,2.9792,2.9792,2.9792,3.7625,3.7064,3.632,3.6538,3.5417,3.4102,3.3614,3.2705,3.1709,3.0721,3.0771,3.0922,3.0446,3.1115,3.2274,3.4126,3.4378,3.516,3.7276,3.7565,3.7673,3.795,3.7986,3.7986,3.7986,3.7986,3.7938,3.7853,3.7926,3.7793,3.7348,3.7745,3.7781,3.7336,3.7757,3.7264,3.5761,3.6098,3.5785,3.4775,3.4775,3.4775,3.4775,3.4775,3.4775,3.4751,3.4222,3.3754,3.338,3.2851,3.231,3.1849,3.1849,3.1789,3.1705,3.1705,3.2022,3.2515,3.2611,3.326,3.4078,3.4607,3.4775,3.4775,3.4775,3.4775,3.4763,3.4667,3.4078,3.3477,3.3658,3.314,3.2587,3.2923,3.3008,3.3032,3.3128,3.3152,3.302,3.2587,3.2542,3.2459,3.2022,3.2213,3.2388,3.2356,3.2506,3.2617,3.2574,3.141,3.062,3.062,3.0118,2.9792,2.9792,2.9792,2.9792,2.9792,2.9792,2.9792,2.9792,2.9792,2.9792,2.9792,2.9792,2.9792,2.9792,2.9792,2.9792,2.9792,2.9792,2.9792,3.7529,3.6886,3.6429,3.7024,3.5566,3.3834,3.3315,3.1968,3.0624,2.9851,2.9665,2.9737,3.0025,3.0995,3.2042,3.3008,3.3657,3.4667,3.6495,3.6747,3.706,3.789,3.7986,3.7986,3.7986,3.7986,3.7866,3.7589,3.7829,3.7878,3.7613,3.7841,3.7733,3.7216,3.7168,3.6663,3.5629,3.5593,3.5328,3.4775,3.4775,3.4775,3.4775,3.4775,3.4775,3.4751,3.4222,3.3753,3.3248,3.2719,3.2166,3.1705,3.1705,3.1705,3.1705,3.1705,3.1874,3.2142,3.2719,3.3236,3.3777,3.4571,3.4775,3.4775,3.4775,3.4775,3.4775,3.4775,3.4475,3.4078,3.4006,3.3826,3.3705,3.3681,3.3897,3.4018,3.3741,3.3681,3.3609,3.3344,3.2955,3.2587,3.2443,3.2396,3.24,3.24,3.2692,3.2853,3.2723,3.1947,3.1449,3.1449,3.0708,3.0218,3.0218,2.9955,2.9792,2.9792,2.9792,2.9792,2.9792,2.9792,2.9792,2.9792,2.9792,2.9792,2.9792,2.9792,2.9792,2.9792,2.9792,2.9792,3.7506,3.6901,3.6538,3.7548,3.5666,3.3488,3.3185,3.1492,2.9744,2.9071,2.8811,2.8895,2.9617,3.0615,3.144,3.1669,3.2427,3.3573,3.5364,3.5617,3.6206,3.7793,3.7986,3.7986,3.7986,3.7986,3.7805,3.7385,3.7745,3.7986,3.7986,3.7986,3.7685,3.7048,3.6723,3.6206,3.5461,3.5099,3.4895,3.4775,3.4775,3.4775,3.4775,3.4775,3.4775,3.4751,3.4222,3.3753,3.3248,3.2719,3.2166,3.1705,3.1705,3.1705,3.1705,3.1705,3.1789,3.2006,3.2827,3.326,3.3585,3.439,3.4691,3.4775,3.4775,3.4775,3.4775,3.4775,3.4775,3.4679,3.427,3.4474,3.4679,3.4258,3.4474,3.4667,3.4246,3.4066,3.3958,3.385,3.327,3.2759,3.2807,3.271,3.2648,3.2648,3.2897,3.3025,3.281,3.2552,3.239,3.239,3.1424,3.0733,3.062,3.0218,2.9917,2.9804,2.9792,2.9792,2.9792,2.9792,2.9792,2.9792,2.9792,2.9792,2.9792,2.9792,2.9792,2.9792,2.9792,2.9792,3.8413,3.7508,3.6429,3.7024,3.4837,3.2503,3.251,3.0935,2.9153,2.8056,2.8595,2.9112,2.8727,2.952,3.0585,3.1548,3.1789,3.2753,3.5256,3.5617,3.6206,3.7793,3.7986,3.7986,3.7986,3.7986,3.7962,3.7914,3.795,3.7986,3.7986,3.7986,3.7517,3.6507,3.6892,3.6411,3.4871,3.5328,3.5304,3.4775,3.4775,3.4775,3.4775,3.4775,3.4775,3.4751,3.4222,3.3753,3.3248,3.2719,3.2166,3.1705,3.1705,3.1705,3.1705,3.1705,3.203,3.2442,3.2539,3.3188,3.3934,3.403,3.439,3.4775,3.4775,3.4775,3.4775,3.4775,3.4775,3.4775,3.4715,3.4739,3.4763,3.4715,3.4751,3.4763,3.4715,3.433,3.385,3.3452,3.3446,3.3353,3.2868,3.3138,3.3412,3.3412,3.3221,3.3081,3.3081,3.3031,3.3006,3.3006,3.1989,3.1135,3.0658,3.057,3.0331,2.9829,2.9792,2.9792,2.9792,2.9792,2.9792,2.9792,2.9792,2.9792,2.9792,2.9792,2.9792,2.9792,2.9792,2.9792,3.7512,3.708,3.6538,3.74,3.4962,3.2457,3.2865,3.0815,2.8753,2.829,2.8282,2.8378,2.8486,2.9112,2.9641,2.9749,3.0025,3.0831,3.2527,3.3044,3.4066,3.629,3.6843,3.7276,3.7926,3.7986,3.7986,3.7986,3.7986,3.7986,3.7986,3.7986,3.7649,3.6904,3.6771,3.6266,3.5304,3.5147,3.504,3.4775,3.4775,3.4775,3.4775,3.4775,3.4775,3.4775,3.4558,3.4042,3.3272,3.3056,3.2454,3.1705,3.1705,3.1705,3.1705,3.1705,3.2022,3.2551,3.2863,3.344,3.4042,3.4366,3.4607,3.4775,3.4775,3.4775,3.4775,3.4775,3.4775,3.4775,3.4775,3.4775,3.4775,3.4775,3.4775,3.4775,3.4775,3.4619,3.4402,3.4258,3.3993,3.3701,3.3353,3.3306,3.3254,3.3052,3.3077,3.3124,3.3124,3.3124,3.3124,3.3124,3.2365,3.18,3.1587,3.0984,3.052,3.0306,2.998,2.9792,2.9792,2.9792,2.9792,2.9792,2.9792,2.9792,2.9792,2.9792,2.9792,2.9792,2.9792,2.9792,3.6611,3.6736,3.6708,3.757,3.5152,3.2644,3.2968,3.0819,2.8703,2.8546,2.821,2.8065,2.8438,2.9076,2.9364,2.8823,2.9184,2.9965,3.118,3.1573,3.2587,3.5088,3.5713,3.6362,3.7409,3.7793,3.7986,3.7986,3.7986,3.7986,3.7986,3.7986,3.7661,3.6988,3.6603,3.6074,3.5388,3.4967,3.4775,3.4775,3.4775,3.4775,3.4775,3.4775,3.4775,3.4775,3.4619,3.4102,3.3272,3.3128,3.2503,3.1705,3.1705,3.1705,3.1729,3.1898,3.2262,3.2803,3.3332,3.3849,3.4282,3.4667,3.4775,3.4775,3.4775,3.4775,3.4775,3.4775,3.4775,3.4775,3.4775,3.4775,3.4775,3.4775,3.4775,3.4775,3.4775,3.4655,3.4595,3.4643,3.4222,3.3847,3.3956,3.3652,3.3449,3.3437,3.3539,3.3508,3.3345,3.3319,3.3257,3.3136,3.2717,3.2403,3.2227,3.1524,3.0959,3.0633,3.0256,2.9967,2.9804,2.9792,2.9792,2.9792,2.9792,2.9792,2.9792,2.9792,2.988,3.003,2.9867,2.9967,3.6134,3.6711,3.7109,3.7168,3.5206,3.3053,3.2606,3.0843,2.9136,2.8619,2.851,2.8498,2.851,2.9364,2.9905,2.9376,2.9737,3.0639,3.2262,3.201,3.2454,3.4583,3.4799,3.5256,3.6314,3.7372,3.7986,3.7986,3.7986,3.7986,3.7986,3.7986,3.7505,3.6447,3.6411,3.5905,3.4799,3.4775,3.4775,3.4775,3.4775,3.4775,3.4775,3.4775,3.4775,3.4751,3.4234,3.3765,3.3248,3.2719,3.2178,3.1705,3.1705,3.1705,3.1777,3.2286,3.2827,3.3356,3.3814,3.433,3.4775,3.4775,3.4775,3.4775,3.4775,3.4775,3.4775,3.4775,3.4775,3.4775,3.4775,3.4775,3.4775,3.4775,3.4775,3.4775,3.4775,3.4366,3.4101,3.4338,3.3832,3.3639,3.4617,3.4354,3.4274,3.5037,3.4882,3.4512,3.396,3.3884,3.3684,3.3174,3.3111,3.283,3.2265,3.2202,3.1738,3.0683,3.0608,3.0357,2.9817,2.9792,2.9792,2.9792,2.9792,2.9792,2.9792,2.9792,3.0068,3.0595,3.0043,3.0369,3.3982,3.4385,3.4469,3.451,3.3042,3.1513,3.142,3.0302,2.9148,2.8619,2.851,2.851,2.851,2.9076,2.9496,2.9328,2.9737,3.0266,3.0783,3.1649,3.2743,3.4078,3.5881,3.712,3.7457,3.7781,3.7986,3.7986,3.7986,3.7986,3.7986,3.7986,3.7829,3.7493,3.7132,3.6783,3.6447,3.5725,3.5364,3.5364,3.5004,3.4775,3.4775,3.4775,3.4775,3.4775,3.4607,3.409,3.3272,3.3104,3.2491,3.1705,3.1705,3.1705,3.1729,3.191,3.2503,3.3308,3.3464,3.4102,3.4775,3.4775,3.4775,3.4715,3.4354,3.4498,3.4775,3.4775,3.4775,3.4775,3.4775,3.4775,3.4775,3.4775,3.4775,3.4775,3.4775,3.48,3.4824,3.492,3.4894,3.4744,3.4308,3.4567,3.4644,3.4107,3.4407,3.4525,3.3972,3.3897,3.3684,3.3174,3.3124,3.3006,3.2817,3.2441,3.2077,3.1725,3.1348,3.1072,3.0896,3.0884,3.0884,3.0884,3.0884,3.0884,3.0884,3.0884,3.0972,3.1135,3.0972,3.106,3.2322,3.2968,3.3209,3.3023,3.1896,3.079,3.0613,2.9761,2.8907,2.8582,2.851,2.851,2.851,2.91,2.9593,2.9593,3.0037,3.053,3.0939,3.1865,3.2959,3.415,3.6146,3.7385,3.7385,3.7745,3.7986,3.7986,3.7986,3.7986,3.7986,3.7986,3.7986,3.7986,3.7469,3.7,3.6603,3.5942,3.5521,3.5267,3.4943,3.4775,3.4775,3.4775,3.4775,3.4775,3.457,3.4066,0.0,3.308,3.2466,3.1705,3.1705,3.1705,3.1729,3.1946,3.2539,3.332,3.3501,3.4126,3.4775,3.4775,3.4775,3.4679,3.415,3.409,3.4282,3.4426,3.4486,3.4522,3.4727,3.4775,3.4775,3.4775,3.4775,3.4775,3.4775,3.492,3.5126,3.532,3.5257,3.5118,3.4919,3.5096,3.5055,3.4661,3.5023,3.514,3.46,3.4512,3.4223,3.347,3.3382,3.3307,3.3136,3.2754,3.2441,3.2227,3.1888,3.1599,3.1399,3.1386,3.1386,3.1386,3.1386,3.1386,3.1386,3.1599,3.1599,3.1399,3.1825,3.1913,0.0,3.2247,3.2887,3.2346,3.148,3.0669,3.0098,2.9244,0.0,2.8522,2.851,2.851,2.851,2.9376,3.0086,3.0086,3.0555,3.1288,3.2298,3.2575,3.3224,3.4715,3.5869,3.6483,3.6411,3.736,3.7986,3.7986,3.7986,3.7986,3.7986,3.7986,3.7986,3.7986,3.7469,3.6723,3.5737,3.5689,3.54,3.4835,3.4799,3.4775,3.4775,3.4775,3.4775,3.4751,3.4258,3.3789,3.3248,3.2755,3.2202,3.1705,3.1705,3.1729,3.1825,3.2262,3.2827,3.3404,3.379,3.4306,3.4775,3.4775,3.4751,3.4631,3.4138,3.3741,3.3489,3.3874,3.4018,3.4162,3.4655,3.4775,3.4775,3.4775,3.4775,3.4775,3.4775,3.4823,3.4969,3.5524,3.5025,3.4911,3.6125,3.5765,3.551,3.6232,3.638,3.6157,3.5571,3.5495,3.5082,3.401,3.3897,3.3671,3.3174,3.3124,3.2842,3.2303,3.2277,3.2039,3.1537,3.1512,3.1512,3.1512,3.1512,3.1512,3.1512,3.2026,3.2014,3.1537,3.2634,3.2792,2.9148,0.0,3.011,2.9581,2.9556,2.9532,0.0,2.9003,2.9003,2.8595,2.851,2.851,2.851,2.9376,3.0086,3.0086,3.091,3.1609,3.1862,3.326,3.4715,3.5893,3.6964,3.7288,3.6483,3.736,3.7986,3.7986,3.7986,3.7986,3.7986,3.7986,3.7986,3.7986,3.7469,3.7072,3.6819,3.6423,3.5954,3.5425,3.4979,3.4775,3.4775,3.4775,3.4775,3.4775,3.4643,3.4126,3.3284,3.3152,3.2539,3.1705,3.1705,3.197,3.2262,3.1973,3.2707,3.3825,3.3561,3.4066,3.4775,3.4775,3.4498,3.415,3.403,3.4198,3.4354,3.4066,3.4282,3.4619,3.4751,3.4775,3.4775,3.4775,3.4775,3.4775,3.4775,3.4981,3.5223,3.5524,3.5618,3.5623,3.5699,3.5922,3.6022,3.5734,3.6094,3.6157,3.5571,3.5495,3.5082,3.401,3.3897,3.3671,3.3174,3.3124,3.3061,3.288,3.2867,3.2817,3.2692,3.2679,3.2679,3.2679,3.2679,3.2679,3.2679,3.2817,3.2805,3.2692,3.2998,3.3006,2.851,2.8715,2.8931,2.8883,2.8907,2.8931,2.8883,2.8907,2.8859,2.857,2.851,2.8582,2.8823,2.9532,3.017,3.041,3.1175,3.1886,3.2379,3.3597,3.4895,3.6242,3.6904,3.7228,3.7132,3.7649,3.7986,3.7986,3.7986,3.7986,3.7986,3.7986,3.7986,3.7986,3.7709,3.7324,3.6843,3.6314,3.5773,3.5256,3.4968,3.4775,3.4775,3.4775,3.4775,3.4775,3.4775,3.4246,3.3284,3.3284,3.2647,3.1705,3.1705,3.2054,3.2466,3.2154,3.2899,3.3958,3.3729,3.4162,3.4775,3.4775,3.4583,3.4306,3.4066,3.4354,3.4667,3.4138,3.4198,3.4474,3.4715,3.4775,3.4775,3.4775,3.4775,3.4775,3.4775,3.492,3.5078,3.5368,3.562,3.5821,3.5747,3.6075,3.6304,3.5968,3.6169,3.6304,3.5956,3.5918,3.5592,3.4751,3.4424,3.406,3.3508,3.3219,3.3124,3.3124,3.3124,3.3124,3.3124,3.3124,3.3124,3.3124,3.3124,3.3124,3.3124,3.3124,3.3124,3.3124,3.3124,3.3124,2.8607,2.8631,2.8715,2.9088,2.8847,2.8631,2.9076,2.8835,2.851,2.851,2.857,2.8775,2.922,2.9797,3.0386,3.0946,3.1621,3.243,3.3597,3.4138,3.4847,3.6242,3.6543,3.694,3.7661,3.789,3.7986,3.7986,3.7986,3.7986,3.7986,3.7986,3.7986,3.7986,3.7829,3.7312,3.6411,3.5966,3.5425,3.4775,3.4775,3.4775,3.4775,3.4775,3.4775,3.4775,3.4775,3.4282,3.3392,3.332,3.2695,3.1825,3.1741,3.2102,3.2611,3.2527,3.32,3.4114,3.4114,3.4402,3.4775,3.4775,3.4775,3.4691,3.4246,3.4426,3.4691,3.4234,3.4114,3.421,3.4667,3.4775,3.4775,3.4775,3.4775,3.4775,3.4775,3.4835,3.492,3.5175,3.5464,3.5716,3.5968,3.6228,3.6405,3.6405,3.6405,3.6405,3.6405,3.6405,3.6119,3.5445,3.4956,3.4462,3.3822,3.3345,3.3124,3.3124,3.3124,3.3124,3.3124,3.3124,3.3124,3.3124,3.3124,3.3124,3.3124,3.3124,3.3124,3.3124,3.3124,3.3124,2.9051,2.9184,2.9088,2.8727,2.857,2.8534,2.8607,2.857,2.851,2.851,2.8871,2.9208,2.928,3.0098,3.0927,3.15,3.2743,3.4198,3.5713,3.599,3.6134,3.6374,3.7192,3.7457,3.6723,3.7457,3.7986,3.7986,3.7986,3.7986,3.7986,3.7986,3.7986,3.7986,3.712,3.6567,3.6411,3.6326,3.5797,3.4775,3.4775,3.4775,3.4775,3.4775,3.4775,3.4775,3.4775,3.4438,3.3838,3.3464,3.2935,3.2322,3.1898,3.2331,3.3116,3.2671,3.344,3.4667,3.4667,3.4715,3.4775,3.4775,3.4775,3.4763,3.4679,3.4715,3.4763,3.4679,3.4667,3.4679,3.4763,3.4775,3.4775,3.4775,3.4775,3.4775,3.4775,3.4981,3.5126,3.5175,3.562,3.5968,3.5968,3.6228,3.6405,3.6405,3.6405,3.6405,3.6405,3.6405,3.5968,3.4964,3.4731,3.4311,3.3294,3.3174,3.3124,3.3124,3.3124,3.3124,3.3124,3.3124,3.3124,3.3124,3.3124,3.3124,3.3124,3.3124,3.3124,3.3124,3.3124,3.3124,2.8811,2.8871,2.8883,2.8931,2.9148,2.9364,2.9364,2.9364,2.9364,2.9364,2.9556,2.9893,3.047,3.1228,3.2106,3.32,3.3994,3.4667,3.5449,3.5557,3.5761,3.6338,3.6831,3.7168,3.7252,3.7697,3.7986,3.7986,3.7986,3.7986,3.7986,3.7986,3.7853,3.7565,3.7084,3.6555,3.599,3.5978,3.5593,3.4775,3.4775,3.4775,3.4775,3.4775,3.4775,3.4775,3.4775,3.4366,3.3621,3.3392,3.2803,3.2022,3.1813,3.2379,3.3332,3.3645,3.421,3.4775,3.4775,3.4775,3.4775,3.4775,3.4775,3.4775,3.4775,3.4775,3.4775,3.4775,3.4775,3.4775,3.4775,3.4775,3.4775,3.4775,3.4932,3.4981,3.4835,3.5126,3.5368,3.5223,3.562,3.6015,3.6015,3.6228,3.6405,3.6405,3.6405,3.6405,3.6405,3.6405,3.6056,3.5207,3.4856,3.4399,3.3583,3.3257,3.3124,3.3124,3.3124,3.3124,3.3124,3.3124,3.3124,3.3124,3.3124,3.3124,3.3124,3.3124,3.3124,3.3124,3.3124,3.3124,2.8655,2.8691,2.8799,2.9196,2.9508,2.9809,3.0194,3.017,3.0158,3.0398,3.0458,3.0742,3.156,3.2322,3.3332,3.4727,3.522,3.5425,3.5545,3.5569,3.5869,3.6675,3.6771,3.7096,3.7902,3.7986,3.7986,3.7986,3.7986,3.7926,3.7805,3.7793,3.7553,3.7024,3.6892,3.6435,3.5629,3.5497,3.5232,3.4775,3.4775,3.4775,3.4775,3.4775,3.4715,3.4595,3.4595,3.4126,3.3284,3.3152,3.2611,3.1886,3.1765,3.2379,3.3404,3.4306,3.4679,3.4763,3.4643,3.4679,3.4775,3.4775,3.4775,3.4775,3.4775,3.4775,3.4775,3.4775,3.4775,3.4775,3.4775,3.4775,3.4775,3.4775,3.4981,3.5126,3.4932,3.532,3.562,3.5368,3.5716,3.6051,3.6015,3.6228,3.6405,3.6405,3.6405,3.6405,3.6405,3.6405,3.6157,3.5558,3.5006,3.4449,3.3771,3.3319,3.3124,3.3124,3.3124,3.3124,3.3124,3.3124,3.3124,3.3124,3.3124,3.3124,3.3124,3.3124,3.3124,3.3124,3.3124,3.3124,2.9112,2.9244,2.9256,2.9292,2.8955,2.9015,3.0482,3.0446,3.0362,3.1392,3.1597,3.1621,3.1693,3.2899,3.4234,3.5376,3.6386,3.7192,3.7685,3.7757,3.7781,3.7853,3.7866,3.7902,3.7974,3.7986,3.7986,3.7986,3.7986,3.7769,3.7276,3.7252,3.7,3.6471,3.599,3.5701,3.5617,3.5136,3.4823,3.4775,3.4775,3.4775,3.4775,3.4775,3.451,3.4054,3.4054,3.3789,3.3248,3.2755,3.2515,3.2382,3.191,3.2379,3.3356,3.385,3.4354,3.4715,3.4222,3.4366,3.4775,3.4775,3.4775,3.4775,3.4775,3.4775,3.4775,3.4775,3.4775,3.4775,3.4775,3.4775,3.4775,3.4775,3.4981,3.5175,3.5175,3.5572,3.5908,3.562,3.5991,3.6275,3.6063,3.6228,3.6405,3.6405,3.6405,3.6405,3.6405,3.6405,3.6157,3.5558,3.5006,3.4299,3.3275,3.3106,3.3124,3.3124,3.3124,3.3124,3.3124,3.3124,3.3124,3.3124,3.3124,3.3124,3.3124,3.3124,3.3124,3.3124,3.3124,3.3124,2.8751,2.8811,2.8967,2.9629,2.9388,2.9412,3.1043,3.1777,3.219,3.2587,3.3188,3.3729,3.4054,3.4883,3.5749,3.6471,3.7216,3.7757,3.795,3.7986,3.7986,3.7986,3.7986,3.7986,3.7986,3.7986,3.7986,3.7986,3.7673,3.7409,3.7204,3.6879,3.6459,3.593,3.5725,3.5461,3.5136,3.4883,3.4775,3.4775,3.4775,3.4775,3.4775,3.4775,3.4486,3.3994,3.3994,3.3514,3.2791,3.2575,3.2503,3.2551,3.2971,3.32,3.3356,3.3802,3.4114,3.4258,3.4066,3.4342,3.4775,3.4775,3.4775,3.4775,3.4775,3.4775,3.4775,3.4775,3.4775,3.4775,3.4775,3.4775,3.4775,3.4775,3.5126,3.5416,3.5223,3.5752,3.6181,3.5908,3.6133,3.6358,3.6275,3.6323,3.6405,3.6405,3.6405,3.6405,3.6405,3.6405,3.6157,3.5558,3.4705,3.3897,3.3144,3.3124,3.3124,3.3124,3.3124,3.3124,3.3124,3.3124,3.3124,3.3124,3.3124,3.3124,3.3124,3.3124,3.3124,3.3124,3.3124,3.3124,2.851,2.851,2.8727,2.9617,2.9821,3.0254,3.2022,3.2863,3.3428,3.3921,3.4318,3.4691,3.5268,3.5665,3.6134,3.6831,3.7529,3.7986,3.7986,3.7986,3.7986,3.7986,3.7986,3.7986,3.7986,3.7986,3.7986,3.7986,3.7493,3.712,3.6952,3.6447,3.5918,3.5339,3.5364,3.5196,3.4775,3.4775,3.4775,3.4775,3.4775,3.4775,3.4775,3.4607,3.4246,3.3789,3.3574,3.3056,3.2238,3.2238,3.2346,3.2575,3.3284,3.344,3.3308,3.3489,3.361,3.3801,3.3801,3.4138,3.4558,3.4727,3.4775,3.4775,3.4775,3.4775,3.4775,3.4775,3.4775,3.4775,3.4775,3.4775,3.4823,3.4932,3.5271,3.5572,3.5464,3.593,3.637,3.6146,3.6275,3.6405,3.6405,3.6405,3.6405,3.6405,3.6405,3.6405,3.6405,3.6405,3.6157,3.5558,3.4818,3.4123,3.3395,3.3332,3.3269,3.3124,3.3124,3.3124,3.3124,3.3124,3.3124,3.3124,3.3124,3.3124,3.3124,3.3124,3.3124,3.3124,3.3124,3.3212,2.851,2.851,2.8643,2.9184,3.0098,3.1432,3.3514,3.3657,3.3729,3.5292,3.4727,3.4174,3.4703,3.4799,3.5196,3.6242,3.7288,3.7986,3.7986,3.7986,3.7986,3.7986,3.7986,3.7986,3.7986,3.7986,3.7986,3.7974,3.7481,3.6952,3.6423,3.5893,3.5376,3.4799,3.4775,3.4775,3.4775,3.4775,3.4775,3.4775,3.4775,3.4775,3.4751,3.4234,3.3765,3.3248,3.2731,3.2178,3.1705,3.1717,3.1997,3.2503,3.2515,3.2827,3.3224,3.2695,3.2839,3.3284,3.3284,3.3621,3.409,3.4607,3.4775,3.4775,3.4775,3.4775,3.4775,3.4775,3.4775,3.4775,3.4775,3.4775,3.4872,3.5126,3.5416,3.5668,3.5968,3.6181,3.6405,3.6405,3.6405,3.6405,3.6405,3.6405,3.6405,3.6405,3.6405,3.6405,3.6405,3.6405,3.6157,3.5558,3.5495,3.5056,3.3997,3.3909,3.3671,3.3174,3.3136,3.3124,3.3124,3.3124,3.3124,3.3124,3.3124,3.3124,3.3124,3.3124,3.3124,3.3136,3.3136,3.3382,2.851,2.851,2.8823,3.0086,3.0639,3.1529,3.3982,3.3921,3.3729,3.5292,3.5364,3.5425,3.6326,3.6495,3.6591,3.6904,3.7529,3.7986,3.7986,3.7986,3.7986,3.7986,3.7986,3.7986,3.7986,3.7986,3.7829,3.7457,3.694,3.6411,3.5881,3.5352,3.4943,3.4787,3.4775,3.4775,3.4775,3.4775,3.4775,3.4823,3.4402,3.4234,3.4222,3.4066,3.3514,3.2731,3.2575,3.2178,3.1741,3.2094,3.2346,3.2539,3.2911,3.2923,3.2719,3.2563,3.2839,3.3284,3.3284,3.3861,3.457,3.4727,3.4775,3.4775,3.4775,3.4775,3.4775,3.4775,3.4932,3.503,3.4823,3.5078,3.532,3.5223,3.5572,3.5908,3.5968,3.6181,3.6405,3.6405,3.6405,3.6405,3.6405,3.6405,3.6405,3.6405,3.6405,3.6405,3.6405,3.6405,3.6157,3.5558,3.5495,3.5207,3.4537,3.4474,3.4412,3.4248,3.4236,3.3884,3.3106,3.3124,3.3124,3.3124,3.3124,3.3269,3.3658,3.3658,3.3859,3.4236,3.4236,3.4324,2.851,2.851,2.8895,3.0482,3.1079,3.1769,3.4006,3.4679,3.5172,3.6326,3.6218,3.6194,3.7036,3.7024,3.6952,3.7168,3.7637,3.7986,3.7986,3.7986,3.7986,3.7986,3.7986,3.7986,3.7986,3.7986,3.7757,3.7228,3.6699,3.6182,3.5653,3.5112,3.4775,3.4775,3.4775,3.4775,3.4775,3.4775,3.4775,3.4775,3.445,3.409,3.3729,3.3478,3.308,3.2503,3.2503,3.2178,3.1753,3.2274,3.2503,3.2515,3.2599,3.2587,3.2503,3.2503,3.2707,3.3032,3.344,3.3946,3.4498,3.4715,3.4775,3.4775,3.4775,3.4775,3.4775,3.4775,3.4981,3.5175,3.4981,3.5368,3.5668,3.5416,3.5668,3.6015,3.6146,3.6275,3.6405,3.6405,3.6405,3.6405,3.6405,3.6405,3.6405,3.6405,3.6405,3.6405,3.6405,3.6405,3.6279,3.5906,3.5868,3.5655,3.5056,3.5006,3.4906,3.4693,3.468,3.4424,3.3759,3.3734,3.3734,3.3734,3.3734,3.3884,3.4223,3.4223,3.4399,3.468,3.468,3.4793,2.857,2.8619,2.9039,3.0627,3.1609,3.2524,3.3874,3.5809,3.736,3.7697,3.712,3.6699,3.718,3.6867,3.6711,3.718,3.7661,3.7962,3.7914,3.7914,3.7914,3.7914,3.7914,3.7926,3.7974,3.7938,3.7685,3.7168,3.6627,3.6098,3.5569,3.5039,3.4775,3.4775,3.4775,3.4775,3.4775,3.4775,3.4763,3.4715,3.4715,3.4222,3.32,3.2767,3.2515,3.243,3.243,3.213,3.1753,3.2274,3.2503,3.2454,3.2042,3.2118,3.2575,3.2575,3.2599,3.2779,3.367,3.4018,3.4138,3.4619,3.4775,3.4775,3.4775,3.4775,3.4775,3.4775,3.503,3.5223,3.5223,3.562,3.5968,3.5716,3.586,3.6098,3.637,3.6405,3.6405,3.6405,3.6405,3.6405,3.6405,3.6405,3.6405,3.6405,3.6405,3.6405,3.6405,3.6405,3.6405,3.6405,3.6405,3.6157,3.5621,3.5571,3.5357,3.4901,3.4864,3.4864,3.4864,3.4776,3.468,3.468,3.468,3.4705,3.4756,3.4756,3.4781,3.4864,3.4864,3.514,2.9015,2.9436,3.0134,3.1745,3.3789,3.5485,3.5821,3.6892,3.7493,3.6362,3.694,3.7673,3.7793,3.7721,3.7685,3.7793,3.7914,3.7841,3.7421,3.736,3.736,3.736,3.736,3.7529,3.7938,3.7601,3.7144,3.6615,3.6086,3.5557,3.4979,3.4847,3.4775,3.4775,3.4775,3.4775,3.4775,3.4775,3.457,3.4162,3.4162,3.3669,3.2683,3.2984,3.2647,3.1886,3.1886,3.1825,3.1753,3.2274,3.2503,3.2527,3.2827,3.302,3.3116,3.3116,3.3368,3.3694,3.391,3.4258,3.4631,3.4739,3.4775,3.4775,3.4775,3.4775,3.4775,3.4775,3.5126,3.5476,3.5271,3.5752,3.6228,3.5955,3.6146,3.6323,3.6405,3.6405,3.6405,3.6405,3.6405,3.6405,3.6405,3.6405,3.6405,3.6405,3.6405,3.6405,3.6405,3.6405,3.6405,3.6405,3.6405,3.6367,3.6194,3.6194,3.6179,3.6065,3.6053,3.6053,3.6053,3.5177,3.468,3.468,3.468,3.4893,3.532,3.532,3.5592,3.6053,3.6053,3.6116,2.8847,2.9496,3.0543,3.2406,3.4655,3.6411,3.6411,3.7228,3.7745,3.6916,3.7409,3.7986,3.7986,3.7781,3.7601,3.7601,3.7385,3.7132,3.6855,3.6819,3.6904,3.7168,3.7192,3.73,3.7577,3.736,3.6867,3.6086,3.5773,3.5388,3.4811,3.4775,3.4775,3.4775,3.4775,3.4775,3.4775,3.4534,3.427,3.3994,3.3789,3.3272,3.2503,3.2503,3.2247,3.1717,3.1994,3.1958,3.1753,3.2274,3.2503,3.2527,3.2803,3.3068,3.332,3.3561,3.3766,3.403,3.4282,3.4546,3.4775,3.4775,3.4775,3.4775,3.4775,3.4775,3.4775,3.4775,3.5078,3.5428,3.5368,3.5812,3.6181,3.6193,3.6323,3.6405,3.6405,3.6405,3.6405,3.6405,3.6405,3.6405,3.6405,3.6405,3.6405,3.6405,3.6405,3.6405,3.6405,3.6405,3.6405,3.6405,3.6405,3.6405,3.6405,3.6405,3.6405,3.6405,3.6405,3.6405,3.6405,3.5805,3.5504,3.5504,3.5504,3.5642,3.5931,3.5931,3.6081,3.6405,3.6405,3.6405,2.8619,2.9556,3.0975,3.2935,3.4847,3.6266,3.6266,3.7024,3.7709,3.7709,3.7781,3.7841,3.7841,3.7409,3.706,3.706,3.6687,3.6374,3.6278,3.6266,3.6435,3.6867,3.6916,3.6952,3.7048,3.6976,3.6555,3.5677,3.5533,3.5292,3.4799,3.4775,3.4775,3.4775,3.4775,3.4787,3.4643,3.421,3.3898,3.373,3.3248,3.2827,3.2478,3.1925,3.1705,3.1729,3.2154,3.2094,3.1753,3.2274,3.2551,3.2647,3.2731,3.3092,3.3609,3.397,3.4126,3.4186,3.4631,3.4775,3.4775,3.4775,3.4775,3.4775,3.4775,3.4775,3.4775,3.4775,3.4981,3.5271,3.5464,3.5716,3.6003,3.6275,3.6323,3.6323,3.6405,3.6405,3.6405,3.6405,3.6405,3.6405,3.6405,3.6405,3.6405,3.6405,3.6405,3.6405,3.6405,3.6405,3.6405,3.6405,3.6405,3.6405,3.6405,3.6405,3.6405,3.6405,3.6405,3.6405,3.6405,3.6405,3.6405,3.6405,3.6405,3.6405,3.6405,3.6405,3.6405,3.6405,3.6405,3.6405,2.9076,3.0651,3.2466,3.3645,3.4787,3.5725,3.5725,3.6182,3.6615,3.6615,3.6976,3.73,3.73,3.6867,3.6507,3.6507,3.6459,3.6242,3.5785,3.5725,3.5749,3.5821,3.5821,3.6014,3.6471,3.6098,3.5761,3.5629,3.5196,3.4907,3.4775,3.4775,3.4775,3.4775,3.4775,3.4558,3.4102,3.403,3.355,3.2695,3.2142,3.2094,3.2478,3.1925,3.1705,3.1717,3.1789,3.1777,3.1753,3.2274,3.2767,3.3224,3.3622,3.4114,3.4631,3.4643,3.4679,3.4679,3.4763,3.4775,3.4775,3.4775,3.4775,3.4775,3.4775,3.4775,3.4775,3.4775,3.4981,3.5223,3.5223,3.5464,3.5716,3.6015,3.6063,3.6098,3.637,3.6405,3.6405,3.6405,3.6405,3.6405,3.6405,3.6405,3.6405,3.6405,3.6405,3.6405,3.6405,3.6405,3.6405,3.6405,3.6405,3.6405,3.6405,3.6405,3.6405,3.6405,3.6405,3.6405,3.6405,3.6405,3.6405,3.6405,3.6405,3.6405,3.6405,3.6405,3.6405,3.6405,3.6405,3.6405,2.9881,3.0867,3.1985,3.3586,3.457,3.5256,3.5545,3.6026,3.6411,3.6411,3.6362,3.6398,3.6699,3.6314,3.5966,3.5966,3.5713,3.5437,3.5159,3.5172,3.528,3.5581,3.5617,3.5713,3.5942,3.5749,3.5497,3.5147,3.4907,3.4775,3.4775,3.4775,3.4775,3.4775,3.4775,3.4522,3.4006,3.3765,3.308,3.2034,3.1825,3.1837,3.2022,3.1825,3.1705,3.1705,3.1705,3.1705,3.1729,3.1925,3.2358,3.2863,3.3092,3.3622,3.4342,3.4342,3.4522,3.4775,3.4775,3.4775,3.4775,3.4775,3.4775,3.4775,3.4775,3.4775,3.4775,3.4775,3.4884,3.503,3.5175,3.5271,3.5476,3.5908,3.6015,3.6051,3.6323,3.6405,3.6405,3.6405,3.6405,3.6405,3.6405,3.6405,3.6405,3.6405,3.6405,3.6405,3.6405,3.6405,3.6405,3.6405,3.6405,3.6405,3.6405,3.6405,3.6405,3.6405,3.6405,3.6405,3.6405,3.6405,3.6405,3.6405,3.6405,3.6405,3.6405,3.6405,3.6405,3.6417,3.6732,3.6707,3.0122,3.0579,3.112,3.2971,3.3837,3.4414,3.5015,3.5521,3.5845,3.5978,3.5689,3.5533,3.593,3.5677,3.5425,3.5425,3.5039,3.4775,3.4775,3.4775,3.4931,3.5376,3.5425,3.5425,3.5425,3.5425,3.5256,3.4811,3.4775,3.4727,3.4583,3.4583,3.4522,3.4438,3.4438,3.4186,3.361,3.314,3.2466,3.1705,3.1705,3.1705,3.1705,3.1705,3.1705,3.1705,3.1705,3.1705,3.1705,3.1705,3.2042,3.2503,3.2503,3.3056,3.3826,3.3946,3.4246,3.4595,3.4727,3.4775,3.4775,3.4775,3.4775,3.4775,3.4775,3.4775,3.4775,3.4775,3.4775,3.4872,3.5126,3.5223,3.532,3.5872,3.6015,3.6051,3.6323,3.6405,3.6405,3.6405,3.6405,3.6405,3.6405,3.6405,3.6405,3.6405,3.6405,3.6405,3.6405,3.6405,3.6405,3.6405,3.6405,3.6405,3.6405,3.6405,3.6405,3.6405,3.6405,3.6405,3.6405,3.6405,3.6405,3.6405,3.6405,3.6405,3.6405,3.6405,3.6405,3.6417,3.6923,3.7008,2.922,2.9749,3.0398,3.156,3.2202,3.2887,3.385,3.409,3.4258,3.4763,3.4847,3.4823,3.4859,3.4847,3.4823,3.4823,3.4799,3.4775,3.4775,3.4775,3.4787,3.4823,3.4823,3.4823,3.4823,3.4823,3.4811,3.4775,3.4775,3.4558,3.4066,3.403,3.3861,3.338,3.3368,3.3116,3.2587,3.2034,3.1765,3.1705,3.1705,3.1705,3.1705,3.1705,3.1705,3.1705,3.1705,3.1705,3.1705,3.1705,3.2042,3.2503,3.2503,3.2839,3.3392,3.3826,3.4006,3.4102,3.4607,3.4775,3.4775,3.4775,3.4775,3.4775,3.4775,3.4775,3.4775,3.4775,3.4775,3.4872,3.5126,3.5223,3.532,3.5872,3.6015,3.6051,3.6323,3.6405,3.6405,3.6405,3.6405,3.6405,3.6405,3.6405,3.6405,3.6405,3.6405,3.6405,3.6405,3.6405,3.6405,3.6405,3.6405,3.6405,3.6405,3.6405,3.6405,3.6405,3.6405,3.6405,3.6405,3.6405,3.6405,3.6405,3.6405,3.6405,3.6405,3.6405,3.6405,3.6417,3.6923,3.7174,2.916,2.9436,2.9833,3.0934,3.1609,3.2154,3.2887,3.3308,3.3621,3.3801,3.4102,3.4282,3.4282,3.4546,3.4775,3.4775,3.4775,3.4775,3.4775,3.4775,3.4775,3.4775,3.4775,3.4775,3.4775,3.4474,3.4282,3.4282,3.403,3.3753,3.3573,3.3561,3.3477,3.3296,3.3284,3.3032,3.2515,3.1994,3.1705,3.1705,3.1705,3.1705,3.1705,3.1705,3.1705,3.1705,3.1705,3.1705,3.1705,3.1705,3.1825,3.2006,3.2006,3.2298,3.2803,3.2984,3.3477,3.4018,3.421,3.4498,3.4727,3.439,3.4498,3.4715,3.4378,3.451,3.4775,3.4775,3.4775,3.4872,3.5126,3.5223,3.532,3.5872,3.6146,3.6275,3.6358,3.6405,3.6405,3.6405,3.6405,3.6405,3.6405,3.6405,3.6405,3.6405,3.6405,3.6405,3.6405,3.6405,3.6405,3.6405,3.6405,3.6405,3.6405,3.6405,3.6405,3.6405,3.6405,3.6405,3.6405,3.6405,3.6405,3.6405,3.6405,3.6581,3.6885,3.6581,3.6593,3.6945,3.7098,3.6998,2.8931,2.9027,2.9292,3.035,3.0735,3.1108,3.2022,3.2491,3.2803,3.2984,3.3428,3.3789,3.3789,3.4078,3.4426,3.4727,3.4631,3.451,3.451,3.451,3.439,3.409,3.4306,3.4378,3.4078,3.3885,3.3789,3.3789,3.3477,3.3212,3.3032,3.302,3.2935,3.2743,3.2743,3.2575,3.2226,3.1898,3.1705,3.1705,3.1705,3.1705,3.1705,3.1705,3.1705,3.1705,3.1705,3.1705,3.1705,3.1705,3.1705,3.1705,3.1705,3.1934,3.2238,3.243,3.2935,3.3526,3.3874,3.4114,3.4306,3.4258,3.4366,3.4486,3.4306,3.4498,3.4775,3.4775,3.4775,3.4872,3.5126,3.5271,3.5464,3.5908,3.6146,3.6275,3.6358,3.6405,3.6405,3.6405,3.6405,3.6405,3.6405,3.6405,3.6405,3.6405,3.6405,3.6405,3.6405,3.6405,3.6405,3.6405,3.6405,3.6405,3.6405,3.6405,3.6405,3.6405,3.6405,3.6405,3.6405,3.6405,3.6405,3.6405,3.6405,3.6681,3.7186,3.6681,3.6593,3.6958,3.7098,3.7086,0.0,0.0,0.0,2.9785,2.9665,2.9701,3.1284,3.1657,3.1813,3.2334,3.2875,3.3248,3.326,3.3284,3.3621,3.4619,3.4294,3.3946,3.3946,3.3934,3.355,3.2599,3.3368,3.3538,3.2599,3.2947,3.3248,3.3272,3.3248,3.302,3.2503,3.2478,3.2226,3.1729,3.1705,3.1705,3.1705,3.1705,3.1705,3.1705,3.1705,3.1705,3.1705,3.1705,3.1705,3.1705,3.1705,3.1705,3.1705,3.1705,3.1705,3.1705,3.1705,3.1705,3.1777,3.2274,3.2491,3.2647,3.3622,3.3705,3.3477,3.4487,3.4414,3.4114,3.4607,3.4763,3.4775,3.4775,3.4775,3.4872,3.5126,3.5416,3.5668,3.592,3.6015,3.6098,3.6323,3.6405,3.6405,3.6405,3.6405,3.6405,3.6405,3.6405,3.6405,3.6405,3.6405,3.6405,3.6405,3.6405,3.6405,3.6405,3.6405,3.6405,3.6405,3.6405,3.6405,3.6405,3.6405,3.6405,3.6405,3.6405,3.6405,3.6405,3.6405,3.6669,3.7161,3.6669,3.6417,3.6443,3.6923,3.745,2.851,0.0,0.0,0.0,0.0,0.0,2.9845,3.0254,3.0675,3.1216,3.1789,3.2283,3.2647,3.3032,3.338,3.3669,3.3272,3.2923,3.2923,3.2575,3.2214,3.1925,3.2142,3.237,3.2491,3.2262,3.2274,3.2695,3.2346,3.209,3.1946,3.1934,3.1862,3.1717,3.1705,3.1705,3.1705,3.1705,3.1705,3.1705,3.1705,3.1705,3.1705,3.1705,3.1705,3.1705,3.1705,3.1705,3.1705,3.1705,3.1705,3.1705,3.1705,3.1705,3.1729,3.1886,3.2154,3.2599,3.326,3.3645,3.3826,3.4114,3.4366,3.4522,3.4282,3.4474,3.4775,3.4775,3.4775,3.4872,3.5126,3.5512,3.592,3.5968,3.6146,3.6323,3.6358,3.6405,3.6405,3.6405,3.6405,3.6405,3.6405,3.6405,3.6405,3.6405,3.6405,3.6405,3.6405,3.6405,3.6405,3.6405,3.6405,3.6405,3.6405,3.6405,3.6405,3.6405,3.6405,3.6405,3.6405,3.6405,3.6405,3.6405,3.6405,3.648,3.6631,3.648,3.6619,3.6948,3.6757,3.6719,0.0,0.0,0.0,2.8787,0.0,0.0,2.9256,2.9532,2.9845,3.0158,3.0639,3.1108,3.1432,3.1745,3.2022,3.225,3.1841,3.1733,3.2406,3.2214,3.1886,3.1428,3.1777,3.1877,3.1529,3.144,3.1384,3.1492,3.144,3.1476,3.1705,3.1705,3.1705,3.1705,3.1705,3.1705,3.1705,3.1705,3.1705,3.1705,3.1705,3.1705,3.1705,3.1705,3.1705,3.1705,3.1705,3.1705,3.1705,3.1705,3.1705,3.1705,3.1705,3.1705,3.1705,3.1705,3.191,3.2226,3.2767,3.3152,3.3418,3.385,3.4198,3.4438,3.4342,3.4534,3.4775,3.4775,3.4775,3.4872,3.5126,3.5428,3.5716,3.5968,3.6098,3.6275,3.6358,3.6405,3.6405,3.6405,3.6405,3.6405,3.6405,3.6405,3.6405,3.6405,3.6405,3.6405,3.6405,3.6405,3.6405,3.6405,3.6405,3.6405,3.6405,3.6405,3.6405,3.6405,3.6405,3.6405,3.6405,3.6405,3.6405,3.6405,3.6405,3.6405,3.6405,3.6405,3.6568,3.6883,3.6556,3.6405,0.0,0.0,0.0,2.9169,2.894,0.0,2.914,2.9249,2.9261,2.928,2.9677,3.0013,3.0074,3.0086,3.0242,3.0711,3.0398,3.0615,3.2106,3.2274,3.1877,3.0903,3.1637,3.1685,3.0302,3.0603,3.0742,3.029,3.0742,3.1187,3.1597,3.1681,3.1657,3.1536,3.1645,3.1657,3.1536,3.1657,3.1681,3.1621,3.1681,3.1705,3.1705,3.1705,3.1705,3.1705,3.1705,3.1705,3.1705,3.1705,3.1705,3.1705,3.1705,3.1705,3.1705,3.1705,3.1705,3.1789,3.2298,3.2503,3.2659,3.3598,3.391,3.4006,3.4534,3.4691,3.4703,3.4763,3.4775,3.4872,3.5126,3.5223,3.5368,3.5872,3.6015,3.6098,3.637,3.6405,3.6405,3.6405,3.6405,3.6405,3.6405,3.6405,3.6405,3.6405,3.6405,3.6405,3.6405,3.6405,3.6405,3.6405,3.6405,3.6405,3.6405,3.6405,3.6405,3.6405,3.6405,3.6405,3.6405,3.6405,3.6405,3.6405,3.6405,3.6405,3.6405,3.6405,3.6405,3.6405,3.6405,3.6405,2.8724,2.8855,2.8998,2.9108,2.9047,0.0,2.8897,2.8922,2.8963,2.9249,2.9376,2.9581,3.0013,3.0086,3.0122,3.0218,3.0158,3.035,3.1096,3.0831,3.0482,3.0266,3.0434,3.0603,3.0711,3.0862,3.1055,3.138,3.1488,3.1416,3.1091,3.1476,3.132,3.0422,3.1259,3.1296,3.0398,3.1284,3.1488,3.1079,3.15,3.1705,3.1705,3.1705,3.1705,3.1705,3.1705,3.1705,3.1705,3.1705,3.1705,3.1705,3.1705,3.1705,3.1705,3.1705,3.1705,3.1789,3.2298,3.2503,3.2599,3.3224,3.344,3.3537,3.3994,3.415,3.4234,3.4667,3.4775,3.4872,3.5126,3.5368,3.562,3.592,3.6146,3.6323,3.6405,3.6405,3.6405,3.6405,3.6405,3.6405,3.6405,3.6405,3.6405,3.6405,3.6405,3.6405,3.6405,3.6405,3.6405,3.6405,3.6405,3.6405,3.6405,3.6405,3.6405,3.6405,3.6405,3.6405,3.6405,3.6405,3.6405,3.6405,3.6405,3.6405,3.6405,3.6405,3.6405,3.6405,3.6405,3.6405,2.8764,2.8882,2.8961,2.9052,2.9091,0.0,0.0,2.8961,2.8955,2.9036,2.9044,2.9101,2.9285,2.9304,2.9388,2.9653,2.9689,2.9881,3.041,3.0254,3.0182,3.0446,3.0482,3.0579,3.0855,3.0639,3.0591,3.0898,3.0627,3.0603,3.091,3.0922,3.0681,3.011,3.0603,3.0627,3.0098,3.0615,3.079,3.0494,3.1055,3.1308,3.132,3.1585,3.1705,3.1705,3.1705,3.1705,3.1705,3.1705,3.1705,3.1705,3.1705,3.1705,3.1705,3.1705,3.1705,3.1753,3.203,3.2262,3.2551,3.2803,3.308,3.3379,3.3713,3.4073,3.4387,3.4414,3.4776,3.5223,3.5368,3.562,3.586,3.6146,3.6323,3.6405,3.6405,3.6405,3.6405,3.6405,3.6405,3.6405,3.6405,3.6405,3.6405,3.6405,3.6405,3.6405,3.6405,3.6405,3.6405,3.6405,3.6405,3.6405,3.6405,3.6405,3.6405,3.6405,3.6405,3.6405,3.6405,3.6405,3.6405,3.6405,3.6405,3.6405,3.6405,3.6405,3.6405,3.6405,3.6405,3.6405,2.9163,2.9193,2.9199,2.9369,2.9295,2.9209,0.0,0.0,0.0,2.8831,2.8791,2.8724,2.855,2.851,2.8655,2.9076,2.9148,2.9304,2.9725,2.9785,3.0062,3.0826,3.0826,3.0814,3.091,3.0494,3.0194,3.0098,2.9785,2.9893,3.0585,3.0266,2.9989,2.9785,2.9977,2.9989,2.9785,2.9989,3.0037,2.9941,3.047,3.0783,3.0891,3.1356,3.1609,3.1705,3.1705,3.1705,3.1705,3.1705,3.1705,3.1705,3.1705,3.1705,3.1705,3.1705,3.1705,3.1717,3.1749,3.2051,3.2436,3.2482,3.2904,3.3482,3.3752,3.4352,3.4875,3.4436,3.4943,3.562,3.5668,3.5812,3.6051,3.6323,3.6405,3.6405,3.6405,3.6405,3.6405,3.6405,3.6405,3.6405,3.6405,3.6405,3.6405,3.6405,3.6405,3.6405,3.6405,3.6405,3.6405,3.6405,3.6405,3.6405,3.6405,3.6405,3.6405,3.6405,3.6405,3.6405,3.6405,3.6405,3.6405,3.6405,3.6405,3.6405,3.6405,3.6405,3.6405,3.6405,3.6405,3.6405,3.065,3.063,3.0401,3.044,3.0077,2.9663,2.9431,0.0,2.9263,2.8882,0.0,2.8724,2.855,0.0,0.0,2.8595,2.8595,2.8619,2.8679,2.8691,2.9232,3.0699,3.0458,3.0362,3.0874,3.0819,3.0591,3.0122,3.0458,3.0338,2.952,2.9869,2.9653,2.8715,2.9593,2.9641,2.8703,2.9617,2.9845,2.94,2.9917,3.0422,3.0922,3.0983,3.1259,3.1705,3.1705,3.1705,3.1705,3.1705,3.1705,3.1705,3.1705,3.1705,3.1705,3.1705,3.1705,3.1705,3.1893,3.1986,3.2091,3.2311,3.3097,3.4004,3.4529,3.5045,3.5487,3.5426,3.5523,3.5668,3.5908,3.5968,3.6051,3.6323,3.6405,3.6405,3.6405,3.6405,3.6405,3.6405,3.6405,3.6405,3.6405,3.6405,3.6405,3.6405,3.6405,3.6405,3.6405,3.6405,3.6405,3.6405,3.6405,3.6405,3.6405,3.6405,3.6405,3.6405,3.6405,3.6405,3.6405,3.6405,3.6405,3.6405,3.6405,3.6405,3.6405,3.6405,3.6405,3.6405,3.6405,3.6405,3.098,3.0893,3.0698,3.0616,3.0301,2.9959,2.9686,2.965,2.9521,2.9223,0.0,0.0,0.0,0.0,0.0,0.0,2.8855,2.8816,2.8685,2.8657,2.898,2.9887,2.9761,2.9713,2.9941,3.0242,3.0194,2.9677,2.9833,2.9773,2.9316,2.922,2.8967,2.8522,2.8943,2.8967,2.851,2.8955,2.9063,2.8847,2.9376,2.9749,2.9965,3.0278,3.0711,3.1247,3.1247,3.1428,3.1705,3.1705,3.1705,3.1705,3.1705,3.1705,3.1705,3.1705,3.1749,3.1893,3.1994,3.2081,3.2257,3.2344,3.2993,3.3748,3.3847,3.465,3.5409,3.4866,3.5095,3.5518,3.5543,3.5625,3.584,3.6282,3.6405,3.6405,3.6405,3.6405,3.6405,3.6405,3.6405,3.6405,3.6405,3.6405,3.6405,3.6405,3.6405,3.6405,3.6405,3.6405,3.6405,3.6405,3.6405,3.6405,3.6405,3.6405,3.6405,3.6405,3.6405,3.6405,3.6405,3.6405,3.6405,3.6405,3.6405,3.6405,3.6405,3.6405,3.6405,3.6405,3.6405,3.6405,3.1265,3.1166,3.0914,3.0841,3.0463,3.0047,2.9841,2.9905,2.9889,2.9495,2.9543,0.0,0.0,0.0,2.9091,0.0,0.0,2.9052,2.8882,2.8843,2.8918,2.9273,2.9304,2.9244,2.9088,2.9556,2.9653,2.9124,2.922,2.9232,2.9088,2.8715,2.851,2.851,2.851,2.851,2.851,2.851,2.851,2.851,2.8895,2.916,2.9316,2.9689,3.0158,3.0663,3.0663,3.1007,3.1488,3.1488,3.1616,3.1761,3.1761,3.1761,3.1761,3.1705,3.1805,3.1937,3.2081,3.23,3.2643,3.2779,3.3275,3.3836,3.3818,3.4595,3.5374,3.4607,3.4807,3.5236,3.511,3.519,3.5408,3.6006,3.6132,3.6182,3.6367,3.6405,3.6405,3.6405,3.6405,3.6405,3.6405,3.6405,3.6405,3.6405,3.6405,3.6405,3.6405,3.6405,3.6405,3.6405,3.6405,3.6405,3.6405,3.6405,3.6405,3.6405,3.6405,3.6405,3.6405,3.6405,3.6405,3.6405,3.6405,3.6405,3.6405,3.6405,3.6405,3.6405,3.6405,3.6405,3.1836,3.1647,3.1386,3.1373,3.0583,2.9817,2.9792,3.0206,3.034,2.9569,2.9853,3.0037,2.9229,2.9091,0.0,0.0,0.0,0.0,0.0,2.8922,2.8918,2.9273,2.9304,2.91,2.8595,2.9015,2.91,2.857,2.9015,2.9076,2.8558,2.8522,2.851,2.851,2.851,2.851,2.851,2.851,2.851,2.851,2.8522,2.8799,2.9304,2.9316,2.9617,3.011,3.011,3.041,3.0946,3.0946,3.1346,3.1994,3.1994,3.1994,3.1994,3.1749,3.1705,3.1749,3.2213,3.2692,3.3169,3.3696,3.4204,3.4756,3.5282,3.547,3.5495,3.5483,3.5107,3.4705,3.4705,3.4705,3.4843,3.5395,3.552,3.5671,3.6292,3.6405,3.6405,3.6405,3.6405,3.6405,3.6405,3.6405,3.6405,3.6405,3.6405,3.6405,3.6405,3.6405,3.6405,3.6405,3.6405,3.6405,3.6405,3.6405,3.6405,3.6405,3.6405,3.6405,3.6405,3.6405,3.6405,3.6405,3.6405,3.6405,3.6405,3.6405,3.6405,3.6405,3.6405,3.6405,3.2664,3.2484,3.2192,3.1985,3.1276,3.0611,3.038,3.0482,3.0417,2.9775,3.01,3.0313,2.9685,2.9546,0.0,0.0,0.0,0.0,0.0,2.8988,2.8825,2.8979,2.8855,2.8703,2.8522,2.8991,2.9076,2.8546,2.9003,2.9076,2.8546,2.851,2.851,2.851,2.851,2.851,2.851,2.851,2.851,2.851,2.851,2.8607,2.8775,2.8775,2.9063,2.9581,2.9941,3.0386,3.0946,3.1296,3.1592,3.1805,3.1805,3.1805,3.1805,3.1893,3.1893,3.1981,3.2419,3.2723,3.2878,3.3251,3.3721,3.4211,3.4399,3.4668,3.4881,3.4562,3.4324,3.4173,3.4173,3.4173,3.4324,3.4818,3.5232,3.5558,3.578,3.6107,3.6405,3.6405,3.6405,3.6405,3.6405,3.6405,3.6405,3.6405,3.6405,3.6405,3.6405,3.6405,3.6405,3.6405,3.6405,3.6405,3.6405,3.6405,3.6405,3.6405,3.6405,3.6405,3.6405,3.6405,3.6405,3.6405,3.6405,3.6405,3.6405,3.6405,3.6405,3.6405,3.6405,3.6405,3.2744,3.2596,3.2454,3.2261,3.1676,3.1098,3.0693,3.0758,3.0683,2.9942,3.0231,3.0457,2.9892,2.9792,0.0,0.0,0.0,0.0,0.0,2.9118,2.8882,2.8791,2.8618,2.851,2.851,2.8823,2.8883,2.8534,2.8823,2.8871,2.8522,2.8691,2.8787,2.8787,2.8787,2.8787,2.8787,2.8607,2.851,2.851,2.851,2.851,2.851,2.851,2.8703,2.9039,2.9376,2.9929,3.0627,3.1007,3.1412,3.1805,3.1805,3.1805,3.1805,3.1849,3.1937,3.2081,3.2463,3.2636,3.2766,3.3025,3.3583,3.4198,3.4198,3.4575,3.4893,3.4587,3.4349,3.4148,3.3947,3.3897,3.4035,3.4587,3.4806,3.5069,3.5705,3.5968,3.6119,3.6367,3.6405,3.6405,3.6405,3.6405,3.6405,3.6405,3.6405,3.6405,3.6405,3.6405,3.6405,3.6405,3.6405,3.6405,3.6405,3.6405,3.6405,3.6405,3.6405,3.6405,3.6405,3.6405,3.6505,3.6694,3.6505,3.6505,3.6707,3.6505,3.6405,3.6405,3.6405,3.6405]}]]